<?xml version="1.0" encoding="UTF-8" standalone="no" ?>
<gpx xmlns="http://www.topografix.com/GPX/1/1" xmlns:xsi="http://www.w3.org/2001/XMLSchema-instance" xsi:schemaLocation="http://www.topografix.com/GPX/1/1 http://www.topografix.com/GPX/1/1/gpx.xsd" version="1.1" creator="VisuGPX - https://www.visugpx.com">
  <metadata>
    <name>150603ROBBenjamins</name>
    <desc><![CDATA[excellente sortie]]></desc>
  </metadata>
  <trk>
    <name><![CDATA[150603ROBBenjamins]]></name>
    <trkseg>
      <trkpt lat="43.41375" lon="6.07338">
        <ele>191</ele>
        <time>2015-06-03T11:46:23Z</time>
      </trkpt>
      <trkpt lat="43.41374" lon="6.07345">
        <ele>191.39999389648</ele>
        <time>2015-06-03T11:46:24Z</time>
      </trkpt>
      <trkpt lat="43.41372" lon="6.07352">
        <ele>190.80000305176</ele>
        <time>2015-06-03T11:46:25Z</time>
      </trkpt>
      <trkpt lat="43.41369" lon="6.07366">
        <ele>190.80000305176</ele>
        <time>2015-06-03T11:46:27Z</time>
      </trkpt>
      <trkpt lat="43.41362" lon="6.07395">
        <ele>189.80000305176</ele>
        <time>2015-06-03T11:46:31Z</time>
      </trkpt>
      <trkpt lat="43.41359" lon="6.07409">
        <ele>189.19999694824</ele>
        <time>2015-06-03T11:46:33Z</time>
      </trkpt>
      <trkpt lat="43.41356" lon="6.07425">
        <ele>190</ele>
        <time>2015-06-03T11:46:35Z</time>
      </trkpt>
      <trkpt lat="43.41352" lon="6.07442">
        <ele>190.19999694824</ele>
        <time>2015-06-03T11:46:37Z</time>
      </trkpt>
      <trkpt lat="43.41341" lon="6.07503">
        <ele>189.19999694824</ele>
        <time>2015-06-03T11:46:44Z</time>
      </trkpt>
      <trkpt lat="43.41337" lon="6.0752">
        <ele>189.19999694824</ele>
        <time>2015-06-03T11:46:46Z</time>
      </trkpt>
      <trkpt lat="43.41331" lon="6.07548">
        <ele>189.60000610352</ele>
        <time>2015-06-03T11:46:49Z</time>
      </trkpt>
      <trkpt lat="43.41326" lon="6.07567">
        <ele>189.80000305176</ele>
        <time>2015-06-03T11:46:51Z</time>
      </trkpt>
      <trkpt lat="43.41311" lon="6.07619">
        <ele>189.19999694824</ele>
        <time>2015-06-03T11:46:57Z</time>
      </trkpt>
      <trkpt lat="43.41301" lon="6.07655">
        <ele>189.19999694824</ele>
        <time>2015-06-03T11:47:01Z</time>
      </trkpt>
      <trkpt lat="43.41291" lon="6.0769">
        <ele>188.60000610352</ele>
        <time>2015-06-03T11:47:05Z</time>
      </trkpt>
      <trkpt lat="43.41289" lon="6.07719">
        <ele>188.39999389648</ele>
        <time>2015-06-03T11:47:08Z</time>
      </trkpt>
      <trkpt lat="43.41289" lon="6.07737">
        <ele>188.39999389648</ele>
        <time>2015-06-03T11:47:10Z</time>
      </trkpt>
      <trkpt lat="43.41295" lon="6.07774">
        <ele>188.19999694824</ele>
        <time>2015-06-03T11:47:14Z</time>
      </trkpt>
      <trkpt lat="43.41298" lon="6.07783">
        <ele>187.80000305176</ele>
        <time>2015-06-03T11:47:15Z</time>
      </trkpt>
      <trkpt lat="43.41302" lon="6.07799">
        <ele>187.80000305176</ele>
        <time>2015-06-03T11:47:17Z</time>
      </trkpt>
      <trkpt lat="43.41318" lon="6.07854">
        <ele>187.19999694824</ele>
        <time>2015-06-03T11:47:24Z</time>
      </trkpt>
      <trkpt lat="43.41325" lon="6.07876">
        <ele>187.39999389648</ele>
        <time>2015-06-03T11:47:27Z</time>
      </trkpt>
      <trkpt lat="43.4133" lon="6.07895">
        <ele>188.39999389648</ele>
        <time>2015-06-03T11:47:30Z</time>
      </trkpt>
      <trkpt lat="43.4133" lon="6.07902">
        <ele>188.60000610352</ele>
        <time>2015-06-03T11:47:31Z</time>
      </trkpt>
      <trkpt lat="43.41335" lon="6.07925">
        <ele>189</ele>
        <time>2015-06-03T11:47:35Z</time>
      </trkpt>
      <trkpt lat="43.41344" lon="6.07933">
        <ele>188.60000610352</ele>
        <time>2015-06-03T11:47:37Z</time>
      </trkpt>
      <trkpt lat="43.41353" lon="6.07942">
        <ele>188.60000610352</ele>
        <time>2015-06-03T11:47:39Z</time>
      </trkpt>
      <trkpt lat="43.41374" lon="6.07963">
        <ele>187.39999389648</ele>
        <time>2015-06-03T11:47:43Z</time>
      </trkpt>
      <trkpt lat="43.41383" lon="6.07976">
        <ele>187.19999694824</ele>
        <time>2015-06-03T11:47:45Z</time>
      </trkpt>
      <trkpt lat="43.41416" lon="6.08031">
        <ele>188</ele>
        <time>2015-06-03T11:47:53Z</time>
      </trkpt>
      <trkpt lat="43.41445" lon="6.0808">
        <ele>187</ele>
        <time>2015-06-03T11:48:00Z</time>
      </trkpt>
      <trkpt lat="43.41449" lon="6.08087">
        <ele>186.80000305176</ele>
        <time>2015-06-03T11:48:01Z</time>
      </trkpt>
      <trkpt lat="43.41479" lon="6.08136">
        <ele>187.39999389648</ele>
        <time>2015-06-03T11:48:08Z</time>
      </trkpt>
      <trkpt lat="43.41484" lon="6.08143">
        <ele>187.39999389648</ele>
        <time>2015-06-03T11:48:09Z</time>
      </trkpt>
      <trkpt lat="43.415" lon="6.08169">
        <ele>188.19999694824</ele>
        <time>2015-06-03T11:48:13Z</time>
      </trkpt>
      <trkpt lat="43.41513" lon="6.08197">
        <ele>188.80000305176</ele>
        <time>2015-06-03T11:48:17Z</time>
      </trkpt>
      <trkpt lat="43.41525" lon="6.08221">
        <ele>187.80000305176</ele>
        <time>2015-06-03T11:48:20Z</time>
      </trkpt>
      <trkpt lat="43.41533" lon="6.08236">
        <ele>187.19999694824</ele>
        <time>2015-06-03T11:48:22Z</time>
      </trkpt>
      <trkpt lat="43.41546" lon="6.08269">
        <ele>186.39999389648</ele>
        <time>2015-06-03T11:48:26Z</time>
      </trkpt>
      <trkpt lat="43.4155" lon="6.08286">
        <ele>186.60000610352</ele>
        <time>2015-06-03T11:48:28Z</time>
      </trkpt>
      <trkpt lat="43.41556" lon="6.08313">
        <ele>186.80000305176</ele>
        <time>2015-06-03T11:48:31Z</time>
      </trkpt>
      <trkpt lat="43.41562" lon="6.08348">
        <ele>186.80000305176</ele>
        <time>2015-06-03T11:48:35Z</time>
      </trkpt>
      <trkpt lat="43.41572" lon="6.08396">
        <ele>187</ele>
        <time>2015-06-03T11:48:41Z</time>
      </trkpt>
      <trkpt lat="43.41578" lon="6.08431">
        <ele>187.19999694824</ele>
        <time>2015-06-03T11:48:46Z</time>
      </trkpt>
      <trkpt lat="43.41586" lon="6.08483">
        <ele>187</ele>
        <time>2015-06-03T11:48:53Z</time>
      </trkpt>
      <trkpt lat="43.41594" lon="6.08539">
        <ele>187.19999694824</ele>
        <time>2015-06-03T11:49:01Z</time>
      </trkpt>
      <trkpt lat="43.41599" lon="6.08581">
        <ele>187.39999389648</ele>
        <time>2015-06-03T11:49:07Z</time>
      </trkpt>
      <trkpt lat="43.41601" lon="6.08595">
        <ele>187.19999694824</ele>
        <time>2015-06-03T11:49:09Z</time>
      </trkpt>
      <trkpt lat="43.4161" lon="6.08648">
        <ele>186.80000305176</ele>
        <time>2015-06-03T11:49:16Z</time>
      </trkpt>
      <trkpt lat="43.41627" lon="6.08682">
        <ele>186.60000610352</ele>
        <time>2015-06-03T11:49:21Z</time>
      </trkpt>
      <trkpt lat="43.41637" lon="6.08701">
        <ele>186.60000610352</ele>
        <time>2015-06-03T11:49:24Z</time>
      </trkpt>
      <trkpt lat="43.41647" lon="6.0872">
        <ele>186.19999694824</ele>
        <time>2015-06-03T11:49:27Z</time>
      </trkpt>
      <trkpt lat="43.41666" lon="6.08754">
        <ele>186.39999389648</ele>
        <time>2015-06-03T11:49:32Z</time>
      </trkpt>
      <trkpt lat="43.41673" lon="6.08767">
        <ele>186.39999389648</ele>
        <time>2015-06-03T11:49:34Z</time>
      </trkpt>
      <trkpt lat="43.41677" lon="6.08774">
        <ele>186.19999694824</ele>
        <time>2015-06-03T11:49:35Z</time>
      </trkpt>
      <trkpt lat="43.41693" lon="6.08805">
        <ele>186</ele>
        <time>2015-06-03T11:49:40Z</time>
      </trkpt>
      <trkpt lat="43.41703" lon="6.08823">
        <ele>185.80000305176</ele>
        <time>2015-06-03T11:49:43Z</time>
      </trkpt>
      <trkpt lat="43.4173" lon="6.08876">
        <ele>185.60000610352</ele>
        <time>2015-06-03T11:49:52Z</time>
      </trkpt>
      <trkpt lat="43.41732" lon="6.08882">
        <ele>185.60000610352</ele>
        <time>2015-06-03T11:49:53Z</time>
      </trkpt>
      <trkpt lat="43.41737" lon="6.0891">
        <ele>185.80000305176</ele>
        <time>2015-06-03T11:49:57Z</time>
      </trkpt>
      <trkpt lat="43.41737" lon="6.08917">
        <ele>185.60000610352</ele>
        <time>2015-06-03T11:49:58Z</time>
      </trkpt>
      <trkpt lat="43.41736" lon="6.08948">
        <ele>185.60000610352</ele>
        <time>2015-06-03T11:50:02Z</time>
      </trkpt>
      <trkpt lat="43.41733" lon="6.08972">
        <ele>185.39999389648</ele>
        <time>2015-06-03T11:50:05Z</time>
      </trkpt>
      <trkpt lat="43.41723" lon="6.09029">
        <ele>185.60000610352</ele>
        <time>2015-06-03T11:50:12Z</time>
      </trkpt>
      <trkpt lat="43.41722" lon="6.09074">
        <ele>186</ele>
        <time>2015-06-03T11:50:18Z</time>
      </trkpt>
      <trkpt lat="43.41721" lon="6.09133">
        <ele>185.80000305176</ele>
        <time>2015-06-03T11:50:26Z</time>
      </trkpt>
      <trkpt lat="43.41721" lon="6.09209">
        <ele>185.39999389648</ele>
        <time>2015-06-03T11:50:36Z</time>
      </trkpt>
      <trkpt lat="43.41723" lon="6.09283">
        <ele>185.39999389648</ele>
        <time>2015-06-03T11:50:46Z</time>
      </trkpt>
      <trkpt lat="43.41719" lon="6.09303">
        <ele>185</ele>
        <time>2015-06-03T11:50:50Z</time>
      </trkpt>
      <trkpt lat="43.41714" lon="6.09307">
        <ele>184.60000610352</ele>
        <time>2015-06-03T11:50:52Z</time>
      </trkpt>
      <trkpt lat="43.41706" lon="6.0931">
        <ele>184.80000305176</ele>
        <time>2015-06-03T11:50:54Z</time>
      </trkpt>
      <trkpt lat="43.41685" lon="6.09314">
        <ele>184.60000610352</ele>
        <time>2015-06-03T11:50:59Z</time>
      </trkpt>
      <trkpt lat="43.4166" lon="6.09319">
        <ele>184.39999389648</ele>
        <time>2015-06-03T11:51:04Z</time>
      </trkpt>
      <trkpt lat="43.4164" lon="6.09323">
        <ele>185</ele>
        <time>2015-06-03T11:51:08Z</time>
      </trkpt>
      <trkpt lat="43.41631" lon="6.09325">
        <ele>185.39999389648</ele>
        <time>2015-06-03T11:51:10Z</time>
      </trkpt>
      <trkpt lat="43.41598" lon="6.09331">
        <ele>185.19999694824</ele>
        <time>2015-06-03T11:51:18Z</time>
      </trkpt>
      <trkpt lat="43.41595" lon="6.09324">
        <ele>186</ele>
        <time>2015-06-03T11:51:20Z</time>
      </trkpt>
      <trkpt lat="43.41594" lon="6.0932">
        <ele>186.39999389648</ele>
        <time>2015-06-03T11:51:21Z</time>
      </trkpt>
      <trkpt lat="43.41593" lon="6.09309">
        <ele>186.80000305176</ele>
        <time>2015-06-03T11:51:25Z</time>
      </trkpt>
      <trkpt lat="43.41595" lon="6.0929">
        <ele>187</ele>
        <time>2015-06-03T11:51:31Z</time>
      </trkpt>
      <trkpt lat="43.41595" lon="6.09287">
        <ele>187</ele>
        <time>2015-06-03T11:51:32Z</time>
      </trkpt>
      <trkpt lat="43.41597" lon="6.09269">
        <ele>187.60000610352</ele>
        <time>2015-06-03T11:51:37Z</time>
      </trkpt>
      <trkpt lat="43.41598" lon="6.09256">
        <ele>187.39999389648</ele>
        <time>2015-06-03T11:51:42Z</time>
      </trkpt>
      <trkpt lat="43.41597" lon="6.09255">
        <ele>187.39999389648</ele>
        <time>2015-06-03T11:51:43Z</time>
      </trkpt>
      <trkpt lat="43.41592" lon="6.09252">
        <ele>188.39999389648</ele>
        <time>2015-06-03T11:51:47Z</time>
      </trkpt>
      <trkpt lat="43.41592" lon="6.09252">
        <ele>188.80000305176</ele>
        <time>2015-06-03T11:51:48Z</time>
      </trkpt>
      <trkpt lat="43.4159" lon="6.09252">
        <ele>188.60000610352</ele>
        <time>2015-06-03T11:51:51Z</time>
      </trkpt>
      <trkpt lat="43.41589" lon="6.09253">
        <ele>189</ele>
        <time>2015-06-03T11:51:54Z</time>
      </trkpt>
      <trkpt lat="43.41587" lon="6.09255">
        <ele>189.39999389648</ele>
        <time>2015-06-03T11:51:58Z</time>
      </trkpt>
      <trkpt lat="43.41583" lon="6.09258">
        <ele>190</ele>
        <time>2015-06-03T11:52:04Z</time>
      </trkpt>
      <trkpt lat="43.41582" lon="6.09258">
        <ele>190.19999694824</ele>
        <time>2015-06-03T11:52:08Z</time>
      </trkpt>
      <trkpt lat="43.41582" lon="6.09257">
        <ele>190.19999694824</ele>
        <time>2015-06-03T11:52:12Z</time>
      </trkpt>
      <trkpt lat="43.41582" lon="6.09257">
        <ele>190.19999694824</ele>
        <time>2015-06-03T11:52:18Z</time>
      </trkpt>
      <trkpt lat="43.41582" lon="6.09257">
        <ele>190.19999694824</ele>
        <time>2015-06-03T11:52:27Z</time>
      </trkpt>
      <trkpt lat="43.41581" lon="6.0926">
        <ele>190.19999694824</ele>
        <time>2015-06-03T11:52:35Z</time>
      </trkpt>
      <trkpt lat="43.41582" lon="6.09262">
        <ele>190.19999694824</ele>
        <time>2015-06-03T11:52:36Z</time>
      </trkpt>
      <trkpt lat="43.41579" lon="6.09269">
        <ele>190.39999389648</ele>
        <time>2015-06-03T11:52:40Z</time>
      </trkpt>
      <trkpt lat="43.41577" lon="6.09269">
        <ele>190.60000610352</ele>
        <time>2015-06-03T11:52:41Z</time>
      </trkpt>
      <trkpt lat="43.41573" lon="6.09269">
        <ele>191.39999389648</ele>
        <time>2015-06-03T11:52:44Z</time>
      </trkpt>
      <trkpt lat="43.41573" lon="6.09269">
        <ele>191.80000305176</ele>
        <time>2015-06-03T11:52:45Z</time>
      </trkpt>
      <trkpt lat="43.41573" lon="6.0927">
        <ele>192.19999694824</ele>
        <time>2015-06-03T11:52:47Z</time>
      </trkpt>
      <trkpt lat="43.41572" lon="6.09268">
        <ele>192.39999389648</ele>
        <time>2015-06-03T11:52:49Z</time>
      </trkpt>
      <trkpt lat="43.4157" lon="6.09267">
        <ele>192.80000305176</ele>
        <time>2015-06-03T11:52:52Z</time>
      </trkpt>
      <trkpt lat="43.4157" lon="6.09267">
        <ele>193</ele>
        <time>2015-06-03T11:52:53Z</time>
      </trkpt>
      <trkpt lat="43.4157" lon="6.09268">
        <ele>193</ele>
        <time>2015-06-03T11:52:57Z</time>
      </trkpt>
      <trkpt lat="43.41569" lon="6.09269">
        <ele>193.19999694824</ele>
        <time>2015-06-03T11:53:03Z</time>
      </trkpt>
      <trkpt lat="43.41566" lon="6.09269">
        <ele>194</ele>
        <time>2015-06-03T11:53:07Z</time>
      </trkpt>
      <trkpt lat="43.41566" lon="6.09271">
        <ele>194.19999694824</ele>
        <time>2015-06-03T11:53:10Z</time>
      </trkpt>
      <trkpt lat="43.41566" lon="6.09274">
        <ele>194.80000305176</ele>
        <time>2015-06-03T11:53:18Z</time>
      </trkpt>
      <trkpt lat="43.41565" lon="6.09277">
        <ele>195</ele>
        <time>2015-06-03T11:53:23Z</time>
      </trkpt>
      <trkpt lat="43.41565" lon="6.09277">
        <ele>195</ele>
        <time>2015-06-03T11:53:27Z</time>
      </trkpt>
      <trkpt lat="43.41563" lon="6.09283">
        <ele>194.80000305176</ele>
        <time>2015-06-03T11:53:36Z</time>
      </trkpt>
      <trkpt lat="43.4156" lon="6.09289">
        <ele>196.19999694824</ele>
        <time>2015-06-03T11:53:40Z</time>
      </trkpt>
      <trkpt lat="43.41558" lon="6.09292">
        <ele>196.60000610352</ele>
        <time>2015-06-03T11:53:42Z</time>
      </trkpt>
      <trkpt lat="43.41558" lon="6.09293">
        <ele>197.39999389648</ele>
        <time>2015-06-03T11:53:44Z</time>
      </trkpt>
      <trkpt lat="43.41557" lon="6.09295">
        <ele>197.80000305176</ele>
        <time>2015-06-03T11:53:47Z</time>
      </trkpt>
      <trkpt lat="43.41555" lon="6.093">
        <ele>198.39999389648</ele>
        <time>2015-06-03T11:53:57Z</time>
      </trkpt>
      <trkpt lat="43.41555" lon="6.093">
        <ele>198.80000305176</ele>
        <time>2015-06-03T11:54:00Z</time>
      </trkpt>
      <trkpt lat="43.41552" lon="6.09303">
        <ele>199</ele>
        <time>2015-06-03T11:54:06Z</time>
      </trkpt>
      <trkpt lat="43.4155" lon="6.09308">
        <ele>199.60000610352</ele>
        <time>2015-06-03T11:54:14Z</time>
      </trkpt>
      <trkpt lat="43.4155" lon="6.0931">
        <ele>199.39999389648</ele>
        <time>2015-06-03T11:54:19Z</time>
      </trkpt>
      <trkpt lat="43.41549" lon="6.09313">
        <ele>199.19999694824</ele>
        <time>2015-06-03T11:54:23Z</time>
      </trkpt>
      <trkpt lat="43.41544" lon="6.09327">
        <ele>198.39999389648</ele>
        <time>2015-06-03T11:54:30Z</time>
      </trkpt>
      <trkpt lat="43.41541" lon="6.09334">
        <ele>198.39999389648</ele>
        <time>2015-06-03T11:54:34Z</time>
      </trkpt>
      <trkpt lat="43.41538" lon="6.09343">
        <ele>197.80000305176</ele>
        <time>2015-06-03T11:54:39Z</time>
      </trkpt>
      <trkpt lat="43.41538" lon="6.09347">
        <ele>197.19999694824</ele>
        <time>2015-06-03T11:54:41Z</time>
      </trkpt>
      <trkpt lat="43.41537" lon="6.0935">
        <ele>196.39999389648</ele>
        <time>2015-06-03T11:54:43Z</time>
      </trkpt>
      <trkpt lat="43.41537" lon="6.09355">
        <ele>196.19999694824</ele>
        <time>2015-06-03T11:54:45Z</time>
      </trkpt>
      <trkpt lat="43.41537" lon="6.09368">
        <ele>195.19999694824</ele>
        <time>2015-06-03T11:54:50Z</time>
      </trkpt>
      <trkpt lat="43.41536" lon="6.09372">
        <ele>195</ele>
        <time>2015-06-03T11:54:51Z</time>
      </trkpt>
      <trkpt lat="43.41532" lon="6.09388">
        <ele>194.60000610352</ele>
        <time>2015-06-03T11:54:56Z</time>
      </trkpt>
      <trkpt lat="43.41532" lon="6.09393">
        <ele>194.19999694824</ele>
        <time>2015-06-03T11:54:57Z</time>
      </trkpt>
      <trkpt lat="43.41531" lon="6.09406">
        <ele>193.39999389648</ele>
        <time>2015-06-03T11:55:00Z</time>
      </trkpt>
      <trkpt lat="43.4153" lon="6.09409">
        <ele>193.39999389648</ele>
        <time>2015-06-03T11:55:01Z</time>
      </trkpt>
      <trkpt lat="43.41529" lon="6.09424">
        <ele>193.60000610352</ele>
        <time>2015-06-03T11:55:06Z</time>
      </trkpt>
      <trkpt lat="43.41526" lon="6.0943">
        <ele>193.39999389648</ele>
        <time>2015-06-03T11:55:08Z</time>
      </trkpt>
      <trkpt lat="43.41527" lon="6.09432">
        <ele>194</ele>
        <time>2015-06-03T11:55:10Z</time>
      </trkpt>
      <trkpt lat="43.41529" lon="6.09442">
        <ele>195.19999694824</ele>
        <time>2015-06-03T11:55:19Z</time>
      </trkpt>
      <trkpt lat="43.41529" lon="6.09443">
        <ele>195.39999389648</ele>
        <time>2015-06-03T11:55:20Z</time>
      </trkpt>
      <trkpt lat="43.41529" lon="6.09447">
        <ele>195.60000610352</ele>
        <time>2015-06-03T11:55:27Z</time>
      </trkpt>
      <trkpt lat="43.41529" lon="6.09447">
        <ele>195.60000610352</ele>
        <time>2015-06-03T11:55:28Z</time>
      </trkpt>
      <trkpt lat="43.41526" lon="6.09456">
        <ele>195.19999694824</ele>
        <time>2015-06-03T11:55:35Z</time>
      </trkpt>
      <trkpt lat="43.41527" lon="6.0946">
        <ele>194.60000610352</ele>
        <time>2015-06-03T11:55:38Z</time>
      </trkpt>
      <trkpt lat="43.41529" lon="6.09463">
        <ele>194.39999389648</ele>
        <time>2015-06-03T11:55:39Z</time>
      </trkpt>
      <trkpt lat="43.4153" lon="6.09469">
        <ele>192.80000305176</ele>
        <time>2015-06-03T11:55:41Z</time>
      </trkpt>
      <trkpt lat="43.41529" lon="6.09471">
        <ele>192.39999389648</ele>
        <time>2015-06-03T11:55:42Z</time>
      </trkpt>
      <trkpt lat="43.41524" lon="6.09477">
        <ele>192.39999389648</ele>
        <time>2015-06-03T11:55:47Z</time>
      </trkpt>
      <trkpt lat="43.41523" lon="6.0948">
        <ele>192.60000610352</ele>
        <time>2015-06-03T11:55:48Z</time>
      </trkpt>
      <trkpt lat="43.4152" lon="6.09484">
        <ele>193.60000610352</ele>
        <time>2015-06-03T11:55:52Z</time>
      </trkpt>
      <trkpt lat="43.4152" lon="6.09486">
        <ele>194</ele>
        <time>2015-06-03T11:55:55Z</time>
      </trkpt>
      <trkpt lat="43.41519" lon="6.09487">
        <ele>194.39999389648</ele>
        <time>2015-06-03T11:55:57Z</time>
      </trkpt>
      <trkpt lat="43.41519" lon="6.09488">
        <ele>194.39999389648</ele>
        <time>2015-06-03T11:55:58Z</time>
      </trkpt>
      <trkpt lat="43.41518" lon="6.0949">
        <ele>195</ele>
        <time>2015-06-03T11:56:02Z</time>
      </trkpt>
      <trkpt lat="43.41517" lon="6.09493">
        <ele>195.80000305176</ele>
        <time>2015-06-03T11:56:11Z</time>
      </trkpt>
      <trkpt lat="43.41516" lon="6.09495">
        <ele>195.80000305176</ele>
        <time>2015-06-03T11:56:13Z</time>
      </trkpt>
      <trkpt lat="43.41513" lon="6.09504">
        <ele>195.80000305176</ele>
        <time>2015-06-03T11:56:17Z</time>
      </trkpt>
      <trkpt lat="43.41512" lon="6.09506">
        <ele>195.80000305176</ele>
        <time>2015-06-03T11:56:18Z</time>
      </trkpt>
      <trkpt lat="43.41511" lon="6.09512">
        <ele>195.60000610352</ele>
        <time>2015-06-03T11:56:21Z</time>
      </trkpt>
      <trkpt lat="43.4151" lon="6.09516">
        <ele>195.39999389648</ele>
        <time>2015-06-03T11:56:24Z</time>
      </trkpt>
      <trkpt lat="43.41511" lon="6.09519">
        <ele>195.39999389648</ele>
        <time>2015-06-03T11:56:30Z</time>
      </trkpt>
      <trkpt lat="43.41512" lon="6.0952">
        <ele>195.39999389648</ele>
        <time>2015-06-03T11:56:35Z</time>
      </trkpt>
      <trkpt lat="43.41512" lon="6.0952">
        <ele>195.19999694824</ele>
        <time>2015-06-03T11:56:37Z</time>
      </trkpt>
      <trkpt lat="43.41512" lon="6.0952">
        <ele>195.19999694824</ele>
        <time>2015-06-03T11:56:40Z</time>
      </trkpt>
      <trkpt lat="43.41512" lon="6.0952">
        <ele>195.19999694824</ele>
        <time>2015-06-03T11:56:44Z</time>
      </trkpt>
      <trkpt lat="43.41512" lon="6.09521">
        <ele>195.19999694824</ele>
        <time>2015-06-03T11:58:20Z</time>
      </trkpt>
      <trkpt lat="43.41512" lon="6.09521">
        <ele>195.39999389648</ele>
        <time>2015-06-03T11:58:33Z</time>
      </trkpt>
      <trkpt lat="43.41512" lon="6.09521">
        <ele>195.39999389648</ele>
        <time>2015-06-03T11:58:47Z</time>
      </trkpt>
      <trkpt lat="43.41512" lon="6.09521">
        <ele>195.60000610352</ele>
        <time>2015-06-03T12:01:49Z</time>
      </trkpt>
      <trkpt lat="43.41512" lon="6.09521">
        <ele>195.80000305176</ele>
        <time>2015-06-03T12:02:14Z</time>
      </trkpt>
      <trkpt lat="43.41511" lon="6.09521">
        <ele>196</ele>
        <time>2015-06-03T12:02:41Z</time>
      </trkpt>
      <trkpt lat="43.41511" lon="6.09521">
        <ele>195.80000305176</ele>
        <time>2015-06-03T12:03:04Z</time>
      </trkpt>
      <trkpt lat="43.41511" lon="6.09521">
        <ele>196</ele>
        <time>2015-06-03T12:03:53Z</time>
      </trkpt>
      <trkpt lat="43.41511" lon="6.09521">
        <ele>195.80000305176</ele>
        <time>2015-06-03T12:04:25Z</time>
      </trkpt>
      <trkpt lat="43.41511" lon="6.09521">
        <ele>195.39999389648</ele>
        <time>2015-06-03T12:04:46Z</time>
      </trkpt>
      <trkpt lat="43.41511" lon="6.09521">
        <ele>196</ele>
        <time>2015-06-03T12:05:54Z</time>
      </trkpt>
      <trkpt lat="43.41511" lon="6.09521">
        <ele>196</ele>
        <time>2015-06-03T12:06:35Z</time>
      </trkpt>
      <trkpt lat="43.41511" lon="6.09521">
        <ele>195.80000305176</ele>
        <time>2015-06-03T12:06:56Z</time>
      </trkpt>
      <trkpt lat="43.41511" lon="6.09521">
        <ele>196</ele>
        <time>2015-06-03T12:07:06Z</time>
      </trkpt>
      <trkpt lat="43.41511" lon="6.09521">
        <ele>195.60000610352</ele>
        <time>2015-06-03T12:07:34Z</time>
      </trkpt>
      <trkpt lat="43.4151" lon="6.0952">
        <ele>195.60000610352</ele>
        <time>2015-06-03T12:07:55Z</time>
      </trkpt>
      <trkpt lat="43.41505" lon="6.09527">
        <ele>195.39999389648</ele>
        <time>2015-06-03T12:08:03Z</time>
      </trkpt>
      <trkpt lat="43.41503" lon="6.0954">
        <ele>194.80000305176</ele>
        <time>2015-06-03T12:08:08Z</time>
      </trkpt>
      <trkpt lat="43.41497" lon="6.09542">
        <ele>195.19999694824</ele>
        <time>2015-06-03T12:08:12Z</time>
      </trkpt>
      <trkpt lat="43.41494" lon="6.09545">
        <ele>195</ele>
        <time>2015-06-03T12:08:14Z</time>
      </trkpt>
      <trkpt lat="43.41492" lon="6.09548">
        <ele>195.60000610352</ele>
        <time>2015-06-03T12:08:16Z</time>
      </trkpt>
      <trkpt lat="43.41491" lon="6.0955">
        <ele>196.19999694824</ele>
        <time>2015-06-03T12:08:17Z</time>
      </trkpt>
      <trkpt lat="43.41487" lon="6.09552">
        <ele>196.80000305176</ele>
        <time>2015-06-03T12:08:20Z</time>
      </trkpt>
      <trkpt lat="43.41486" lon="6.09554">
        <ele>196.80000305176</ele>
        <time>2015-06-03T12:08:21Z</time>
      </trkpt>
      <trkpt lat="43.41486" lon="6.09555">
        <ele>196.80000305176</ele>
        <time>2015-06-03T12:08:22Z</time>
      </trkpt>
      <trkpt lat="43.41483" lon="6.09561">
        <ele>197.19999694824</ele>
        <time>2015-06-03T12:08:25Z</time>
      </trkpt>
      <trkpt lat="43.41483" lon="6.09562">
        <ele>198.19999694824</ele>
        <time>2015-06-03T12:08:28Z</time>
      </trkpt>
      <trkpt lat="43.41482" lon="6.09564">
        <ele>198.60000610352</ele>
        <time>2015-06-03T12:08:31Z</time>
      </trkpt>
      <trkpt lat="43.4148" lon="6.0957">
        <ele>199.39999389648</ele>
        <time>2015-06-03T12:08:36Z</time>
      </trkpt>
      <trkpt lat="43.41479" lon="6.09571">
        <ele>199.60000610352</ele>
        <time>2015-06-03T12:08:37Z</time>
      </trkpt>
      <trkpt lat="43.41478" lon="6.09575">
        <ele>200</ele>
        <time>2015-06-03T12:08:44Z</time>
      </trkpt>
      <trkpt lat="43.41476" lon="6.09577">
        <ele>200.39999389648</ele>
        <time>2015-06-03T12:08:51Z</time>
      </trkpt>
      <trkpt lat="43.41474" lon="6.09579">
        <ele>200.60000610352</ele>
        <time>2015-06-03T12:08:53Z</time>
      </trkpt>
      <trkpt lat="43.41471" lon="6.09587">
        <ele>200.80000305176</ele>
        <time>2015-06-03T12:08:57Z</time>
      </trkpt>
      <trkpt lat="43.4147" lon="6.09589">
        <ele>200.80000305176</ele>
        <time>2015-06-03T12:08:58Z</time>
      </trkpt>
      <trkpt lat="43.41467" lon="6.09593">
        <ele>201</ele>
        <time>2015-06-03T12:09:01Z</time>
      </trkpt>
      <trkpt lat="43.41467" lon="6.09601">
        <ele>201</ele>
        <time>2015-06-03T12:09:03Z</time>
      </trkpt>
      <trkpt lat="43.41467" lon="6.09611">
        <ele>200.19999694824</ele>
        <time>2015-06-03T12:09:05Z</time>
      </trkpt>
      <trkpt lat="43.41468" lon="6.09616">
        <ele>199.60000610352</ele>
        <time>2015-06-03T12:09:06Z</time>
      </trkpt>
      <trkpt lat="43.41468" lon="6.09625">
        <ele>198.39999389648</ele>
        <time>2015-06-03T12:09:08Z</time>
      </trkpt>
      <trkpt lat="43.41466" lon="6.09631">
        <ele>197.60000610352</ele>
        <time>2015-06-03T12:09:10Z</time>
      </trkpt>
      <trkpt lat="43.41465" lon="6.09633">
        <ele>197.19999694824</ele>
        <time>2015-06-03T12:09:11Z</time>
      </trkpt>
      <trkpt lat="43.41466" lon="6.09636">
        <ele>197</ele>
        <time>2015-06-03T12:09:12Z</time>
      </trkpt>
      <trkpt lat="43.41467" lon="6.09641">
        <ele>196.39999389648</ele>
        <time>2015-06-03T12:09:13Z</time>
      </trkpt>
      <trkpt lat="43.41468" lon="6.09645">
        <ele>195.39999389648</ele>
        <time>2015-06-03T12:09:14Z</time>
      </trkpt>
      <trkpt lat="43.4147" lon="6.09651">
        <ele>195</ele>
        <time>2015-06-03T12:09:16Z</time>
      </trkpt>
      <trkpt lat="43.41471" lon="6.09653">
        <ele>194.80000305176</ele>
        <time>2015-06-03T12:09:17Z</time>
      </trkpt>
      <trkpt lat="43.41471" lon="6.09661">
        <ele>194.19999694824</ele>
        <time>2015-06-03T12:09:19Z</time>
      </trkpt>
      <trkpt lat="43.41467" lon="6.09665">
        <ele>194</ele>
        <time>2015-06-03T12:09:22Z</time>
      </trkpt>
      <trkpt lat="43.4146" lon="6.09678">
        <ele>193.60000610352</ele>
        <time>2015-06-03T12:09:27Z</time>
      </trkpt>
      <trkpt lat="43.41459" lon="6.09681">
        <ele>193.19999694824</ele>
        <time>2015-06-03T12:09:28Z</time>
      </trkpt>
      <trkpt lat="43.41455" lon="6.09692">
        <ele>193.60000610352</ele>
        <time>2015-06-03T12:09:31Z</time>
      </trkpt>
      <trkpt lat="43.41455" lon="6.09697">
        <ele>193.60000610352</ele>
        <time>2015-06-03T12:09:32Z</time>
      </trkpt>
      <trkpt lat="43.41452" lon="6.09717">
        <ele>194</ele>
        <time>2015-06-03T12:09:37Z</time>
      </trkpt>
      <trkpt lat="43.41452" lon="6.09721">
        <ele>194</ele>
        <time>2015-06-03T12:09:38Z</time>
      </trkpt>
      <trkpt lat="43.41451" lon="6.09728">
        <ele>194.39999389648</ele>
        <time>2015-06-03T12:09:40Z</time>
      </trkpt>
      <trkpt lat="43.41449" lon="6.09733">
        <ele>194.80000305176</ele>
        <time>2015-06-03T12:09:42Z</time>
      </trkpt>
      <trkpt lat="43.41446" lon="6.09752">
        <ele>194.80000305176</ele>
        <time>2015-06-03T12:09:48Z</time>
      </trkpt>
      <trkpt lat="43.41437" lon="6.09766">
        <ele>196.19999694824</ele>
        <time>2015-06-03T12:09:54Z</time>
      </trkpt>
      <trkpt lat="43.41435" lon="6.09769">
        <ele>196.19999694824</ele>
        <time>2015-06-03T12:09:55Z</time>
      </trkpt>
      <trkpt lat="43.41433" lon="6.09785">
        <ele>195.80000305176</ele>
        <time>2015-06-03T12:09:59Z</time>
      </trkpt>
      <trkpt lat="43.41436" lon="6.09815">
        <ele>196.39999389648</ele>
        <time>2015-06-03T12:10:06Z</time>
      </trkpt>
      <trkpt lat="43.41438" lon="6.09833">
        <ele>195.60000610352</ele>
        <time>2015-06-03T12:10:10Z</time>
      </trkpt>
      <trkpt lat="43.41439" lon="6.09839">
        <ele>194.60000610352</ele>
        <time>2015-06-03T12:10:11Z</time>
      </trkpt>
      <trkpt lat="43.41441" lon="6.09844">
        <ele>193.80000305176</ele>
        <time>2015-06-03T12:10:12Z</time>
      </trkpt>
      <trkpt lat="43.41441" lon="6.09864">
        <ele>193.19999694824</ele>
        <time>2015-06-03T12:10:16Z</time>
      </trkpt>
      <trkpt lat="43.41437" lon="6.09873">
        <ele>192.39999389648</ele>
        <time>2015-06-03T12:10:20Z</time>
      </trkpt>
      <trkpt lat="43.41434" lon="6.09878">
        <ele>193</ele>
        <time>2015-06-03T12:10:23Z</time>
      </trkpt>
      <trkpt lat="43.41431" lon="6.09886">
        <ele>194.19999694824</ele>
        <time>2015-06-03T12:10:26Z</time>
      </trkpt>
      <trkpt lat="43.41431" lon="6.09888">
        <ele>194.39999389648</ele>
        <time>2015-06-03T12:10:27Z</time>
      </trkpt>
      <trkpt lat="43.4143" lon="6.0989">
        <ele>194.39999389648</ele>
        <time>2015-06-03T12:10:28Z</time>
      </trkpt>
      <trkpt lat="43.4143" lon="6.09893">
        <ele>194.39999389648</ele>
        <time>2015-06-03T12:10:29Z</time>
      </trkpt>
      <trkpt lat="43.41431" lon="6.09901">
        <ele>194.39999389648</ele>
        <time>2015-06-03T12:10:31Z</time>
      </trkpt>
      <trkpt lat="43.41431" lon="6.09914">
        <ele>195.39999389648</ele>
        <time>2015-06-03T12:10:35Z</time>
      </trkpt>
      <trkpt lat="43.41431" lon="6.09922">
        <ele>195.39999389648</ele>
        <time>2015-06-03T12:10:37Z</time>
      </trkpt>
      <trkpt lat="43.41434" lon="6.09944">
        <ele>194.80000305176</ele>
        <time>2015-06-03T12:10:42Z</time>
      </trkpt>
      <trkpt lat="43.41439" lon="6.09961">
        <ele>194.80000305176</ele>
        <time>2015-06-03T12:10:46Z</time>
      </trkpt>
      <trkpt lat="43.41441" lon="6.09966">
        <ele>194.60000610352</ele>
        <time>2015-06-03T12:10:48Z</time>
      </trkpt>
      <trkpt lat="43.41446" lon="6.09982">
        <ele>195.39999389648</ele>
        <time>2015-06-03T12:10:53Z</time>
      </trkpt>
      <trkpt lat="43.41455" lon="6.10007">
        <ele>195</ele>
        <time>2015-06-03T12:10:59Z</time>
      </trkpt>
      <trkpt lat="43.4146" lon="6.10014">
        <ele>195</ele>
        <time>2015-06-03T12:11:01Z</time>
      </trkpt>
      <trkpt lat="43.41466" lon="6.10024">
        <ele>194.19999694824</ele>
        <time>2015-06-03T12:11:03Z</time>
      </trkpt>
      <trkpt lat="43.4147" lon="6.10041">
        <ele>194.39999389648</ele>
        <time>2015-06-03T12:11:07Z</time>
      </trkpt>
      <trkpt lat="43.41476" lon="6.10057">
        <ele>194.80000305176</ele>
        <time>2015-06-03T12:11:11Z</time>
      </trkpt>
      <trkpt lat="43.41477" lon="6.10061">
        <ele>195</ele>
        <time>2015-06-03T12:11:12Z</time>
      </trkpt>
      <trkpt lat="43.41481" lon="6.10072">
        <ele>195.60000610352</ele>
        <time>2015-06-03T12:11:16Z</time>
      </trkpt>
      <trkpt lat="43.41486" lon="6.10079">
        <ele>196</ele>
        <time>2015-06-03T12:11:18Z</time>
      </trkpt>
      <trkpt lat="43.4149" lon="6.10087">
        <ele>196.60000610352</ele>
        <time>2015-06-03T12:11:21Z</time>
      </trkpt>
      <trkpt lat="43.41499" lon="6.10104">
        <ele>196.80000305176</ele>
        <time>2015-06-03T12:11:26Z</time>
      </trkpt>
      <trkpt lat="43.41502" lon="6.10111">
        <ele>197.39999389648</ele>
        <time>2015-06-03T12:11:28Z</time>
      </trkpt>
      <trkpt lat="43.4151" lon="6.10138">
        <ele>197.19999694824</ele>
        <time>2015-06-03T12:11:35Z</time>
      </trkpt>
      <trkpt lat="43.41516" lon="6.1016">
        <ele>195.60000610352</ele>
        <time>2015-06-03T12:11:39Z</time>
      </trkpt>
      <trkpt lat="43.4152" lon="6.10165">
        <ele>195.19999694824</ele>
        <time>2015-06-03T12:11:40Z</time>
      </trkpt>
      <trkpt lat="43.41521" lon="6.10184">
        <ele>195</ele>
        <time>2015-06-03T12:11:43Z</time>
      </trkpt>
      <trkpt lat="43.41521" lon="6.10195">
        <ele>194.60000610352</ele>
        <time>2015-06-03T12:11:45Z</time>
      </trkpt>
      <trkpt lat="43.41521" lon="6.10209">
        <ele>195</ele>
        <time>2015-06-03T12:11:48Z</time>
      </trkpt>
      <trkpt lat="43.41523" lon="6.10234">
        <ele>195.60000610352</ele>
        <time>2015-06-03T12:11:54Z</time>
      </trkpt>
      <trkpt lat="43.41526" lon="6.10256">
        <ele>196.39999389648</ele>
        <time>2015-06-03T12:12:00Z</time>
      </trkpt>
      <trkpt lat="43.41526" lon="6.10263">
        <ele>196.80000305176</ele>
        <time>2015-06-03T12:12:02Z</time>
      </trkpt>
      <trkpt lat="43.41528" lon="6.1027">
        <ele>197.80000305176</ele>
        <time>2015-06-03T12:12:05Z</time>
      </trkpt>
      <trkpt lat="43.41532" lon="6.10279">
        <ele>198.80000305176</ele>
        <time>2015-06-03T12:12:09Z</time>
      </trkpt>
      <trkpt lat="43.41535" lon="6.10283">
        <ele>198.39999389648</ele>
        <time>2015-06-03T12:12:11Z</time>
      </trkpt>
      <trkpt lat="43.41549" lon="6.10297">
        <ele>199.80000305176</ele>
        <time>2015-06-03T12:12:18Z</time>
      </trkpt>
      <trkpt lat="43.4155" lon="6.10298">
        <ele>199.80000305176</ele>
        <time>2015-06-03T12:12:19Z</time>
      </trkpt>
      <trkpt lat="43.41558" lon="6.10311">
        <ele>201</ele>
        <time>2015-06-03T12:12:25Z</time>
      </trkpt>
      <trkpt lat="43.41571" lon="6.10328">
        <ele>201.39999389648</ele>
        <time>2015-06-03T12:12:32Z</time>
      </trkpt>
      <trkpt lat="43.41584" lon="6.10347">
        <ele>202.19999694824</ele>
        <time>2015-06-03T12:12:40Z</time>
      </trkpt>
      <trkpt lat="43.41592" lon="6.10363">
        <ele>202.19999694824</ele>
        <time>2015-06-03T12:12:46Z</time>
      </trkpt>
      <trkpt lat="43.41594" lon="6.10373">
        <ele>203.19999694824</ele>
        <time>2015-06-03T12:12:50Z</time>
      </trkpt>
      <trkpt lat="43.41595" lon="6.10376">
        <ele>203.60000610352</ele>
        <time>2015-06-03T12:12:52Z</time>
      </trkpt>
      <trkpt lat="43.41595" lon="6.1038">
        <ele>204</ele>
        <time>2015-06-03T12:12:58Z</time>
      </trkpt>
      <trkpt lat="43.41596" lon="6.1038">
        <ele>204.19999694824</ele>
        <time>2015-06-03T12:13:00Z</time>
      </trkpt>
      <trkpt lat="43.41597" lon="6.10385">
        <ele>204.39999389648</ele>
        <time>2015-06-03T12:13:06Z</time>
      </trkpt>
      <trkpt lat="43.41598" lon="6.10389">
        <ele>205</ele>
        <time>2015-06-03T12:13:13Z</time>
      </trkpt>
      <trkpt lat="43.41598" lon="6.10389">
        <ele>205</ele>
        <time>2015-06-03T12:13:16Z</time>
      </trkpt>
      <trkpt lat="43.41598" lon="6.10389">
        <ele>205.19999694824</ele>
        <time>2015-06-03T12:13:20Z</time>
      </trkpt>
      <trkpt lat="43.41597" lon="6.10391">
        <ele>205.19999694824</ele>
        <time>2015-06-03T12:13:31Z</time>
      </trkpt>
      <trkpt lat="43.41596" lon="6.10392">
        <ele>205.60000610352</ele>
        <time>2015-06-03T12:13:38Z</time>
      </trkpt>
      <trkpt lat="43.41596" lon="6.10392">
        <ele>205.60000610352</ele>
        <time>2015-06-03T12:13:40Z</time>
      </trkpt>
      <trkpt lat="43.41596" lon="6.10392">
        <ele>205.80000305176</ele>
        <time>2015-06-03T12:13:41Z</time>
      </trkpt>
      <trkpt lat="43.41596" lon="6.10395">
        <ele>205.60000610352</ele>
        <time>2015-06-03T12:13:45Z</time>
      </trkpt>
      <trkpt lat="43.41596" lon="6.10396">
        <ele>206</ele>
        <time>2015-06-03T12:13:47Z</time>
      </trkpt>
      <trkpt lat="43.41596" lon="6.10396">
        <ele>206</ele>
        <time>2015-06-03T12:13:51Z</time>
      </trkpt>
      <trkpt lat="43.41596" lon="6.10399">
        <ele>206.19999694824</ele>
        <time>2015-06-03T12:13:56Z</time>
      </trkpt>
      <trkpt lat="43.41597" lon="6.10412">
        <ele>206.80000305176</ele>
        <time>2015-06-03T12:14:01Z</time>
      </trkpt>
      <trkpt lat="43.41599" lon="6.10427">
        <ele>207.39999389648</ele>
        <time>2015-06-03T12:14:06Z</time>
      </trkpt>
      <trkpt lat="43.41595" lon="6.10443">
        <ele>208.19999694824</ele>
        <time>2015-06-03T12:14:12Z</time>
      </trkpt>
      <trkpt lat="43.41597" lon="6.10457">
        <ele>208.60000610352</ele>
        <time>2015-06-03T12:14:16Z</time>
      </trkpt>
      <trkpt lat="43.41598" lon="6.10461">
        <ele>208.80000305176</ele>
        <time>2015-06-03T12:14:17Z</time>
      </trkpt>
      <trkpt lat="43.416" lon="6.1048">
        <ele>208.80000305176</ele>
        <time>2015-06-03T12:14:22Z</time>
      </trkpt>
      <trkpt lat="43.41602" lon="6.10484">
        <ele>208.80000305176</ele>
        <time>2015-06-03T12:14:23Z</time>
      </trkpt>
      <trkpt lat="43.41607" lon="6.10503">
        <ele>209.19999694824</ele>
        <time>2015-06-03T12:14:28Z</time>
      </trkpt>
      <trkpt lat="43.41614" lon="6.1052">
        <ele>208</ele>
        <time>2015-06-03T12:14:34Z</time>
      </trkpt>
      <trkpt lat="43.41615" lon="6.10523">
        <ele>207.19999694824</ele>
        <time>2015-06-03T12:14:35Z</time>
      </trkpt>
      <trkpt lat="43.41622" lon="6.10538">
        <ele>205.80000305176</ele>
        <time>2015-06-03T12:14:39Z</time>
      </trkpt>
      <trkpt lat="43.41624" lon="6.10549">
        <ele>204.60000610352</ele>
        <time>2015-06-03T12:14:41Z</time>
      </trkpt>
      <trkpt lat="43.41627" lon="6.10561">
        <ele>203</ele>
        <time>2015-06-03T12:14:43Z</time>
      </trkpt>
      <trkpt lat="43.41629" lon="6.10565">
        <ele>201.80000305176</ele>
        <time>2015-06-03T12:14:44Z</time>
      </trkpt>
      <trkpt lat="43.4163" lon="6.1057">
        <ele>200.39999389648</ele>
        <time>2015-06-03T12:14:45Z</time>
      </trkpt>
      <trkpt lat="43.41635" lon="6.10596">
        <ele>199.39999389648</ele>
        <time>2015-06-03T12:14:50Z</time>
      </trkpt>
      <trkpt lat="43.41634" lon="6.10601">
        <ele>199</ele>
        <time>2015-06-03T12:14:51Z</time>
      </trkpt>
      <trkpt lat="43.41633" lon="6.10619">
        <ele>198.19999694824</ele>
        <time>2015-06-03T12:14:55Z</time>
      </trkpt>
      <trkpt lat="43.41633" lon="6.10623">
        <ele>198.39999389648</ele>
        <time>2015-06-03T12:14:56Z</time>
      </trkpt>
      <trkpt lat="43.4163" lon="6.10641">
        <ele>198.19999694824</ele>
        <time>2015-06-03T12:15:00Z</time>
      </trkpt>
      <trkpt lat="43.41629" lon="6.10646">
        <ele>197.60000610352</ele>
        <time>2015-06-03T12:15:01Z</time>
      </trkpt>
      <trkpt lat="43.41628" lon="6.10651">
        <ele>197.19999694824</ele>
        <time>2015-06-03T12:15:02Z</time>
      </trkpt>
      <trkpt lat="43.41628" lon="6.10665">
        <ele>196.60000610352</ele>
        <time>2015-06-03T12:15:06Z</time>
      </trkpt>
      <trkpt lat="43.41628" lon="6.10667">
        <ele>196.19999694824</ele>
        <time>2015-06-03T12:15:07Z</time>
      </trkpt>
      <trkpt lat="43.41628" lon="6.1067">
        <ele>195.60000610352</ele>
        <time>2015-06-03T12:15:08Z</time>
      </trkpt>
      <trkpt lat="43.41629" lon="6.10673">
        <ele>195.39999389648</ele>
        <time>2015-06-03T12:15:09Z</time>
      </trkpt>
      <trkpt lat="43.41629" lon="6.10682">
        <ele>194</ele>
        <time>2015-06-03T12:15:12Z</time>
      </trkpt>
      <trkpt lat="43.41629" lon="6.10686">
        <ele>193</ele>
        <time>2015-06-03T12:15:13Z</time>
      </trkpt>
      <trkpt lat="43.4163" lon="6.10691">
        <ele>191.19999694824</ele>
        <time>2015-06-03T12:15:15Z</time>
      </trkpt>
      <trkpt lat="43.41631" lon="6.10698">
        <ele>190</ele>
        <time>2015-06-03T12:15:17Z</time>
      </trkpt>
      <trkpt lat="43.41631" lon="6.10704">
        <ele>188.60000610352</ele>
        <time>2015-06-03T12:15:19Z</time>
      </trkpt>
      <trkpt lat="43.4163" lon="6.10716">
        <ele>187.19999694824</ele>
        <time>2015-06-03T12:15:22Z</time>
      </trkpt>
      <trkpt lat="43.41632" lon="6.10723">
        <ele>185.80000305176</ele>
        <time>2015-06-03T12:15:25Z</time>
      </trkpt>
      <trkpt lat="43.41633" lon="6.10728">
        <ele>185.39999389648</ele>
        <time>2015-06-03T12:15:26Z</time>
      </trkpt>
      <trkpt lat="43.41632" lon="6.10732">
        <ele>184.80000305176</ele>
        <time>2015-06-03T12:15:27Z</time>
      </trkpt>
      <trkpt lat="43.4163" lon="6.10738">
        <ele>185</ele>
        <time>2015-06-03T12:15:30Z</time>
      </trkpt>
      <trkpt lat="43.4163" lon="6.10738">
        <ele>185</ele>
        <time>2015-06-03T12:15:31Z</time>
      </trkpt>
      <trkpt lat="43.41628" lon="6.10742">
        <ele>185.19999694824</ele>
        <time>2015-06-03T12:15:39Z</time>
      </trkpt>
      <trkpt lat="43.41623" lon="6.10745">
        <ele>184.80000305176</ele>
        <time>2015-06-03T12:15:45Z</time>
      </trkpt>
      <trkpt lat="43.41614" lon="6.10757">
        <ele>185.19999694824</ele>
        <time>2015-06-03T12:15:51Z</time>
      </trkpt>
      <trkpt lat="43.41602" lon="6.10773">
        <ele>185.60000610352</ele>
        <time>2015-06-03T12:15:57Z</time>
      </trkpt>
      <trkpt lat="43.41591" lon="6.10788">
        <ele>185.80000305176</ele>
        <time>2015-06-03T12:16:03Z</time>
      </trkpt>
      <trkpt lat="43.41581" lon="6.10796">
        <ele>185.80000305176</ele>
        <time>2015-06-03T12:16:07Z</time>
      </trkpt>
      <trkpt lat="43.41577" lon="6.10802">
        <ele>186.80000305176</ele>
        <time>2015-06-03T12:16:10Z</time>
      </trkpt>
      <trkpt lat="43.41575" lon="6.10803">
        <ele>186.80000305176</ele>
        <time>2015-06-03T12:16:11Z</time>
      </trkpt>
      <trkpt lat="43.41573" lon="6.10803">
        <ele>187</ele>
        <time>2015-06-03T12:16:12Z</time>
      </trkpt>
      <trkpt lat="43.41563" lon="6.1081">
        <ele>187.39999389648</ele>
        <time>2015-06-03T12:16:16Z</time>
      </trkpt>
      <trkpt lat="43.41559" lon="6.10814">
        <ele>187.60000610352</ele>
        <time>2015-06-03T12:16:18Z</time>
      </trkpt>
      <trkpt lat="43.41557" lon="6.10816">
        <ele>188</ele>
        <time>2015-06-03T12:16:19Z</time>
      </trkpt>
      <trkpt lat="43.41545" lon="6.10833">
        <ele>189.19999694824</ele>
        <time>2015-06-03T12:16:26Z</time>
      </trkpt>
      <trkpt lat="43.41536" lon="6.10846">
        <ele>189.19999694824</ele>
        <time>2015-06-03T12:16:31Z</time>
      </trkpt>
      <trkpt lat="43.41529" lon="6.10858">
        <ele>188.80000305176</ele>
        <time>2015-06-03T12:16:36Z</time>
      </trkpt>
      <trkpt lat="43.41521" lon="6.10872">
        <ele>189.39999389648</ele>
        <time>2015-06-03T12:16:41Z</time>
      </trkpt>
      <trkpt lat="43.41515" lon="6.10883">
        <ele>189.19999694824</ele>
        <time>2015-06-03T12:16:46Z</time>
      </trkpt>
      <trkpt lat="43.41511" lon="6.109">
        <ele>189.60000610352</ele>
        <time>2015-06-03T12:16:51Z</time>
      </trkpt>
      <trkpt lat="43.41504" lon="6.10917">
        <ele>189.60000610352</ele>
        <time>2015-06-03T12:16:56Z</time>
      </trkpt>
      <trkpt lat="43.41496" lon="6.10938">
        <ele>189.39999389648</ele>
        <time>2015-06-03T12:17:03Z</time>
      </trkpt>
      <trkpt lat="43.41488" lon="6.10955">
        <ele>189.80000305176</ele>
        <time>2015-06-03T12:17:08Z</time>
      </trkpt>
      <trkpt lat="43.41484" lon="6.10966">
        <ele>190</ele>
        <time>2015-06-03T12:17:12Z</time>
      </trkpt>
      <trkpt lat="43.41484" lon="6.10967">
        <ele>190.19999694824</ele>
        <time>2015-06-03T12:17:13Z</time>
      </trkpt>
      <trkpt lat="43.41489" lon="6.10981">
        <ele>190</ele>
        <time>2015-06-03T12:17:17Z</time>
      </trkpt>
      <trkpt lat="43.41489" lon="6.10984">
        <ele>190</ele>
        <time>2015-06-03T12:17:19Z</time>
      </trkpt>
      <trkpt lat="43.41491" lon="6.1099">
        <ele>190</ele>
        <time>2015-06-03T12:17:26Z</time>
      </trkpt>
      <trkpt lat="43.41491" lon="6.10991">
        <ele>190</ele>
        <time>2015-06-03T12:17:31Z</time>
      </trkpt>
      <trkpt lat="43.4149" lon="6.10992">
        <ele>190.19999694824</ele>
        <time>2015-06-03T12:17:40Z</time>
      </trkpt>
      <trkpt lat="43.41488" lon="6.10996">
        <ele>190</ele>
        <time>2015-06-03T12:17:42Z</time>
      </trkpt>
      <trkpt lat="43.41486" lon="6.11006">
        <ele>190.19999694824</ele>
        <time>2015-06-03T12:17:46Z</time>
      </trkpt>
      <trkpt lat="43.41484" lon="6.1101">
        <ele>190.19999694824</ele>
        <time>2015-06-03T12:17:47Z</time>
      </trkpt>
      <trkpt lat="43.4148" lon="6.11023">
        <ele>189.60000610352</ele>
        <time>2015-06-03T12:17:51Z</time>
      </trkpt>
      <trkpt lat="43.41473" lon="6.11037">
        <ele>189.19999694824</ele>
        <time>2015-06-03T12:17:56Z</time>
      </trkpt>
      <trkpt lat="43.41465" lon="6.11043">
        <ele>188.80000305176</ele>
        <time>2015-06-03T12:18:01Z</time>
      </trkpt>
      <trkpt lat="43.41457" lon="6.11048">
        <ele>189.19999694824</ele>
        <time>2015-06-03T12:18:06Z</time>
      </trkpt>
      <trkpt lat="43.41455" lon="6.11049">
        <ele>189.39999389648</ele>
        <time>2015-06-03T12:18:07Z</time>
      </trkpt>
      <trkpt lat="43.41444" lon="6.1105">
        <ele>189.60000610352</ele>
        <time>2015-06-03T12:18:12Z</time>
      </trkpt>
      <trkpt lat="43.41442" lon="6.11053">
        <ele>189.19999694824</ele>
        <time>2015-06-03T12:18:15Z</time>
      </trkpt>
      <trkpt lat="43.41442" lon="6.11053">
        <ele>189.19999694824</ele>
        <time>2015-06-03T12:18:16Z</time>
      </trkpt>
      <trkpt lat="43.41441" lon="6.11054">
        <ele>189.39999389648</ele>
        <time>2015-06-03T12:18:20Z</time>
      </trkpt>
      <trkpt lat="43.4144" lon="6.11053">
        <ele>189.39999389648</ele>
        <time>2015-06-03T12:18:23Z</time>
      </trkpt>
      <trkpt lat="43.41435" lon="6.11057">
        <ele>189</ele>
        <time>2015-06-03T12:18:32Z</time>
      </trkpt>
      <trkpt lat="43.41435" lon="6.1106">
        <ele>188.80000305176</ele>
        <time>2015-06-03T12:18:33Z</time>
      </trkpt>
      <trkpt lat="43.41428" lon="6.1106">
        <ele>189.39999389648</ele>
        <time>2015-06-03T12:18:37Z</time>
      </trkpt>
      <trkpt lat="43.41424" lon="6.11061">
        <ele>189.39999389648</ele>
        <time>2015-06-03T12:18:39Z</time>
      </trkpt>
      <trkpt lat="43.41423" lon="6.11066">
        <ele>189.19999694824</ele>
        <time>2015-06-03T12:18:44Z</time>
      </trkpt>
      <trkpt lat="43.41422" lon="6.11069">
        <ele>189.39999389648</ele>
        <time>2015-06-03T12:18:56Z</time>
      </trkpt>
      <trkpt lat="43.41421" lon="6.11068">
        <ele>189.19999694824</ele>
        <time>2015-06-03T12:19:01Z</time>
      </trkpt>
      <trkpt lat="43.4142" lon="6.11067">
        <ele>189.60000610352</ele>
        <time>2015-06-03T12:19:03Z</time>
      </trkpt>
      <trkpt lat="43.4142" lon="6.11069">
        <ele>189.80000305176</ele>
        <time>2015-06-03T12:19:10Z</time>
      </trkpt>
      <trkpt lat="43.41422" lon="6.11071">
        <ele>189.60000610352</ele>
        <time>2015-06-03T12:19:16Z</time>
      </trkpt>
      <trkpt lat="43.41422" lon="6.11071">
        <ele>189.80000305176</ele>
        <time>2015-06-03T12:19:25Z</time>
      </trkpt>
      <trkpt lat="43.41422" lon="6.11072">
        <ele>188.80000305176</ele>
        <time>2015-06-03T12:19:34Z</time>
      </trkpt>
      <trkpt lat="43.41424" lon="6.11074">
        <ele>189</ele>
        <time>2015-06-03T12:19:48Z</time>
      </trkpt>
      <trkpt lat="43.41424" lon="6.11074">
        <ele>188.80000305176</ele>
        <time>2015-06-03T12:19:49Z</time>
      </trkpt>
      <trkpt lat="43.41425" lon="6.11075">
        <ele>189</ele>
        <time>2015-06-03T12:19:57Z</time>
      </trkpt>
      <trkpt lat="43.41425" lon="6.11075">
        <ele>188.80000305176</ele>
        <time>2015-06-03T12:20:01Z</time>
      </trkpt>
      <trkpt lat="43.41425" lon="6.11075">
        <ele>188.60000610352</ele>
        <time>2015-06-03T12:20:05Z</time>
      </trkpt>
      <trkpt lat="43.41425" lon="6.11076">
        <ele>188.80000305176</ele>
        <time>2015-06-03T12:20:07Z</time>
      </trkpt>
      <trkpt lat="43.41426" lon="6.11076">
        <ele>188.60000610352</ele>
        <time>2015-06-03T12:20:23Z</time>
      </trkpt>
      <trkpt lat="43.41426" lon="6.11076">
        <ele>189.19999694824</ele>
        <time>2015-06-03T12:20:38Z</time>
      </trkpt>
      <trkpt lat="43.41426" lon="6.11077">
        <ele>188.80000305176</ele>
        <time>2015-06-03T12:21:05Z</time>
      </trkpt>
      <trkpt lat="43.41427" lon="6.11077">
        <ele>189</ele>
        <time>2015-06-03T12:21:10Z</time>
      </trkpt>
      <trkpt lat="43.41428" lon="6.11078">
        <ele>188.80000305176</ele>
        <time>2015-06-03T12:21:24Z</time>
      </trkpt>
      <trkpt lat="43.41429" lon="6.11079">
        <ele>189.60000610352</ele>
        <time>2015-06-03T12:21:44Z</time>
      </trkpt>
      <trkpt lat="43.4143" lon="6.11079">
        <ele>189</ele>
        <time>2015-06-03T12:21:58Z</time>
      </trkpt>
      <trkpt lat="43.4143" lon="6.1108">
        <ele>188.60000610352</ele>
        <time>2015-06-03T12:22:09Z</time>
      </trkpt>
      <trkpt lat="43.4143" lon="6.1108">
        <ele>188.80000305176</ele>
        <time>2015-06-03T12:22:19Z</time>
      </trkpt>
      <trkpt lat="43.4143" lon="6.1108">
        <ele>188.39999389648</ele>
        <time>2015-06-03T12:22:26Z</time>
      </trkpt>
      <trkpt lat="43.4143" lon="6.1108">
        <ele>187.39999389648</ele>
        <time>2015-06-03T12:22:27Z</time>
      </trkpt>
      <trkpt lat="43.4143" lon="6.1108">
        <ele>188.39999389648</ele>
        <time>2015-06-03T12:22:29Z</time>
      </trkpt>
      <trkpt lat="43.4143" lon="6.1108">
        <ele>187.39999389648</ele>
        <time>2015-06-03T12:22:33Z</time>
      </trkpt>
      <trkpt lat="43.4143" lon="6.1108">
        <ele>191.19999694824</ele>
        <time>2015-06-03T12:22:34Z</time>
      </trkpt>
      <trkpt lat="43.4143" lon="6.1108">
        <ele>190.19999694824</ele>
        <time>2015-06-03T12:22:36Z</time>
      </trkpt>
      <trkpt lat="43.4143" lon="6.1108">
        <ele>189.60000610352</ele>
        <time>2015-06-03T12:22:37Z</time>
      </trkpt>
      <trkpt lat="43.4143" lon="6.1108">
        <ele>188.60000610352</ele>
        <time>2015-06-03T12:22:44Z</time>
      </trkpt>
      <trkpt lat="43.4143" lon="6.11081">
        <ele>189</ele>
        <time>2015-06-03T12:22:54Z</time>
      </trkpt>
      <trkpt lat="43.4143" lon="6.11081">
        <ele>188.80000305176</ele>
        <time>2015-06-03T12:23:02Z</time>
      </trkpt>
      <trkpt lat="43.4143" lon="6.11081">
        <ele>188.60000610352</ele>
        <time>2015-06-03T12:23:03Z</time>
      </trkpt>
      <trkpt lat="43.4143" lon="6.11081">
        <ele>189</ele>
        <time>2015-06-03T12:23:14Z</time>
      </trkpt>
      <trkpt lat="43.4143" lon="6.11081">
        <ele>189</ele>
        <time>2015-06-03T12:23:21Z</time>
      </trkpt>
      <trkpt lat="43.41431" lon="6.11082">
        <ele>189</ele>
        <time>2015-06-03T12:23:43Z</time>
      </trkpt>
      <trkpt lat="43.41431" lon="6.11082">
        <ele>188.60000610352</ele>
        <time>2015-06-03T12:23:53Z</time>
      </trkpt>
      <trkpt lat="43.41431" lon="6.11082">
        <ele>188.60000610352</ele>
        <time>2015-06-03T12:24:11Z</time>
      </trkpt>
      <trkpt lat="43.41431" lon="6.11082">
        <ele>189</ele>
        <time>2015-06-03T12:24:20Z</time>
      </trkpt>
      <trkpt lat="43.41433" lon="6.11082">
        <ele>188.80000305176</ele>
        <time>2015-06-03T12:24:29Z</time>
      </trkpt>
      <trkpt lat="43.41433" lon="6.11082">
        <ele>188.39999389648</ele>
        <time>2015-06-03T12:24:51Z</time>
      </trkpt>
      <trkpt lat="43.41433" lon="6.11082">
        <ele>188.80000305176</ele>
        <time>2015-06-03T12:24:58Z</time>
      </trkpt>
      <trkpt lat="43.41433" lon="6.11081">
        <ele>188.80000305176</ele>
        <time>2015-06-03T12:25:02Z</time>
      </trkpt>
      <trkpt lat="43.41433" lon="6.11081">
        <ele>188.80000305176</ele>
        <time>2015-06-03T12:25:06Z</time>
      </trkpt>
      <trkpt lat="43.41433" lon="6.11081">
        <ele>188.60000610352</ele>
        <time>2015-06-03T12:25:17Z</time>
      </trkpt>
      <trkpt lat="43.41433" lon="6.11081">
        <ele>188.80000305176</ele>
        <time>2015-06-03T12:25:19Z</time>
      </trkpt>
      <trkpt lat="43.41433" lon="6.11082">
        <ele>188.80000305176</ele>
        <time>2015-06-03T12:25:22Z</time>
      </trkpt>
      <trkpt lat="43.41433" lon="6.11082">
        <ele>188.80000305176</ele>
        <time>2015-06-03T12:25:26Z</time>
      </trkpt>
      <trkpt lat="43.41433" lon="6.11082">
        <ele>188.80000305176</ele>
        <time>2015-06-03T12:25:32Z</time>
      </trkpt>
      <trkpt lat="43.41433" lon="6.11081">
        <ele>188.60000610352</ele>
        <time>2015-06-03T12:25:40Z</time>
      </trkpt>
      <trkpt lat="43.41433" lon="6.11081">
        <ele>188.60000610352</ele>
        <time>2015-06-03T12:25:54Z</time>
      </trkpt>
      <trkpt lat="43.41434" lon="6.11081">
        <ele>188.39999389648</ele>
        <time>2015-06-03T12:25:56Z</time>
      </trkpt>
      <trkpt lat="43.41434" lon="6.11081">
        <ele>188.60000610352</ele>
        <time>2015-06-03T12:26:04Z</time>
      </trkpt>
      <trkpt lat="43.41434" lon="6.11081">
        <ele>188.60000610352</ele>
        <time>2015-06-03T12:26:16Z</time>
      </trkpt>
      <trkpt lat="43.41434" lon="6.11081">
        <ele>188.39999389648</ele>
        <time>2015-06-03T12:26:29Z</time>
      </trkpt>
      <trkpt lat="43.41434" lon="6.11081">
        <ele>188.39999389648</ele>
        <time>2015-06-03T12:26:40Z</time>
      </trkpt>
      <trkpt lat="43.41435" lon="6.11081">
        <ele>188.39999389648</ele>
        <time>2015-06-03T12:26:50Z</time>
      </trkpt>
      <trkpt lat="43.41435" lon="6.11082">
        <ele>188.60000610352</ele>
        <time>2015-06-03T12:27:05Z</time>
      </trkpt>
      <trkpt lat="43.41435" lon="6.11082">
        <ele>188.60000610352</ele>
        <time>2015-06-03T12:27:09Z</time>
      </trkpt>
      <trkpt lat="43.41434" lon="6.11081">
        <ele>188.39999389648</ele>
        <time>2015-06-03T12:27:20Z</time>
      </trkpt>
      <trkpt lat="43.41434" lon="6.11081">
        <ele>188.39999389648</ele>
        <time>2015-06-03T12:27:27Z</time>
      </trkpt>
      <trkpt lat="43.41436" lon="6.11082">
        <ele>187.80000305176</ele>
        <time>2015-06-03T12:27:37Z</time>
      </trkpt>
      <trkpt lat="43.41436" lon="6.11082">
        <ele>188.19999694824</ele>
        <time>2015-06-03T12:27:41Z</time>
      </trkpt>
      <trkpt lat="43.41437" lon="6.11083">
        <ele>188</ele>
        <time>2015-06-03T12:27:47Z</time>
      </trkpt>
      <trkpt lat="43.41437" lon="6.11083">
        <ele>188.19999694824</ele>
        <time>2015-06-03T12:27:57Z</time>
      </trkpt>
      <trkpt lat="43.41437" lon="6.11083">
        <ele>188.39999389648</ele>
        <time>2015-06-03T12:28:00Z</time>
      </trkpt>
      <trkpt lat="43.41437" lon="6.11083">
        <ele>188.19999694824</ele>
        <time>2015-06-03T12:28:05Z</time>
      </trkpt>
      <trkpt lat="43.41438" lon="6.11083">
        <ele>188.19999694824</ele>
        <time>2015-06-03T12:28:11Z</time>
      </trkpt>
      <trkpt lat="43.41438" lon="6.11083">
        <ele>188.39999389648</ele>
        <time>2015-06-03T12:28:22Z</time>
      </trkpt>
      <trkpt lat="43.41438" lon="6.11084">
        <ele>188.39999389648</ele>
        <time>2015-06-03T12:28:31Z</time>
      </trkpt>
      <trkpt lat="43.41438" lon="6.11083">
        <ele>188.60000610352</ele>
        <time>2015-06-03T12:28:39Z</time>
      </trkpt>
      <trkpt lat="43.41438" lon="6.11083">
        <ele>188.80000305176</ele>
        <time>2015-06-03T12:28:49Z</time>
      </trkpt>
      <trkpt lat="43.41438" lon="6.11083">
        <ele>188.60000610352</ele>
        <time>2015-06-03T12:29:07Z</time>
      </trkpt>
      <trkpt lat="43.41439" lon="6.11083">
        <ele>188.60000610352</ele>
        <time>2015-06-03T12:29:16Z</time>
      </trkpt>
      <trkpt lat="43.41439" lon="6.11083">
        <ele>188.60000610352</ele>
        <time>2015-06-03T12:29:36Z</time>
      </trkpt>
      <trkpt lat="43.41439" lon="6.11083">
        <ele>188.60000610352</ele>
        <time>2015-06-03T12:29:48Z</time>
      </trkpt>
      <trkpt lat="43.41439" lon="6.11083">
        <ele>188.60000610352</ele>
        <time>2015-06-03T12:29:49Z</time>
      </trkpt>
      <trkpt lat="43.41437" lon="6.11084">
        <ele>189.19999694824</ele>
        <time>2015-06-03T12:29:56Z</time>
      </trkpt>
      <trkpt lat="43.41435" lon="6.11083">
        <ele>189</ele>
        <time>2015-06-03T12:30:00Z</time>
      </trkpt>
      <trkpt lat="43.41428" lon="6.11081">
        <ele>188.80000305176</ele>
        <time>2015-06-03T12:30:03Z</time>
      </trkpt>
      <trkpt lat="43.4142" lon="6.11085">
        <ele>188.80000305176</ele>
        <time>2015-06-03T12:30:06Z</time>
      </trkpt>
      <trkpt lat="43.41413" lon="6.11087">
        <ele>188.19999694824</ele>
        <time>2015-06-03T12:30:08Z</time>
      </trkpt>
      <trkpt lat="43.41402" lon="6.11088">
        <ele>188.80000305176</ele>
        <time>2015-06-03T12:30:11Z</time>
      </trkpt>
      <trkpt lat="43.41399" lon="6.11088">
        <ele>189.19999694824</ele>
        <time>2015-06-03T12:30:12Z</time>
      </trkpt>
      <trkpt lat="43.41388" lon="6.1109">
        <ele>190.19999694824</ele>
        <time>2015-06-03T12:30:15Z</time>
      </trkpt>
      <trkpt lat="43.41375" lon="6.11094">
        <ele>189.80000305176</ele>
        <time>2015-06-03T12:30:19Z</time>
      </trkpt>
      <trkpt lat="43.41362" lon="6.11096">
        <ele>189.60000610352</ele>
        <time>2015-06-03T12:30:23Z</time>
      </trkpt>
      <trkpt lat="43.41351" lon="6.11098">
        <ele>190.19999694824</ele>
        <time>2015-06-03T12:30:26Z</time>
      </trkpt>
      <trkpt lat="43.41347" lon="6.11098">
        <ele>190.19999694824</ele>
        <time>2015-06-03T12:30:27Z</time>
      </trkpt>
      <trkpt lat="43.41323" lon="6.11101">
        <ele>190.19999694824</ele>
        <time>2015-06-03T12:30:34Z</time>
      </trkpt>
      <trkpt lat="43.41307" lon="6.11105">
        <ele>190.39999389648</ele>
        <time>2015-06-03T12:30:41Z</time>
      </trkpt>
      <trkpt lat="43.41301" lon="6.11105">
        <ele>190.60000610352</ele>
        <time>2015-06-03T12:30:46Z</time>
      </trkpt>
      <trkpt lat="43.41286" lon="6.11102">
        <ele>191.60000610352</ele>
        <time>2015-06-03T12:30:53Z</time>
      </trkpt>
      <trkpt lat="43.41274" lon="6.11097">
        <ele>192.80000305176</ele>
        <time>2015-06-03T12:30:59Z</time>
      </trkpt>
      <trkpt lat="43.41272" lon="6.11096">
        <ele>193</ele>
        <time>2015-06-03T12:31:00Z</time>
      </trkpt>
      <trkpt lat="43.4126" lon="6.11092">
        <ele>194</ele>
        <time>2015-06-03T12:31:06Z</time>
      </trkpt>
      <trkpt lat="43.41258" lon="6.11092">
        <ele>194.19999694824</ele>
        <time>2015-06-03T12:31:07Z</time>
      </trkpt>
      <trkpt lat="43.41244" lon="6.11088">
        <ele>194.80000305176</ele>
        <time>2015-06-03T12:31:13Z</time>
      </trkpt>
      <trkpt lat="43.41225" lon="6.11086">
        <ele>194.39999389648</ele>
        <time>2015-06-03T12:31:19Z</time>
      </trkpt>
      <trkpt lat="43.41198" lon="6.11085">
        <ele>194.60000610352</ele>
        <time>2015-06-03T12:31:26Z</time>
      </trkpt>
      <trkpt lat="43.41174" lon="6.11081">
        <ele>194.60000610352</ele>
        <time>2015-06-03T12:31:33Z</time>
      </trkpt>
      <trkpt lat="43.41164" lon="6.11079">
        <ele>195</ele>
        <time>2015-06-03T12:31:36Z</time>
      </trkpt>
      <trkpt lat="43.4115" lon="6.11073">
        <ele>195.19999694824</ele>
        <time>2015-06-03T12:31:40Z</time>
      </trkpt>
      <trkpt lat="43.41124" lon="6.11065">
        <ele>195.39999389648</ele>
        <time>2015-06-03T12:31:47Z</time>
      </trkpt>
      <trkpt lat="43.41095" lon="6.11055">
        <ele>195.39999389648</ele>
        <time>2015-06-03T12:31:55Z</time>
      </trkpt>
      <trkpt lat="43.41058" lon="6.11043">
        <ele>194.60000610352</ele>
        <time>2015-06-03T12:32:04Z</time>
      </trkpt>
      <trkpt lat="43.4103" lon="6.11034">
        <ele>195.19999694824</ele>
        <time>2015-06-03T12:32:11Z</time>
      </trkpt>
      <trkpt lat="43.41003" lon="6.11026">
        <ele>196.19999694824</ele>
        <time>2015-06-03T12:32:18Z</time>
      </trkpt>
      <trkpt lat="43.40992" lon="6.11023">
        <ele>196</ele>
        <time>2015-06-03T12:32:21Z</time>
      </trkpt>
      <trkpt lat="43.40963" lon="6.11019">
        <ele>196.60000610352</ele>
        <time>2015-06-03T12:32:29Z</time>
      </trkpt>
      <trkpt lat="43.40945" lon="6.1102">
        <ele>196.80000305176</ele>
        <time>2015-06-03T12:32:35Z</time>
      </trkpt>
      <trkpt lat="43.40942" lon="6.11021">
        <ele>196.80000305176</ele>
        <time>2015-06-03T12:32:36Z</time>
      </trkpt>
      <trkpt lat="43.40926" lon="6.11016">
        <ele>196.60000610352</ele>
        <time>2015-06-03T12:32:41Z</time>
      </trkpt>
      <trkpt lat="43.40911" lon="6.11011">
        <ele>197</ele>
        <time>2015-06-03T12:32:46Z</time>
      </trkpt>
      <trkpt lat="43.40903" lon="6.11007">
        <ele>197.39999389648</ele>
        <time>2015-06-03T12:32:49Z</time>
      </trkpt>
      <trkpt lat="43.40891" lon="6.11002">
        <ele>197.60000610352</ele>
        <time>2015-06-03T12:32:55Z</time>
      </trkpt>
      <trkpt lat="43.40887" lon="6.11001">
        <ele>197.80000305176</ele>
        <time>2015-06-03T12:32:57Z</time>
      </trkpt>
      <trkpt lat="43.40885" lon="6.11005">
        <ele>197.80000305176</ele>
        <time>2015-06-03T12:32:59Z</time>
      </trkpt>
      <trkpt lat="43.40884" lon="6.11008">
        <ele>198</ele>
        <time>2015-06-03T12:33:00Z</time>
      </trkpt>
      <trkpt lat="43.40884" lon="6.11015">
        <ele>197.60000610352</ele>
        <time>2015-06-03T12:33:02Z</time>
      </trkpt>
      <trkpt lat="43.40884" lon="6.11022">
        <ele>197.39999389648</ele>
        <time>2015-06-03T12:33:04Z</time>
      </trkpt>
      <trkpt lat="43.40883" lon="6.11045">
        <ele>197.80000305176</ele>
        <time>2015-06-03T12:33:11Z</time>
      </trkpt>
      <trkpt lat="43.40884" lon="6.11048">
        <ele>197.80000305176</ele>
        <time>2015-06-03T12:33:12Z</time>
      </trkpt>
      <trkpt lat="43.40895" lon="6.11063">
        <ele>197.60000610352</ele>
        <time>2015-06-03T12:33:17Z</time>
      </trkpt>
      <trkpt lat="43.40918" lon="6.11082">
        <ele>197</ele>
        <time>2015-06-03T12:33:23Z</time>
      </trkpt>
      <trkpt lat="43.40931" lon="6.11088">
        <ele>197</ele>
        <time>2015-06-03T12:33:26Z</time>
      </trkpt>
      <trkpt lat="43.40945" lon="6.11091">
        <ele>196.80000305176</ele>
        <time>2015-06-03T12:33:29Z</time>
      </trkpt>
      <trkpt lat="43.40965" lon="6.11092">
        <ele>196.60000610352</ele>
        <time>2015-06-03T12:33:33Z</time>
      </trkpt>
      <trkpt lat="43.40975" lon="6.11091">
        <ele>196.39999389648</ele>
        <time>2015-06-03T12:33:35Z</time>
      </trkpt>
      <trkpt lat="43.40979" lon="6.1109">
        <ele>196.39999389648</ele>
        <time>2015-06-03T12:33:36Z</time>
      </trkpt>
      <trkpt lat="43.40993" lon="6.11089">
        <ele>196.19999694824</ele>
        <time>2015-06-03T12:33:39Z</time>
      </trkpt>
      <trkpt lat="43.41005" lon="6.11094">
        <ele>196.80000305176</ele>
        <time>2015-06-03T12:33:42Z</time>
      </trkpt>
      <trkpt lat="43.41018" lon="6.11108">
        <ele>197.19999694824</ele>
        <time>2015-06-03T12:33:46Z</time>
      </trkpt>
      <trkpt lat="43.41021" lon="6.11112">
        <ele>197.60000610352</ele>
        <time>2015-06-03T12:33:47Z</time>
      </trkpt>
      <trkpt lat="43.41024" lon="6.11116">
        <ele>197.80000305176</ele>
        <time>2015-06-03T12:33:48Z</time>
      </trkpt>
      <trkpt lat="43.4104" lon="6.11146">
        <ele>197</ele>
        <time>2015-06-03T12:33:54Z</time>
      </trkpt>
      <trkpt lat="43.41057" lon="6.11177">
        <ele>197.19999694824</ele>
        <time>2015-06-03T12:34:00Z</time>
      </trkpt>
      <trkpt lat="43.41063" lon="6.11185">
        <ele>196.80000305176</ele>
        <time>2015-06-03T12:34:02Z</time>
      </trkpt>
      <trkpt lat="43.41079" lon="6.11201">
        <ele>197.39999389648</ele>
        <time>2015-06-03T12:34:07Z</time>
      </trkpt>
      <trkpt lat="43.41093" lon="6.11199">
        <ele>198.19999694824</ele>
        <time>2015-06-03T12:34:11Z</time>
      </trkpt>
      <trkpt lat="43.41105" lon="6.11208">
        <ele>198.39999389648</ele>
        <time>2015-06-03T12:34:15Z</time>
      </trkpt>
      <trkpt lat="43.41108" lon="6.11227">
        <ele>198.39999389648</ele>
        <time>2015-06-03T12:34:19Z</time>
      </trkpt>
      <trkpt lat="43.41105" lon="6.1125">
        <ele>198.39999389648</ele>
        <time>2015-06-03T12:34:24Z</time>
      </trkpt>
      <trkpt lat="43.41104" lon="6.11255">
        <ele>198.39999389648</ele>
        <time>2015-06-03T12:34:25Z</time>
      </trkpt>
      <trkpt lat="43.41096" lon="6.11296">
        <ele>199.39999389648</ele>
        <time>2015-06-03T12:34:33Z</time>
      </trkpt>
      <trkpt lat="43.41093" lon="6.11317">
        <ele>199.60000610352</ele>
        <time>2015-06-03T12:34:37Z</time>
      </trkpt>
      <trkpt lat="43.41093" lon="6.11336">
        <ele>200</ele>
        <time>2015-06-03T12:34:41Z</time>
      </trkpt>
      <trkpt lat="43.41092" lon="6.1135">
        <ele>200.60000610352</ele>
        <time>2015-06-03T12:34:44Z</time>
      </trkpt>
      <trkpt lat="43.4109" lon="6.1137">
        <ele>201</ele>
        <time>2015-06-03T12:34:48Z</time>
      </trkpt>
      <trkpt lat="43.41087" lon="6.11391">
        <ele>201.80000305176</ele>
        <time>2015-06-03T12:34:52Z</time>
      </trkpt>
      <trkpt lat="43.41085" lon="6.11411">
        <ele>202</ele>
        <time>2015-06-03T12:34:56Z</time>
      </trkpt>
      <trkpt lat="43.41085" lon="6.11441">
        <ele>201.60000610352</ele>
        <time>2015-06-03T12:35:01Z</time>
      </trkpt>
      <trkpt lat="43.41086" lon="6.11472">
        <ele>201.19999694824</ele>
        <time>2015-06-03T12:35:06Z</time>
      </trkpt>
      <trkpt lat="43.41085" lon="6.11478">
        <ele>201</ele>
        <time>2015-06-03T12:35:07Z</time>
      </trkpt>
      <trkpt lat="43.41084" lon="6.11483">
        <ele>201</ele>
        <time>2015-06-03T12:35:08Z</time>
      </trkpt>
      <trkpt lat="43.41076" lon="6.11516">
        <ele>202</ele>
        <time>2015-06-03T12:35:15Z</time>
      </trkpt>
      <trkpt lat="43.41061" lon="6.11541">
        <ele>202</ele>
        <time>2015-06-03T12:35:21Z</time>
      </trkpt>
      <trkpt lat="43.41041" lon="6.11574">
        <ele>202.39999389648</ele>
        <time>2015-06-03T12:35:28Z</time>
      </trkpt>
      <trkpt lat="43.4102" lon="6.11623">
        <ele>202.60000610352</ele>
        <time>2015-06-03T12:35:38Z</time>
      </trkpt>
      <trkpt lat="43.41008" lon="6.11655">
        <ele>203.39999389648</ele>
        <time>2015-06-03T12:35:45Z</time>
      </trkpt>
      <trkpt lat="43.41006" lon="6.11658">
        <ele>203.80000305176</ele>
        <time>2015-06-03T12:35:46Z</time>
      </trkpt>
      <trkpt lat="43.40995" lon="6.11671">
        <ele>204</ele>
        <time>2015-06-03T12:35:50Z</time>
      </trkpt>
      <trkpt lat="43.40977" lon="6.11687">
        <ele>204</ele>
        <time>2015-06-03T12:35:56Z</time>
      </trkpt>
      <trkpt lat="43.40954" lon="6.11707">
        <ele>204.39999389648</ele>
        <time>2015-06-03T12:36:03Z</time>
      </trkpt>
      <trkpt lat="43.40951" lon="6.11709">
        <ele>204.80000305176</ele>
        <time>2015-06-03T12:36:04Z</time>
      </trkpt>
      <trkpt lat="43.40935" lon="6.11721">
        <ele>204.80000305176</ele>
        <time>2015-06-03T12:36:09Z</time>
      </trkpt>
      <trkpt lat="43.40933" lon="6.11724">
        <ele>204.60000610352</ele>
        <time>2015-06-03T12:36:10Z</time>
      </trkpt>
      <trkpt lat="43.40934" lon="6.11734">
        <ele>204.60000610352</ele>
        <time>2015-06-03T12:36:12Z</time>
      </trkpt>
      <trkpt lat="43.40936" lon="6.11746">
        <ele>204.80000305176</ele>
        <time>2015-06-03T12:36:14Z</time>
      </trkpt>
      <trkpt lat="43.40942" lon="6.11767">
        <ele>204.80000305176</ele>
        <time>2015-06-03T12:36:18Z</time>
      </trkpt>
      <trkpt lat="43.40952" lon="6.1178">
        <ele>204.80000305176</ele>
        <time>2015-06-03T12:36:22Z</time>
      </trkpt>
      <trkpt lat="43.40961" lon="6.11802">
        <ele>205.19999694824</ele>
        <time>2015-06-03T12:36:27Z</time>
      </trkpt>
      <trkpt lat="43.40965" lon="6.11814">
        <ele>205.80000305176</ele>
        <time>2015-06-03T12:36:31Z</time>
      </trkpt>
      <trkpt lat="43.40965" lon="6.11816">
        <ele>206.19999694824</ele>
        <time>2015-06-03T12:36:32Z</time>
      </trkpt>
      <trkpt lat="43.40964" lon="6.11818">
        <ele>206.60000610352</ele>
        <time>2015-06-03T12:36:33Z</time>
      </trkpt>
      <trkpt lat="43.40961" lon="6.11822">
        <ele>207.19999694824</ele>
        <time>2015-06-03T12:36:35Z</time>
      </trkpt>
      <trkpt lat="43.4096" lon="6.11823">
        <ele>207.19999694824</ele>
        <time>2015-06-03T12:36:36Z</time>
      </trkpt>
      <trkpt lat="43.4095" lon="6.11834">
        <ele>207.39999389648</ele>
        <time>2015-06-03T12:36:42Z</time>
      </trkpt>
      <trkpt lat="43.40936" lon="6.11856">
        <ele>207.60000610352</ele>
        <time>2015-06-03T12:36:50Z</time>
      </trkpt>
      <trkpt lat="43.40919" lon="6.11877">
        <ele>208.19999694824</ele>
        <time>2015-06-03T12:36:58Z</time>
      </trkpt>
      <trkpt lat="43.40917" lon="6.11879">
        <ele>208.39999389648</ele>
        <time>2015-06-03T12:36:59Z</time>
      </trkpt>
      <trkpt lat="43.40903" lon="6.11888">
        <ele>208.80000305176</ele>
        <time>2015-06-03T12:37:05Z</time>
      </trkpt>
      <trkpt lat="43.40899" lon="6.11904">
        <ele>209</ele>
        <time>2015-06-03T12:37:09Z</time>
      </trkpt>
      <trkpt lat="43.40894" lon="6.11923">
        <ele>209</ele>
        <time>2015-06-03T12:37:14Z</time>
      </trkpt>
      <trkpt lat="43.40886" lon="6.11943">
        <ele>210.19999694824</ele>
        <time>2015-06-03T12:37:20Z</time>
      </trkpt>
      <trkpt lat="43.40878" lon="6.11952">
        <ele>210.80000305176</ele>
        <time>2015-06-03T12:37:24Z</time>
      </trkpt>
      <trkpt lat="43.40875" lon="6.11952">
        <ele>210.80000305176</ele>
        <time>2015-06-03T12:37:25Z</time>
      </trkpt>
      <trkpt lat="43.40857" lon="6.11955">
        <ele>211.19999694824</ele>
        <time>2015-06-03T12:37:31Z</time>
      </trkpt>
      <trkpt lat="43.40841" lon="6.11964">
        <ele>210.19999694824</ele>
        <time>2015-06-03T12:37:36Z</time>
      </trkpt>
      <trkpt lat="43.4083" lon="6.11976">
        <ele>210.19999694824</ele>
        <time>2015-06-03T12:37:41Z</time>
      </trkpt>
      <trkpt lat="43.40829" lon="6.11989">
        <ele>210.80000305176</ele>
        <time>2015-06-03T12:37:45Z</time>
      </trkpt>
      <trkpt lat="43.40828" lon="6.12007">
        <ele>211.60000610352</ele>
        <time>2015-06-03T12:37:51Z</time>
      </trkpt>
      <trkpt lat="43.40827" lon="6.12012">
        <ele>212</ele>
        <time>2015-06-03T12:37:53Z</time>
      </trkpt>
      <trkpt lat="43.40826" lon="6.12024">
        <ele>212.60000610352</ele>
        <time>2015-06-03T12:37:57Z</time>
      </trkpt>
      <trkpt lat="43.40826" lon="6.1203">
        <ele>213</ele>
        <time>2015-06-03T12:37:59Z</time>
      </trkpt>
      <trkpt lat="43.40823" lon="6.12055">
        <ele>214.19999694824</ele>
        <time>2015-06-03T12:38:07Z</time>
      </trkpt>
      <trkpt lat="43.40814" lon="6.12068">
        <ele>215</ele>
        <time>2015-06-03T12:38:13Z</time>
      </trkpt>
      <trkpt lat="43.40803" lon="6.12073">
        <ele>215</ele>
        <time>2015-06-03T12:38:19Z</time>
      </trkpt>
      <trkpt lat="43.40794" lon="6.12076">
        <ele>215.60000610352</ele>
        <time>2015-06-03T12:38:25Z</time>
      </trkpt>
      <trkpt lat="43.40794" lon="6.12078">
        <ele>216</ele>
        <time>2015-06-03T12:38:26Z</time>
      </trkpt>
      <trkpt lat="43.40795" lon="6.12081">
        <ele>216</ele>
        <time>2015-06-03T12:38:28Z</time>
      </trkpt>
      <trkpt lat="43.40802" lon="6.12085">
        <ele>216.60000610352</ele>
        <time>2015-06-03T12:38:33Z</time>
      </trkpt>
      <trkpt lat="43.40812" lon="6.12095">
        <ele>218.19999694824</ele>
        <time>2015-06-03T12:38:41Z</time>
      </trkpt>
      <trkpt lat="43.40818" lon="6.12106">
        <ele>219.19999694824</ele>
        <time>2015-06-03T12:38:47Z</time>
      </trkpt>
      <trkpt lat="43.4082" lon="6.1211">
        <ele>219.39999389648</ele>
        <time>2015-06-03T12:38:49Z</time>
      </trkpt>
      <trkpt lat="43.40822" lon="6.12119">
        <ele>218.60000610352</ele>
        <time>2015-06-03T12:38:52Z</time>
      </trkpt>
      <trkpt lat="43.40823" lon="6.12123">
        <ele>218.60000610352</ele>
        <time>2015-06-03T12:38:53Z</time>
      </trkpt>
      <trkpt lat="43.40825" lon="6.12144">
        <ele>218</ele>
        <time>2015-06-03T12:38:57Z</time>
      </trkpt>
      <trkpt lat="43.40825" lon="6.1215">
        <ele>217.60000610352</ele>
        <time>2015-06-03T12:38:58Z</time>
      </trkpt>
      <trkpt lat="43.40825" lon="6.12174">
        <ele>217.19999694824</ele>
        <time>2015-06-03T12:39:02Z</time>
      </trkpt>
      <trkpt lat="43.40828" lon="6.12195">
        <ele>216.80000305176</ele>
        <time>2015-06-03T12:39:05Z</time>
      </trkpt>
      <trkpt lat="43.40829" lon="6.12201">
        <ele>216.39999389648</ele>
        <time>2015-06-03T12:39:06Z</time>
      </trkpt>
      <trkpt lat="43.40833" lon="6.12228">
        <ele>216.19999694824</ele>
        <time>2015-06-03T12:39:10Z</time>
      </trkpt>
      <trkpt lat="43.40834" lon="6.12235">
        <ele>216.19999694824</ele>
        <time>2015-06-03T12:39:11Z</time>
      </trkpt>
      <trkpt lat="43.40834" lon="6.12242">
        <ele>216.19999694824</ele>
        <time>2015-06-03T12:39:12Z</time>
      </trkpt>
      <trkpt lat="43.40835" lon="6.12268">
        <ele>215.80000305176</ele>
        <time>2015-06-03T12:39:16Z</time>
      </trkpt>
      <trkpt lat="43.40836" lon="6.12306">
        <ele>216.39999389648</ele>
        <time>2015-06-03T12:39:22Z</time>
      </trkpt>
      <trkpt lat="43.40836" lon="6.12312">
        <ele>216</ele>
        <time>2015-06-03T12:39:23Z</time>
      </trkpt>
      <trkpt lat="43.4084" lon="6.12331">
        <ele>215.60000610352</ele>
        <time>2015-06-03T12:39:26Z</time>
      </trkpt>
      <trkpt lat="43.40842" lon="6.12337">
        <ele>215.39999389648</ele>
        <time>2015-06-03T12:39:27Z</time>
      </trkpt>
      <trkpt lat="43.40845" lon="6.12343">
        <ele>215.19999694824</ele>
        <time>2015-06-03T12:39:28Z</time>
      </trkpt>
      <trkpt lat="43.4085" lon="6.12361">
        <ele>215.39999389648</ele>
        <time>2015-06-03T12:39:31Z</time>
      </trkpt>
      <trkpt lat="43.4085" lon="6.12372">
        <ele>215.39999389648</ele>
        <time>2015-06-03T12:39:33Z</time>
      </trkpt>
      <trkpt lat="43.40857" lon="6.12386">
        <ele>215.80000305176</ele>
        <time>2015-06-03T12:39:37Z</time>
      </trkpt>
      <trkpt lat="43.40859" lon="6.1239">
        <ele>216.60000610352</ele>
        <time>2015-06-03T12:39:39Z</time>
      </trkpt>
      <trkpt lat="43.40862" lon="6.12394">
        <ele>217</ele>
        <time>2015-06-03T12:39:41Z</time>
      </trkpt>
      <trkpt lat="43.40862" lon="6.12396">
        <ele>217.19999694824</ele>
        <time>2015-06-03T12:39:42Z</time>
      </trkpt>
      <trkpt lat="43.40864" lon="6.12399">
        <ele>217.39999389648</ele>
        <time>2015-06-03T12:39:44Z</time>
      </trkpt>
      <trkpt lat="43.40864" lon="6.124">
        <ele>217.60000610352</ele>
        <time>2015-06-03T12:39:45Z</time>
      </trkpt>
      <trkpt lat="43.40864" lon="6.12406">
        <ele>218.19999694824</ele>
        <time>2015-06-03T12:39:48Z</time>
      </trkpt>
      <trkpt lat="43.40866" lon="6.12409">
        <ele>218.80000305176</ele>
        <time>2015-06-03T12:39:50Z</time>
      </trkpt>
      <trkpt lat="43.40868" lon="6.12414">
        <ele>219.39999389648</ele>
        <time>2015-06-03T12:39:53Z</time>
      </trkpt>
      <trkpt lat="43.4087" lon="6.12418">
        <ele>219.80000305176</ele>
        <time>2015-06-03T12:39:55Z</time>
      </trkpt>
      <trkpt lat="43.40874" lon="6.12427">
        <ele>220.39999389648</ele>
        <time>2015-06-03T12:40:01Z</time>
      </trkpt>
      <trkpt lat="43.40876" lon="6.1243">
        <ele>221</ele>
        <time>2015-06-03T12:40:03Z</time>
      </trkpt>
      <trkpt lat="43.40879" lon="6.12439">
        <ele>221.19999694824</ele>
        <time>2015-06-03T12:40:08Z</time>
      </trkpt>
      <trkpt lat="43.40879" lon="6.12446">
        <ele>222.19999694824</ele>
        <time>2015-06-03T12:40:11Z</time>
      </trkpt>
      <trkpt lat="43.40881" lon="6.12452">
        <ele>223.19999694824</ele>
        <time>2015-06-03T12:40:14Z</time>
      </trkpt>
      <trkpt lat="43.40881" lon="6.12458">
        <ele>223.39999389648</ele>
        <time>2015-06-03T12:40:17Z</time>
      </trkpt>
      <trkpt lat="43.40882" lon="6.12461">
        <ele>224.19999694824</ele>
        <time>2015-06-03T12:40:19Z</time>
      </trkpt>
      <trkpt lat="43.40882" lon="6.12465">
        <ele>224.60000610352</ele>
        <time>2015-06-03T12:40:21Z</time>
      </trkpt>
      <trkpt lat="43.40881" lon="6.12473">
        <ele>225</ele>
        <time>2015-06-03T12:40:25Z</time>
      </trkpt>
      <trkpt lat="43.40879" lon="6.12477">
        <ele>225.39999389648</ele>
        <time>2015-06-03T12:40:28Z</time>
      </trkpt>
      <trkpt lat="43.40873" lon="6.12486">
        <ele>225.80000305176</ele>
        <time>2015-06-03T12:40:35Z</time>
      </trkpt>
      <trkpt lat="43.40866" lon="6.12496">
        <ele>226.39999389648</ele>
        <time>2015-06-03T12:40:43Z</time>
      </trkpt>
      <trkpt lat="43.40862" lon="6.12506">
        <ele>227.19999694824</ele>
        <time>2015-06-03T12:40:49Z</time>
      </trkpt>
      <trkpt lat="43.40859" lon="6.1252">
        <ele>228.19999694824</ele>
        <time>2015-06-03T12:40:57Z</time>
      </trkpt>
      <trkpt lat="43.40859" lon="6.1253">
        <ele>228.60000610352</ele>
        <time>2015-06-03T12:41:02Z</time>
      </trkpt>
      <trkpt lat="43.4086" lon="6.12538">
        <ele>229.19999694824</ele>
        <time>2015-06-03T12:41:06Z</time>
      </trkpt>
      <trkpt lat="43.40854" lon="6.12554">
        <ele>229.60000610352</ele>
        <time>2015-06-03T12:41:16Z</time>
      </trkpt>
      <trkpt lat="43.40849" lon="6.12567">
        <ele>230.60000610352</ele>
        <time>2015-06-03T12:41:24Z</time>
      </trkpt>
      <trkpt lat="43.40848" lon="6.12573">
        <ele>231.80000305176</ele>
        <time>2015-06-03T12:41:27Z</time>
      </trkpt>
      <trkpt lat="43.40844" lon="6.12585">
        <ele>232.19999694824</ele>
        <time>2015-06-03T12:41:34Z</time>
      </trkpt>
      <trkpt lat="43.40841" lon="6.12593">
        <ele>232.80000305176</ele>
        <time>2015-06-03T12:41:39Z</time>
      </trkpt>
      <trkpt lat="43.4084" lon="6.12595">
        <ele>233.19999694824</ele>
        <time>2015-06-03T12:41:41Z</time>
      </trkpt>
      <trkpt lat="43.40837" lon="6.12602">
        <ele>234</ele>
        <time>2015-06-03T12:41:45Z</time>
      </trkpt>
      <trkpt lat="43.40834" lon="6.12609">
        <ele>234.19999694824</ele>
        <time>2015-06-03T12:41:49Z</time>
      </trkpt>
      <trkpt lat="43.40828" lon="6.12624">
        <ele>234.60000610352</ele>
        <time>2015-06-03T12:41:57Z</time>
      </trkpt>
      <trkpt lat="43.40822" lon="6.12633">
        <ele>235.19999694824</ele>
        <time>2015-06-03T12:42:03Z</time>
      </trkpt>
      <trkpt lat="43.40816" lon="6.12641">
        <ele>236</ele>
        <time>2015-06-03T12:42:09Z</time>
      </trkpt>
      <trkpt lat="43.40815" lon="6.12643">
        <ele>236.39999389648</ele>
        <time>2015-06-03T12:42:10Z</time>
      </trkpt>
      <trkpt lat="43.40809" lon="6.12659">
        <ele>237.39999389648</ele>
        <time>2015-06-03T12:42:19Z</time>
      </trkpt>
      <trkpt lat="43.40806" lon="6.12674">
        <ele>237.60000610352</ele>
        <time>2015-06-03T12:42:27Z</time>
      </trkpt>
      <trkpt lat="43.40803" lon="6.12678">
        <ele>238.39999389648</ele>
        <time>2015-06-03T12:42:30Z</time>
      </trkpt>
      <trkpt lat="43.40802" lon="6.12682">
        <ele>238.80000305176</ele>
        <time>2015-06-03T12:42:32Z</time>
      </trkpt>
      <trkpt lat="43.40801" lon="6.12684">
        <ele>238.80000305176</ele>
        <time>2015-06-03T12:42:33Z</time>
      </trkpt>
      <trkpt lat="43.40799" lon="6.1269">
        <ele>239.80000305176</ele>
        <time>2015-06-03T12:42:36Z</time>
      </trkpt>
      <trkpt lat="43.40795" lon="6.12697">
        <ele>240</ele>
        <time>2015-06-03T12:42:40Z</time>
      </trkpt>
      <trkpt lat="43.40792" lon="6.12711">
        <ele>241.19999694824</ele>
        <time>2015-06-03T12:42:47Z</time>
      </trkpt>
      <trkpt lat="43.40791" lon="6.12721">
        <ele>242</ele>
        <time>2015-06-03T12:42:52Z</time>
      </trkpt>
      <trkpt lat="43.40788" lon="6.12726">
        <ele>242.19999694824</ele>
        <time>2015-06-03T12:42:55Z</time>
      </trkpt>
      <trkpt lat="43.40781" lon="6.12735">
        <ele>243</ele>
        <time>2015-06-03T12:43:02Z</time>
      </trkpt>
      <trkpt lat="43.40779" lon="6.12738">
        <ele>243.39999389648</ele>
        <time>2015-06-03T12:43:04Z</time>
      </trkpt>
      <trkpt lat="43.40774" lon="6.12755">
        <ele>244.19999694824</ele>
        <time>2015-06-03T12:43:13Z</time>
      </trkpt>
      <trkpt lat="43.40772" lon="6.12766">
        <ele>244.60000610352</ele>
        <time>2015-06-03T12:43:19Z</time>
      </trkpt>
      <trkpt lat="43.40772" lon="6.12768">
        <ele>244.60000610352</ele>
        <time>2015-06-03T12:43:20Z</time>
      </trkpt>
      <trkpt lat="43.40772" lon="6.12775">
        <ele>245.19999694824</ele>
        <time>2015-06-03T12:43:23Z</time>
      </trkpt>
      <trkpt lat="43.40771" lon="6.12782">
        <ele>245.80000305176</ele>
        <time>2015-06-03T12:43:27Z</time>
      </trkpt>
      <trkpt lat="43.4077" lon="6.12785">
        <ele>246.19999694824</ele>
        <time>2015-06-03T12:43:29Z</time>
      </trkpt>
      <trkpt lat="43.40769" lon="6.12789">
        <ele>246.39999389648</ele>
        <time>2015-06-03T12:43:31Z</time>
      </trkpt>
      <trkpt lat="43.40768" lon="6.12793">
        <ele>247</ele>
        <time>2015-06-03T12:43:33Z</time>
      </trkpt>
      <trkpt lat="43.40766" lon="6.12798">
        <ele>246.80000305176</ele>
        <time>2015-06-03T12:43:35Z</time>
      </trkpt>
      <trkpt lat="43.40762" lon="6.12813">
        <ele>247</ele>
        <time>2015-06-03T12:43:40Z</time>
      </trkpt>
      <trkpt lat="43.40755" lon="6.1283">
        <ele>247.60000610352</ele>
        <time>2015-06-03T12:43:46Z</time>
      </trkpt>
      <trkpt lat="43.40754" lon="6.12833">
        <ele>247.60000610352</ele>
        <time>2015-06-03T12:43:47Z</time>
      </trkpt>
      <trkpt lat="43.40746" lon="6.12847">
        <ele>248.39999389648</ele>
        <time>2015-06-03T12:43:53Z</time>
      </trkpt>
      <trkpt lat="43.40744" lon="6.12852">
        <ele>248.80000305176</ele>
        <time>2015-06-03T12:43:55Z</time>
      </trkpt>
      <trkpt lat="43.40735" lon="6.12863">
        <ele>249</ele>
        <time>2015-06-03T12:44:00Z</time>
      </trkpt>
      <trkpt lat="43.40734" lon="6.12875">
        <ele>249.19999694824</ele>
        <time>2015-06-03T12:44:05Z</time>
      </trkpt>
      <trkpt lat="43.40735" lon="6.12878">
        <ele>249.60000610352</ele>
        <time>2015-06-03T12:44:07Z</time>
      </trkpt>
      <trkpt lat="43.40736" lon="6.12881">
        <ele>249.80000305176</ele>
        <time>2015-06-03T12:44:09Z</time>
      </trkpt>
      <trkpt lat="43.40736" lon="6.12882">
        <ele>250.19999694824</ele>
        <time>2015-06-03T12:44:12Z</time>
      </trkpt>
      <trkpt lat="43.40736" lon="6.12882">
        <ele>250.60000610352</ele>
        <time>2015-06-03T12:44:15Z</time>
      </trkpt>
      <trkpt lat="43.40736" lon="6.12882">
        <ele>250.39999389648</ele>
        <time>2015-06-03T12:44:20Z</time>
      </trkpt>
      <trkpt lat="43.40736" lon="6.12882">
        <ele>250.60000610352</ele>
        <time>2015-06-03T12:44:39Z</time>
      </trkpt>
      <trkpt lat="43.40736" lon="6.12882">
        <ele>250.60000610352</ele>
        <time>2015-06-03T12:44:42Z</time>
      </trkpt>
      <trkpt lat="43.40736" lon="6.12882">
        <ele>250.39999389648</ele>
        <time>2015-06-03T12:44:43Z</time>
      </trkpt>
      <trkpt lat="43.40736" lon="6.12882">
        <ele>250.39999389648</ele>
        <time>2015-06-03T12:44:53Z</time>
      </trkpt>
      <trkpt lat="43.40736" lon="6.12883">
        <ele>250.39999389648</ele>
        <time>2015-06-03T12:44:58Z</time>
      </trkpt>
      <trkpt lat="43.40736" lon="6.12883">
        <ele>250.80000305176</ele>
        <time>2015-06-03T12:45:37Z</time>
      </trkpt>
      <trkpt lat="43.40736" lon="6.12883">
        <ele>250.60000610352</ele>
        <time>2015-06-03T12:45:52Z</time>
      </trkpt>
      <trkpt lat="43.40736" lon="6.12883">
        <ele>250.60000610352</ele>
        <time>2015-06-03T12:46:16Z</time>
      </trkpt>
      <trkpt lat="43.40736" lon="6.12883">
        <ele>250.19999694824</ele>
        <time>2015-06-03T12:47:26Z</time>
      </trkpt>
      <trkpt lat="43.40736" lon="6.12884">
        <ele>250.60000610352</ele>
        <time>2015-06-03T12:49:43Z</time>
      </trkpt>
      <trkpt lat="43.40736" lon="6.12884">
        <ele>250.39999389648</ele>
        <time>2015-06-03T12:49:53Z</time>
      </trkpt>
      <trkpt lat="43.40737" lon="6.12886">
        <ele>250.19999694824</ele>
        <time>2015-06-03T12:49:57Z</time>
      </trkpt>
      <trkpt lat="43.40735" lon="6.12889">
        <ele>250.39999389648</ele>
        <time>2015-06-03T12:49:59Z</time>
      </trkpt>
      <trkpt lat="43.40732" lon="6.12886">
        <ele>250.39999389648</ele>
        <time>2015-06-03T12:50:02Z</time>
      </trkpt>
      <trkpt lat="43.40728" lon="6.12882">
        <ele>250.39999389648</ele>
        <time>2015-06-03T12:50:06Z</time>
      </trkpt>
      <trkpt lat="43.40726" lon="6.12881">
        <ele>250.39999389648</ele>
        <time>2015-06-03T12:50:07Z</time>
      </trkpt>
      <trkpt lat="43.40713" lon="6.12869">
        <ele>250</ele>
        <time>2015-06-03T12:50:13Z</time>
      </trkpt>
      <trkpt lat="43.40702" lon="6.12863">
        <ele>250.60000610352</ele>
        <time>2015-06-03T12:50:19Z</time>
      </trkpt>
      <trkpt lat="43.40693" lon="6.12861">
        <ele>251.19999694824</ele>
        <time>2015-06-03T12:50:23Z</time>
      </trkpt>
      <trkpt lat="43.40688" lon="6.1286">
        <ele>251.39999389648</ele>
        <time>2015-06-03T12:50:25Z</time>
      </trkpt>
      <trkpt lat="43.40687" lon="6.1286">
        <ele>251.60000610352</ele>
        <time>2015-06-03T12:50:26Z</time>
      </trkpt>
      <trkpt lat="43.40686" lon="6.1286">
        <ele>251.80000305176</ele>
        <time>2015-06-03T12:50:27Z</time>
      </trkpt>
      <trkpt lat="43.40681" lon="6.12859">
        <ele>252.19999694824</ele>
        <time>2015-06-03T12:50:32Z</time>
      </trkpt>
      <trkpt lat="43.40681" lon="6.12859">
        <ele>252.39999389648</ele>
        <time>2015-06-03T12:50:34Z</time>
      </trkpt>
      <trkpt lat="43.40678" lon="6.12858">
        <ele>252.80000305176</ele>
        <time>2015-06-03T12:50:43Z</time>
      </trkpt>
      <trkpt lat="43.40675" lon="6.12857">
        <ele>253.19999694824</ele>
        <time>2015-06-03T12:50:45Z</time>
      </trkpt>
      <trkpt lat="43.40674" lon="6.12857">
        <ele>253.19999694824</ele>
        <time>2015-06-03T12:50:46Z</time>
      </trkpt>
      <trkpt lat="43.4067" lon="6.12858">
        <ele>253.39999389648</ele>
        <time>2015-06-03T12:50:49Z</time>
      </trkpt>
      <trkpt lat="43.40668" lon="6.12864">
        <ele>253.39999389648</ele>
        <time>2015-06-03T12:50:53Z</time>
      </trkpt>
      <trkpt lat="43.40668" lon="6.12871">
        <ele>254.19999694824</ele>
        <time>2015-06-03T12:50:57Z</time>
      </trkpt>
      <trkpt lat="43.40669" lon="6.12879">
        <ele>255</ele>
        <time>2015-06-03T12:51:01Z</time>
      </trkpt>
      <trkpt lat="43.40669" lon="6.12882">
        <ele>255.19999694824</ele>
        <time>2015-06-03T12:51:03Z</time>
      </trkpt>
      <trkpt lat="43.40669" lon="6.12893">
        <ele>256.20001220703</ele>
        <time>2015-06-03T12:51:09Z</time>
      </trkpt>
      <trkpt lat="43.40669" lon="6.12902">
        <ele>256.79998779297</ele>
        <time>2015-06-03T12:51:14Z</time>
      </trkpt>
      <trkpt lat="43.40669" lon="6.12906">
        <ele>257.60000610352</ele>
        <time>2015-06-03T12:51:16Z</time>
      </trkpt>
      <trkpt lat="43.40669" lon="6.12916">
        <ele>258.60000610352</ele>
        <time>2015-06-03T12:51:21Z</time>
      </trkpt>
      <trkpt lat="43.4067" lon="6.12922">
        <ele>259</ele>
        <time>2015-06-03T12:51:24Z</time>
      </trkpt>
      <trkpt lat="43.40669" lon="6.12935">
        <ele>260</ele>
        <time>2015-06-03T12:51:31Z</time>
      </trkpt>
      <trkpt lat="43.4067" lon="6.12944">
        <ele>260.79998779297</ele>
        <time>2015-06-03T12:51:36Z</time>
      </trkpt>
      <trkpt lat="43.40669" lon="6.1295">
        <ele>261</ele>
        <time>2015-06-03T12:51:39Z</time>
      </trkpt>
      <trkpt lat="43.4067" lon="6.12958">
        <ele>262</ele>
        <time>2015-06-03T12:51:44Z</time>
      </trkpt>
      <trkpt lat="43.40669" lon="6.1296">
        <ele>262</ele>
        <time>2015-06-03T12:51:45Z</time>
      </trkpt>
      <trkpt lat="43.4067" lon="6.12973">
        <ele>263</ele>
        <time>2015-06-03T12:51:52Z</time>
      </trkpt>
      <trkpt lat="43.4067" lon="6.12975">
        <ele>263.20001220703</ele>
        <time>2015-06-03T12:51:53Z</time>
      </trkpt>
      <trkpt lat="43.40672" lon="6.12995">
        <ele>264.20001220703</ele>
        <time>2015-06-03T12:52:03Z</time>
      </trkpt>
      <trkpt lat="43.40674" lon="6.13006">
        <ele>264.79998779297</ele>
        <time>2015-06-03T12:52:09Z</time>
      </trkpt>
      <trkpt lat="43.40674" lon="6.1301">
        <ele>265.20001220703</ele>
        <time>2015-06-03T12:52:11Z</time>
      </trkpt>
      <trkpt lat="43.40676" lon="6.13019">
        <ele>265.79998779297</ele>
        <time>2015-06-03T12:52:16Z</time>
      </trkpt>
      <trkpt lat="43.40676" lon="6.13023">
        <ele>266.39999389648</ele>
        <time>2015-06-03T12:52:18Z</time>
      </trkpt>
      <trkpt lat="43.40676" lon="6.13037">
        <ele>267.39999389648</ele>
        <time>2015-06-03T12:52:24Z</time>
      </trkpt>
      <trkpt lat="43.40676" lon="6.13058">
        <ele>268</ele>
        <time>2015-06-03T12:52:32Z</time>
      </trkpt>
      <trkpt lat="43.40675" lon="6.13079">
        <ele>269.39999389648</ele>
        <time>2015-06-03T12:52:40Z</time>
      </trkpt>
      <trkpt lat="43.40675" lon="6.13086">
        <ele>269.60000610352</ele>
        <time>2015-06-03T12:52:43Z</time>
      </trkpt>
      <trkpt lat="43.40676" lon="6.13098">
        <ele>270.20001220703</ele>
        <time>2015-06-03T12:52:48Z</time>
      </trkpt>
      <trkpt lat="43.40676" lon="6.13108">
        <ele>270.79998779297</ele>
        <time>2015-06-03T12:52:52Z</time>
      </trkpt>
      <trkpt lat="43.40677" lon="6.13117">
        <ele>271.20001220703</ele>
        <time>2015-06-03T12:52:56Z</time>
      </trkpt>
      <trkpt lat="43.40679" lon="6.13128">
        <ele>272</ele>
        <time>2015-06-03T12:53:01Z</time>
      </trkpt>
      <trkpt lat="43.4068" lon="6.13132">
        <ele>272.39999389648</ele>
        <time>2015-06-03T12:53:03Z</time>
      </trkpt>
      <trkpt lat="43.40685" lon="6.13143">
        <ele>273.20001220703</ele>
        <time>2015-06-03T12:53:08Z</time>
      </trkpt>
      <trkpt lat="43.40686" lon="6.13147">
        <ele>273.39999389648</ele>
        <time>2015-06-03T12:53:10Z</time>
      </trkpt>
      <trkpt lat="43.40686" lon="6.13163">
        <ele>273.79998779297</ele>
        <time>2015-06-03T12:53:17Z</time>
      </trkpt>
      <trkpt lat="43.40686" lon="6.13168">
        <ele>274.39999389648</ele>
        <time>2015-06-03T12:53:20Z</time>
      </trkpt>
      <trkpt lat="43.40685" lon="6.13179">
        <ele>275.39999389648</ele>
        <time>2015-06-03T12:53:25Z</time>
      </trkpt>
      <trkpt lat="43.4069" lon="6.13197">
        <ele>276</ele>
        <time>2015-06-03T12:53:33Z</time>
      </trkpt>
      <trkpt lat="43.40695" lon="6.13209">
        <ele>276.39999389648</ele>
        <time>2015-06-03T12:53:39Z</time>
      </trkpt>
      <trkpt lat="43.40698" lon="6.13215">
        <ele>277.20001220703</ele>
        <time>2015-06-03T12:53:42Z</time>
      </trkpt>
      <trkpt lat="43.40699" lon="6.13223">
        <ele>277.60000610352</ele>
        <time>2015-06-03T12:53:45Z</time>
      </trkpt>
      <trkpt lat="43.40701" lon="6.13233">
        <ele>278</ele>
        <time>2015-06-03T12:53:49Z</time>
      </trkpt>
      <trkpt lat="43.40697" lon="6.13256">
        <ele>279.39999389648</ele>
        <time>2015-06-03T12:53:58Z</time>
      </trkpt>
      <trkpt lat="43.40696" lon="6.13261">
        <ele>279.79998779297</ele>
        <time>2015-06-03T12:54:00Z</time>
      </trkpt>
      <trkpt lat="43.40694" lon="6.13282">
        <ele>280.60000610352</ele>
        <time>2015-06-03T12:54:07Z</time>
      </trkpt>
      <trkpt lat="43.40694" lon="6.13286">
        <ele>281</ele>
        <time>2015-06-03T12:54:08Z</time>
      </trkpt>
      <trkpt lat="43.40694" lon="6.13308">
        <ele>281.79998779297</ele>
        <time>2015-06-03T12:54:15Z</time>
      </trkpt>
      <trkpt lat="43.40695" lon="6.13337">
        <ele>282.79998779297</ele>
        <time>2015-06-03T12:54:23Z</time>
      </trkpt>
      <trkpt lat="43.40696" lon="6.13367">
        <ele>283</ele>
        <time>2015-06-03T12:54:31Z</time>
      </trkpt>
      <trkpt lat="43.40696" lon="6.13371">
        <ele>283</ele>
        <time>2015-06-03T12:54:32Z</time>
      </trkpt>
      <trkpt lat="43.40696" lon="6.13413">
        <ele>283</ele>
        <time>2015-06-03T12:54:41Z</time>
      </trkpt>
      <trkpt lat="43.40697" lon="6.13449">
        <ele>282.39999389648</ele>
        <time>2015-06-03T12:54:49Z</time>
      </trkpt>
      <trkpt lat="43.40696" lon="6.13474">
        <ele>283.20001220703</ele>
        <time>2015-06-03T12:54:55Z</time>
      </trkpt>
      <trkpt lat="43.40696" lon="6.13499">
        <ele>283</ele>
        <time>2015-06-03T12:55:01Z</time>
      </trkpt>
      <trkpt lat="43.40697" lon="6.13509">
        <ele>282.79998779297</ele>
        <time>2015-06-03T12:55:03Z</time>
      </trkpt>
      <trkpt lat="43.40701" lon="6.1353">
        <ele>283</ele>
        <time>2015-06-03T12:55:09Z</time>
      </trkpt>
      <trkpt lat="43.40705" lon="6.13545">
        <ele>284.20001220703</ele>
        <time>2015-06-03T12:55:15Z</time>
      </trkpt>
      <trkpt lat="43.40706" lon="6.13547">
        <ele>284.39999389648</ele>
        <time>2015-06-03T12:55:16Z</time>
      </trkpt>
      <trkpt lat="43.40711" lon="6.13562">
        <ele>285.39999389648</ele>
        <time>2015-06-03T12:55:23Z</time>
      </trkpt>
      <trkpt lat="43.40714" lon="6.13571">
        <ele>286.39999389648</ele>
        <time>2015-06-03T12:55:28Z</time>
      </trkpt>
      <trkpt lat="43.40716" lon="6.13575">
        <ele>287</ele>
        <time>2015-06-03T12:55:31Z</time>
      </trkpt>
      <trkpt lat="43.40718" lon="6.1358">
        <ele>287.60000610352</ele>
        <time>2015-06-03T12:55:34Z</time>
      </trkpt>
      <trkpt lat="43.40719" lon="6.13589">
        <ele>288.79998779297</ele>
        <time>2015-06-03T12:55:39Z</time>
      </trkpt>
      <trkpt lat="43.40721" lon="6.136">
        <ele>289.79998779297</ele>
        <time>2015-06-03T12:55:45Z</time>
      </trkpt>
      <trkpt lat="43.40722" lon="6.13607">
        <ele>291</ele>
        <time>2015-06-03T12:55:49Z</time>
      </trkpt>
      <trkpt lat="43.40725" lon="6.13621">
        <ele>291.79998779297</ele>
        <time>2015-06-03T12:55:56Z</time>
      </trkpt>
      <trkpt lat="43.40726" lon="6.13622">
        <ele>292</ele>
        <time>2015-06-03T12:55:57Z</time>
      </trkpt>
      <trkpt lat="43.4073" lon="6.13631">
        <ele>293</ele>
        <time>2015-06-03T12:56:03Z</time>
      </trkpt>
      <trkpt lat="43.4073" lon="6.13632">
        <ele>293.20001220703</ele>
        <time>2015-06-03T12:56:04Z</time>
      </trkpt>
      <trkpt lat="43.40735" lon="6.13645">
        <ele>294.39999389648</ele>
        <time>2015-06-03T12:56:13Z</time>
      </trkpt>
      <trkpt lat="43.40739" lon="6.13656">
        <ele>295.39999389648</ele>
        <time>2015-06-03T12:56:21Z</time>
      </trkpt>
      <trkpt lat="43.40742" lon="6.13665">
        <ele>296.60000610352</ele>
        <time>2015-06-03T12:56:28Z</time>
      </trkpt>
      <trkpt lat="43.40743" lon="6.13667">
        <ele>296.79998779297</ele>
        <time>2015-06-03T12:56:29Z</time>
      </trkpt>
      <trkpt lat="43.40747" lon="6.13678">
        <ele>297.79998779297</ele>
        <time>2015-06-03T12:56:37Z</time>
      </trkpt>
      <trkpt lat="43.40751" lon="6.13689">
        <ele>299</ele>
        <time>2015-06-03T12:56:44Z</time>
      </trkpt>
      <trkpt lat="43.40753" lon="6.13693">
        <ele>299</ele>
        <time>2015-06-03T12:56:47Z</time>
      </trkpt>
      <trkpt lat="43.40757" lon="6.13704">
        <ele>299.39999389648</ele>
        <time>2015-06-03T12:56:53Z</time>
      </trkpt>
      <trkpt lat="43.4076" lon="6.13715">
        <ele>300.60000610352</ele>
        <time>2015-06-03T12:57:00Z</time>
      </trkpt>
      <trkpt lat="43.40764" lon="6.13732">
        <ele>301.20001220703</ele>
        <time>2015-06-03T12:57:09Z</time>
      </trkpt>
      <trkpt lat="43.40767" lon="6.13741">
        <ele>301.20001220703</ele>
        <time>2015-06-03T12:57:14Z</time>
      </trkpt>
      <trkpt lat="43.40769" lon="6.13747">
        <ele>301.60000610352</ele>
        <time>2015-06-03T12:57:19Z</time>
      </trkpt>
      <trkpt lat="43.4077" lon="6.13748">
        <ele>301.39999389648</ele>
        <time>2015-06-03T12:57:22Z</time>
      </trkpt>
      <trkpt lat="43.4077" lon="6.13748">
        <ele>301.39999389648</ele>
        <time>2015-06-03T12:57:24Z</time>
      </trkpt>
      <trkpt lat="43.4077" lon="6.13748">
        <ele>301.39999389648</ele>
        <time>2015-06-03T12:57:26Z</time>
      </trkpt>
      <trkpt lat="43.4077" lon="6.13748">
        <ele>301.20001220703</ele>
        <time>2015-06-03T12:57:32Z</time>
      </trkpt>
      <trkpt lat="43.4077" lon="6.13748">
        <ele>301</ele>
        <time>2015-06-03T12:57:38Z</time>
      </trkpt>
      <trkpt lat="43.4077" lon="6.13748">
        <ele>301.20001220703</ele>
        <time>2015-06-03T12:57:44Z</time>
      </trkpt>
      <trkpt lat="43.4077" lon="6.13748">
        <ele>301.39999389648</ele>
        <time>2015-06-03T12:58:00Z</time>
      </trkpt>
      <trkpt lat="43.4077" lon="6.13748">
        <ele>301.39999389648</ele>
        <time>2015-06-03T12:58:15Z</time>
      </trkpt>
      <trkpt lat="43.4077" lon="6.13748">
        <ele>301.39999389648</ele>
        <time>2015-06-03T12:58:34Z</time>
      </trkpt>
      <trkpt lat="43.4077" lon="6.13749">
        <ele>301.39999389648</ele>
        <time>2015-06-03T12:59:00Z</time>
      </trkpt>
      <trkpt lat="43.4077" lon="6.13749">
        <ele>301.39999389648</ele>
        <time>2015-06-03T12:59:06Z</time>
      </trkpt>
      <trkpt lat="43.4077" lon="6.13749">
        <ele>301.20001220703</ele>
        <time>2015-06-03T12:59:31Z</time>
      </trkpt>
      <trkpt lat="43.40771" lon="6.1375">
        <ele>301</ele>
        <time>2015-06-03T12:59:50Z</time>
      </trkpt>
      <trkpt lat="43.40771" lon="6.13749">
        <ele>301.39999389648</ele>
        <time>2015-06-03T13:00:01Z</time>
      </trkpt>
      <trkpt lat="43.40771" lon="6.13749">
        <ele>301</ele>
        <time>2015-06-03T13:00:56Z</time>
      </trkpt>
      <trkpt lat="43.40771" lon="6.13749">
        <ele>301.20001220703</ele>
        <time>2015-06-03T13:01:11Z</time>
      </trkpt>
      <trkpt lat="43.40771" lon="6.13749">
        <ele>301.39999389648</ele>
        <time>2015-06-03T13:01:35Z</time>
      </trkpt>
      <trkpt lat="43.40773" lon="6.13756">
        <ele>301.39999389648</ele>
        <time>2015-06-03T13:01:39Z</time>
      </trkpt>
      <trkpt lat="43.40775" lon="6.13761">
        <ele>301.60000610352</ele>
        <time>2015-06-03T13:01:41Z</time>
      </trkpt>
      <trkpt lat="43.40784" lon="6.13766">
        <ele>301.39999389648</ele>
        <time>2015-06-03T13:01:45Z</time>
      </trkpt>
      <trkpt lat="43.40791" lon="6.13757">
        <ele>300.39999389648</ele>
        <time>2015-06-03T13:01:49Z</time>
      </trkpt>
      <trkpt lat="43.40803" lon="6.13751">
        <ele>300</ele>
        <time>2015-06-03T13:01:54Z</time>
      </trkpt>
      <trkpt lat="43.40813" lon="6.13756">
        <ele>298.60000610352</ele>
        <time>2015-06-03T13:01:57Z</time>
      </trkpt>
      <trkpt lat="43.40817" lon="6.13758">
        <ele>298.20001220703</ele>
        <time>2015-06-03T13:01:58Z</time>
      </trkpt>
      <trkpt lat="43.40821" lon="6.13761">
        <ele>298</ele>
        <time>2015-06-03T13:01:59Z</time>
      </trkpt>
      <trkpt lat="43.40829" lon="6.13768">
        <ele>296.60000610352</ele>
        <time>2015-06-03T13:02:01Z</time>
      </trkpt>
      <trkpt lat="43.40834" lon="6.1377">
        <ele>295.20001220703</ele>
        <time>2015-06-03T13:02:02Z</time>
      </trkpt>
      <trkpt lat="43.40838" lon="6.13773">
        <ele>294</ele>
        <time>2015-06-03T13:02:03Z</time>
      </trkpt>
      <trkpt lat="43.40847" lon="6.1378">
        <ele>292.79998779297</ele>
        <time>2015-06-03T13:02:05Z</time>
      </trkpt>
      <trkpt lat="43.40856" lon="6.13786">
        <ele>291.20001220703</ele>
        <time>2015-06-03T13:02:07Z</time>
      </trkpt>
      <trkpt lat="43.40861" lon="6.13791">
        <ele>290.39999389648</ele>
        <time>2015-06-03T13:02:08Z</time>
      </trkpt>
      <trkpt lat="43.40866" lon="6.13794">
        <ele>289.60000610352</ele>
        <time>2015-06-03T13:02:09Z</time>
      </trkpt>
      <trkpt lat="43.40873" lon="6.13801">
        <ele>287.39999389648</ele>
        <time>2015-06-03T13:02:11Z</time>
      </trkpt>
      <trkpt lat="43.4088" lon="6.13808">
        <ele>287</ele>
        <time>2015-06-03T13:02:13Z</time>
      </trkpt>
      <trkpt lat="43.4089" lon="6.13817">
        <ele>284.39999389648</ele>
        <time>2015-06-03T13:02:15Z</time>
      </trkpt>
      <trkpt lat="43.40895" lon="6.13822">
        <ele>283.39999389648</ele>
        <time>2015-06-03T13:02:16Z</time>
      </trkpt>
      <trkpt lat="43.40901" lon="6.13827">
        <ele>282.39999389648</ele>
        <time>2015-06-03T13:02:17Z</time>
      </trkpt>
      <trkpt lat="43.40907" lon="6.13831">
        <ele>281.20001220703</ele>
        <time>2015-06-03T13:02:18Z</time>
      </trkpt>
      <trkpt lat="43.40911" lon="6.13835">
        <ele>279.79998779297</ele>
        <time>2015-06-03T13:02:19Z</time>
      </trkpt>
      <trkpt lat="43.40916" lon="6.13839">
        <ele>279</ele>
        <time>2015-06-03T13:02:20Z</time>
      </trkpt>
      <trkpt lat="43.40921" lon="6.13842">
        <ele>278.60000610352</ele>
        <time>2015-06-03T13:02:21Z</time>
      </trkpt>
      <trkpt lat="43.4093" lon="6.13848">
        <ele>276.60000610352</ele>
        <time>2015-06-03T13:02:23Z</time>
      </trkpt>
      <trkpt lat="43.40939" lon="6.13854">
        <ele>275</ele>
        <time>2015-06-03T13:02:25Z</time>
      </trkpt>
      <trkpt lat="43.40944" lon="6.13861">
        <ele>273.79998779297</ele>
        <time>2015-06-03T13:02:27Z</time>
      </trkpt>
      <trkpt lat="43.40945" lon="6.13866">
        <ele>272.79998779297</ele>
        <time>2015-06-03T13:02:28Z</time>
      </trkpt>
      <trkpt lat="43.40945" lon="6.13872">
        <ele>272</ele>
        <time>2015-06-03T13:02:29Z</time>
      </trkpt>
      <trkpt lat="43.4094" lon="6.1388">
        <ele>271</ele>
        <time>2015-06-03T13:02:31Z</time>
      </trkpt>
      <trkpt lat="43.40934" lon="6.13885">
        <ele>271</ele>
        <time>2015-06-03T13:02:33Z</time>
      </trkpt>
      <trkpt lat="43.40926" lon="6.13894">
        <ele>271.20001220703</ele>
        <time>2015-06-03T13:02:36Z</time>
      </trkpt>
      <trkpt lat="43.40917" lon="6.13913">
        <ele>270.60000610352</ele>
        <time>2015-06-03T13:02:40Z</time>
      </trkpt>
      <trkpt lat="43.40913" lon="6.13926">
        <ele>269.60000610352</ele>
        <time>2015-06-03T13:02:42Z</time>
      </trkpt>
      <trkpt lat="43.40912" lon="6.13932">
        <ele>268.20001220703</ele>
        <time>2015-06-03T13:02:43Z</time>
      </trkpt>
      <trkpt lat="43.40908" lon="6.13945">
        <ele>266.20001220703</ele>
        <time>2015-06-03T13:02:45Z</time>
      </trkpt>
      <trkpt lat="43.40902" lon="6.13956">
        <ele>264.79998779297</ele>
        <time>2015-06-03T13:02:47Z</time>
      </trkpt>
      <trkpt lat="43.40899" lon="6.13961">
        <ele>263.79998779297</ele>
        <time>2015-06-03T13:02:48Z</time>
      </trkpt>
      <trkpt lat="43.40897" lon="6.13967">
        <ele>263</ele>
        <time>2015-06-03T13:02:49Z</time>
      </trkpt>
      <trkpt lat="43.40895" lon="6.13975">
        <ele>262.39999389648</ele>
        <time>2015-06-03T13:02:50Z</time>
      </trkpt>
      <trkpt lat="43.40888" lon="6.13998">
        <ele>259.20001220703</ele>
        <time>2015-06-03T13:02:53Z</time>
      </trkpt>
      <trkpt lat="43.40885" lon="6.14005">
        <ele>258.60000610352</ele>
        <time>2015-06-03T13:02:54Z</time>
      </trkpt>
      <trkpt lat="43.40881" lon="6.14012">
        <ele>257.20001220703</ele>
        <time>2015-06-03T13:02:55Z</time>
      </trkpt>
      <trkpt lat="43.40876" lon="6.14018">
        <ele>256.20001220703</ele>
        <time>2015-06-03T13:02:56Z</time>
      </trkpt>
      <trkpt lat="43.40872" lon="6.14023">
        <ele>255.19999694824</ele>
        <time>2015-06-03T13:02:57Z</time>
      </trkpt>
      <trkpt lat="43.40867" lon="6.14027">
        <ele>254.39999389648</ele>
        <time>2015-06-03T13:02:58Z</time>
      </trkpt>
      <trkpt lat="43.40862" lon="6.1403">
        <ele>253.19999694824</ele>
        <time>2015-06-03T13:02:59Z</time>
      </trkpt>
      <trkpt lat="43.40852" lon="6.14038">
        <ele>251.39999389648</ele>
        <time>2015-06-03T13:03:01Z</time>
      </trkpt>
      <trkpt lat="43.40844" lon="6.14047">
        <ele>249.60000610352</ele>
        <time>2015-06-03T13:03:03Z</time>
      </trkpt>
      <trkpt lat="43.40843" lon="6.14053">
        <ele>248.19999694824</ele>
        <time>2015-06-03T13:03:04Z</time>
      </trkpt>
      <trkpt lat="43.40842" lon="6.14061">
        <ele>246.80000305176</ele>
        <time>2015-06-03T13:03:05Z</time>
      </trkpt>
      <trkpt lat="43.40839" lon="6.1408">
        <ele>245.39999389648</ele>
        <time>2015-06-03T13:03:07Z</time>
      </trkpt>
      <trkpt lat="43.40837" lon="6.14089">
        <ele>244.60000610352</ele>
        <time>2015-06-03T13:03:08Z</time>
      </trkpt>
      <trkpt lat="43.40833" lon="6.14097">
        <ele>243.80000305176</ele>
        <time>2015-06-03T13:03:09Z</time>
      </trkpt>
      <trkpt lat="43.40825" lon="6.14114">
        <ele>243</ele>
        <time>2015-06-03T13:03:11Z</time>
      </trkpt>
      <trkpt lat="43.4082" lon="6.14123">
        <ele>242</ele>
        <time>2015-06-03T13:03:12Z</time>
      </trkpt>
      <trkpt lat="43.40814" lon="6.14131">
        <ele>240.80000305176</ele>
        <time>2015-06-03T13:03:13Z</time>
      </trkpt>
      <trkpt lat="43.40808" lon="6.14138">
        <ele>241.19999694824</ele>
        <time>2015-06-03T13:03:14Z</time>
      </trkpt>
      <trkpt lat="43.40802" lon="6.14143">
        <ele>241.60000610352</ele>
        <time>2015-06-03T13:03:15Z</time>
      </trkpt>
      <trkpt lat="43.40779" lon="6.14164">
        <ele>240</ele>
        <time>2015-06-03T13:03:19Z</time>
      </trkpt>
      <trkpt lat="43.40774" lon="6.1417">
        <ele>240.39999389648</ele>
        <time>2015-06-03T13:03:20Z</time>
      </trkpt>
      <trkpt lat="43.40764" lon="6.14189">
        <ele>240.19999694824</ele>
        <time>2015-06-03T13:03:23Z</time>
      </trkpt>
      <trkpt lat="43.40762" lon="6.14194">
        <ele>240.39999389648</ele>
        <time>2015-06-03T13:03:24Z</time>
      </trkpt>
      <trkpt lat="43.4076" lon="6.142">
        <ele>240.39999389648</ele>
        <time>2015-06-03T13:03:25Z</time>
      </trkpt>
      <trkpt lat="43.40762" lon="6.14206">
        <ele>239.80000305176</ele>
        <time>2015-06-03T13:03:27Z</time>
      </trkpt>
      <trkpt lat="43.40767" lon="6.14207">
        <ele>239.60000610352</ele>
        <time>2015-06-03T13:03:31Z</time>
      </trkpt>
      <trkpt lat="43.40769" lon="6.14207">
        <ele>239.39999389648</ele>
        <time>2015-06-03T13:03:33Z</time>
      </trkpt>
      <trkpt lat="43.40777" lon="6.14202">
        <ele>238.80000305176</ele>
        <time>2015-06-03T13:03:37Z</time>
      </trkpt>
      <trkpt lat="43.40785" lon="6.14192">
        <ele>238.19999694824</ele>
        <time>2015-06-03T13:03:40Z</time>
      </trkpt>
      <trkpt lat="43.4079" lon="6.14188">
        <ele>237.80000305176</ele>
        <time>2015-06-03T13:03:41Z</time>
      </trkpt>
      <trkpt lat="43.40822" lon="6.14157">
        <ele>237</ele>
        <time>2015-06-03T13:03:49Z</time>
      </trkpt>
      <trkpt lat="43.4084" lon="6.14135">
        <ele>237.39999389648</ele>
        <time>2015-06-03T13:03:54Z</time>
      </trkpt>
      <trkpt lat="43.40843" lon="6.1413">
        <ele>237.19999694824</ele>
        <time>2015-06-03T13:03:55Z</time>
      </trkpt>
      <trkpt lat="43.40852" lon="6.14116">
        <ele>237</ele>
        <time>2015-06-03T13:03:58Z</time>
      </trkpt>
      <trkpt lat="43.4086" lon="6.14113">
        <ele>237.19999694824</ele>
        <time>2015-06-03T13:04:00Z</time>
      </trkpt>
      <trkpt lat="43.40874" lon="6.14122">
        <ele>237</ele>
        <time>2015-06-03T13:04:03Z</time>
      </trkpt>
      <trkpt lat="43.40878" lon="6.14125">
        <ele>236.60000610352</ele>
        <time>2015-06-03T13:04:04Z</time>
      </trkpt>
      <trkpt lat="43.40886" lon="6.14139">
        <ele>235.80000305176</ele>
        <time>2015-06-03T13:04:08Z</time>
      </trkpt>
      <trkpt lat="43.40886" lon="6.14151">
        <ele>235.60000610352</ele>
        <time>2015-06-03T13:04:11Z</time>
      </trkpt>
      <trkpt lat="43.40888" lon="6.1416">
        <ele>235.60000610352</ele>
        <time>2015-06-03T13:04:13Z</time>
      </trkpt>
      <trkpt lat="43.40892" lon="6.14169">
        <ele>235</ele>
        <time>2015-06-03T13:04:15Z</time>
      </trkpt>
      <trkpt lat="43.40899" lon="6.14177">
        <ele>234.39999389648</ele>
        <time>2015-06-03T13:04:17Z</time>
      </trkpt>
      <trkpt lat="43.40911" lon="6.14189">
        <ele>233.39999389648</ele>
        <time>2015-06-03T13:04:20Z</time>
      </trkpt>
      <trkpt lat="43.40924" lon="6.142">
        <ele>233.19999694824</ele>
        <time>2015-06-03T13:04:23Z</time>
      </trkpt>
      <trkpt lat="43.40955" lon="6.14225">
        <ele>232.39999389648</ele>
        <time>2015-06-03T13:04:30Z</time>
      </trkpt>
      <trkpt lat="43.40958" lon="6.14228">
        <ele>232.19999694824</ele>
        <time>2015-06-03T13:04:31Z</time>
      </trkpt>
      <trkpt lat="43.40967" lon="6.1424">
        <ele>232.60000610352</ele>
        <time>2015-06-03T13:04:34Z</time>
      </trkpt>
      <trkpt lat="43.40966" lon="6.14245">
        <ele>232.39999389648</ele>
        <time>2015-06-03T13:04:35Z</time>
      </trkpt>
      <trkpt lat="43.40958" lon="6.14255">
        <ele>232.39999389648</ele>
        <time>2015-06-03T13:04:38Z</time>
      </trkpt>
      <trkpt lat="43.40948" lon="6.14272">
        <ele>232.19999694824</ele>
        <time>2015-06-03T13:04:42Z</time>
      </trkpt>
      <trkpt lat="43.40945" lon="6.14282">
        <ele>232.39999389648</ele>
        <time>2015-06-03T13:04:44Z</time>
      </trkpt>
      <trkpt lat="43.40931" lon="6.14306">
        <ele>233.19999694824</ele>
        <time>2015-06-03T13:04:50Z</time>
      </trkpt>
      <trkpt lat="43.40926" lon="6.14313">
        <ele>233.39999389648</ele>
        <time>2015-06-03T13:04:52Z</time>
      </trkpt>
      <trkpt lat="43.40911" lon="6.14345">
        <ele>233.60000610352</ele>
        <time>2015-06-03T13:04:59Z</time>
      </trkpt>
      <trkpt lat="43.4091" lon="6.1435">
        <ele>233.60000610352</ele>
        <time>2015-06-03T13:05:00Z</time>
      </trkpt>
      <trkpt lat="43.40908" lon="6.14369">
        <ele>234.19999694824</ele>
        <time>2015-06-03T13:05:04Z</time>
      </trkpt>
      <trkpt lat="43.40908" lon="6.14378">
        <ele>234.19999694824</ele>
        <time>2015-06-03T13:05:06Z</time>
      </trkpt>
      <trkpt lat="43.40908" lon="6.14391">
        <ele>235</ele>
        <time>2015-06-03T13:05:09Z</time>
      </trkpt>
      <trkpt lat="43.40908" lon="6.14395">
        <ele>235.19999694824</ele>
        <time>2015-06-03T13:05:10Z</time>
      </trkpt>
      <trkpt lat="43.40906" lon="6.1441">
        <ele>235.39999389648</ele>
        <time>2015-06-03T13:05:14Z</time>
      </trkpt>
      <trkpt lat="43.40903" lon="6.14429">
        <ele>236.19999694824</ele>
        <time>2015-06-03T13:05:19Z</time>
      </trkpt>
      <trkpt lat="43.40902" lon="6.14433">
        <ele>236.19999694824</ele>
        <time>2015-06-03T13:05:20Z</time>
      </trkpt>
      <trkpt lat="43.40902" lon="6.14443">
        <ele>236.60000610352</ele>
        <time>2015-06-03T13:05:23Z</time>
      </trkpt>
      <trkpt lat="43.40902" lon="6.1446">
        <ele>237</ele>
        <time>2015-06-03T13:05:28Z</time>
      </trkpt>
      <trkpt lat="43.40902" lon="6.14473">
        <ele>238</ele>
        <time>2015-06-03T13:05:32Z</time>
      </trkpt>
      <trkpt lat="43.40901" lon="6.14485">
        <ele>238.80000305176</ele>
        <time>2015-06-03T13:05:36Z</time>
      </trkpt>
      <trkpt lat="43.40897" lon="6.1453">
        <ele>239.60000610352</ele>
        <time>2015-06-03T13:05:49Z</time>
      </trkpt>
      <trkpt lat="43.40895" lon="6.14537">
        <ele>239.80000305176</ele>
        <time>2015-06-03T13:05:51Z</time>
      </trkpt>
      <trkpt lat="43.4089" lon="6.14557">
        <ele>239.60000610352</ele>
        <time>2015-06-03T13:05:56Z</time>
      </trkpt>
      <trkpt lat="43.40882" lon="6.14585">
        <ele>239.60000610352</ele>
        <time>2015-06-03T13:06:03Z</time>
      </trkpt>
      <trkpt lat="43.40879" lon="6.14593">
        <ele>239.80000305176</ele>
        <time>2015-06-03T13:06:05Z</time>
      </trkpt>
      <trkpt lat="43.40878" lon="6.14609">
        <ele>239.80000305176</ele>
        <time>2015-06-03T13:06:09Z</time>
      </trkpt>
      <trkpt lat="43.40887" lon="6.14626">
        <ele>239.60000610352</ele>
        <time>2015-06-03T13:06:14Z</time>
      </trkpt>
      <trkpt lat="43.40896" lon="6.1465">
        <ele>240</ele>
        <time>2015-06-03T13:06:20Z</time>
      </trkpt>
      <trkpt lat="43.40897" lon="6.14669">
        <ele>239.80000305176</ele>
        <time>2015-06-03T13:06:24Z</time>
      </trkpt>
      <trkpt lat="43.40897" lon="6.14678">
        <ele>240.19999694824</ele>
        <time>2015-06-03T13:06:26Z</time>
      </trkpt>
      <trkpt lat="43.40898" lon="6.147">
        <ele>239.39999389648</ele>
        <time>2015-06-03T13:06:31Z</time>
      </trkpt>
      <trkpt lat="43.40899" lon="6.14708">
        <ele>239.39999389648</ele>
        <time>2015-06-03T13:06:33Z</time>
      </trkpt>
      <trkpt lat="43.409" lon="6.14738">
        <ele>239.39999389648</ele>
        <time>2015-06-03T13:06:40Z</time>
      </trkpt>
      <trkpt lat="43.409" lon="6.14747">
        <ele>239.19999694824</ele>
        <time>2015-06-03T13:06:42Z</time>
      </trkpt>
      <trkpt lat="43.40901" lon="6.14754">
        <ele>239.19999694824</ele>
        <time>2015-06-03T13:06:44Z</time>
      </trkpt>
      <trkpt lat="43.40901" lon="6.14763">
        <ele>239</ele>
        <time>2015-06-03T13:06:46Z</time>
      </trkpt>
      <trkpt lat="43.40902" lon="6.14784">
        <ele>238.39999389648</ele>
        <time>2015-06-03T13:06:50Z</time>
      </trkpt>
      <trkpt lat="43.40904" lon="6.14802">
        <ele>238</ele>
        <time>2015-06-03T13:06:53Z</time>
      </trkpt>
      <trkpt lat="43.40905" lon="6.14838">
        <ele>238</ele>
        <time>2015-06-03T13:06:59Z</time>
      </trkpt>
      <trkpt lat="43.40902" lon="6.14849">
        <ele>237.80000305176</ele>
        <time>2015-06-03T13:07:01Z</time>
      </trkpt>
      <trkpt lat="43.409" lon="6.1486">
        <ele>237.39999389648</ele>
        <time>2015-06-03T13:07:03Z</time>
      </trkpt>
      <trkpt lat="43.40897" lon="6.14882">
        <ele>238.19999694824</ele>
        <time>2015-06-03T13:07:07Z</time>
      </trkpt>
      <trkpt lat="43.40896" lon="6.14902">
        <ele>237</ele>
        <time>2015-06-03T13:07:10Z</time>
      </trkpt>
      <trkpt lat="43.40901" lon="6.14914">
        <ele>236.60000610352</ele>
        <time>2015-06-03T13:07:12Z</time>
      </trkpt>
      <trkpt lat="43.40911" lon="6.14925">
        <ele>236.80000305176</ele>
        <time>2015-06-03T13:07:15Z</time>
      </trkpt>
      <trkpt lat="43.40913" lon="6.14929">
        <ele>236.39999389648</ele>
        <time>2015-06-03T13:07:16Z</time>
      </trkpt>
      <trkpt lat="43.40924" lon="6.14939">
        <ele>237.19999694824</ele>
        <time>2015-06-03T13:07:20Z</time>
      </trkpt>
      <trkpt lat="43.4093" lon="6.14947">
        <ele>238</ele>
        <time>2015-06-03T13:07:23Z</time>
      </trkpt>
      <trkpt lat="43.40933" lon="6.14953">
        <ele>238.39999389648</ele>
        <time>2015-06-03T13:07:25Z</time>
      </trkpt>
      <trkpt lat="43.40934" lon="6.14965">
        <ele>238.80000305176</ele>
        <time>2015-06-03T13:07:28Z</time>
      </trkpt>
      <trkpt lat="43.40934" lon="6.15004">
        <ele>238.39999389648</ele>
        <time>2015-06-03T13:07:35Z</time>
      </trkpt>
      <trkpt lat="43.40941" lon="6.1503">
        <ele>237.19999694824</ele>
        <time>2015-06-03T13:07:39Z</time>
      </trkpt>
      <trkpt lat="43.40941" lon="6.15037">
        <ele>236.60000610352</ele>
        <time>2015-06-03T13:07:40Z</time>
      </trkpt>
      <trkpt lat="43.4094" lon="6.15044">
        <ele>236</ele>
        <time>2015-06-03T13:07:41Z</time>
      </trkpt>
      <trkpt lat="43.40938" lon="6.15049">
        <ele>235.60000610352</ele>
        <time>2015-06-03T13:07:42Z</time>
      </trkpt>
      <trkpt lat="43.4093" lon="6.15062">
        <ele>234.80000305176</ele>
        <time>2015-06-03T13:07:45Z</time>
      </trkpt>
      <trkpt lat="43.4093" lon="6.15066">
        <ele>234.60000610352</ele>
        <time>2015-06-03T13:07:46Z</time>
      </trkpt>
      <trkpt lat="43.40932" lon="6.15072">
        <ele>234.19999694824</ele>
        <time>2015-06-03T13:07:48Z</time>
      </trkpt>
      <trkpt lat="43.40934" lon="6.15074">
        <ele>234.19999694824</ele>
        <time>2015-06-03T13:07:49Z</time>
      </trkpt>
      <trkpt lat="43.40939" lon="6.15079">
        <ele>234</ele>
        <time>2015-06-03T13:07:53Z</time>
      </trkpt>
      <trkpt lat="43.4094" lon="6.15079">
        <ele>234</ele>
        <time>2015-06-03T13:07:54Z</time>
      </trkpt>
      <trkpt lat="43.40942" lon="6.15079">
        <ele>234</ele>
        <time>2015-06-03T13:07:56Z</time>
      </trkpt>
      <trkpt lat="43.4095" lon="6.15082">
        <ele>234.19999694824</ele>
        <time>2015-06-03T13:08:01Z</time>
      </trkpt>
      <trkpt lat="43.40963" lon="6.15088">
        <ele>234.39999389648</ele>
        <time>2015-06-03T13:08:08Z</time>
      </trkpt>
      <trkpt lat="43.40974" lon="6.1509">
        <ele>234.19999694824</ele>
        <time>2015-06-03T13:08:15Z</time>
      </trkpt>
      <trkpt lat="43.40981" lon="6.15097">
        <ele>234.39999389648</ele>
        <time>2015-06-03T13:08:19Z</time>
      </trkpt>
      <trkpt lat="43.40992" lon="6.15098">
        <ele>234.60000610352</ele>
        <time>2015-06-03T13:08:25Z</time>
      </trkpt>
      <trkpt lat="43.41003" lon="6.15089">
        <ele>235.60000610352</ele>
        <time>2015-06-03T13:08:31Z</time>
      </trkpt>
      <trkpt lat="43.41012" lon="6.15079">
        <ele>235.80000305176</ele>
        <time>2015-06-03T13:08:37Z</time>
      </trkpt>
      <trkpt lat="43.41013" lon="6.15078">
        <ele>236</ele>
        <time>2015-06-03T13:08:38Z</time>
      </trkpt>
      <trkpt lat="43.41021" lon="6.1507">
        <ele>236.39999389648</ele>
        <time>2015-06-03T13:08:43Z</time>
      </trkpt>
      <trkpt lat="43.41027" lon="6.15064">
        <ele>237</ele>
        <time>2015-06-03T13:08:47Z</time>
      </trkpt>
      <trkpt lat="43.41037" lon="6.1506">
        <ele>237.80000305176</ele>
        <time>2015-06-03T13:08:53Z</time>
      </trkpt>
      <trkpt lat="43.41039" lon="6.15059">
        <ele>238</ele>
        <time>2015-06-03T13:08:56Z</time>
      </trkpt>
      <trkpt lat="43.4104" lon="6.15059">
        <ele>238.39999389648</ele>
        <time>2015-06-03T13:09:00Z</time>
      </trkpt>
      <trkpt lat="43.4104" lon="6.15059">
        <ele>238.60000610352</ele>
        <time>2015-06-03T13:09:04Z</time>
      </trkpt>
      <trkpt lat="43.4104" lon="6.15059">
        <ele>238.60000610352</ele>
        <time>2015-06-03T13:09:07Z</time>
      </trkpt>
      <trkpt lat="43.4104" lon="6.15059">
        <ele>238.39999389648</ele>
        <time>2015-06-03T13:09:16Z</time>
      </trkpt>
      <trkpt lat="43.4104" lon="6.15059">
        <ele>238.60000610352</ele>
        <time>2015-06-03T13:09:29Z</time>
      </trkpt>
      <trkpt lat="43.4104" lon="6.15059">
        <ele>238.39999389648</ele>
        <time>2015-06-03T13:09:39Z</time>
      </trkpt>
      <trkpt lat="43.4104" lon="6.15059">
        <ele>238.60000610352</ele>
        <time>2015-06-03T13:09:46Z</time>
      </trkpt>
      <trkpt lat="43.41039" lon="6.15057">
        <ele>238.60000610352</ele>
        <time>2015-06-03T13:09:56Z</time>
      </trkpt>
      <trkpt lat="43.41037" lon="6.15058">
        <ele>238.60000610352</ele>
        <time>2015-06-03T13:09:57Z</time>
      </trkpt>
      <trkpt lat="43.41028" lon="6.15061">
        <ele>238.39999389648</ele>
        <time>2015-06-03T13:10:01Z</time>
      </trkpt>
      <trkpt lat="43.41026" lon="6.15063">
        <ele>238.19999694824</ele>
        <time>2015-06-03T13:10:02Z</time>
      </trkpt>
      <trkpt lat="43.41016" lon="6.15075">
        <ele>237.19999694824</ele>
        <time>2015-06-03T13:10:07Z</time>
      </trkpt>
      <trkpt lat="43.41001" lon="6.15091">
        <ele>236.60000610352</ele>
        <time>2015-06-03T13:10:12Z</time>
      </trkpt>
      <trkpt lat="43.40993" lon="6.15097">
        <ele>236.39999389648</ele>
        <time>2015-06-03T13:10:14Z</time>
      </trkpt>
      <trkpt lat="43.4098" lon="6.15097">
        <ele>235.80000305176</ele>
        <time>2015-06-03T13:10:17Z</time>
      </trkpt>
      <trkpt lat="43.40966" lon="6.1509">
        <ele>235.19999694824</ele>
        <time>2015-06-03T13:10:20Z</time>
      </trkpt>
      <trkpt lat="43.40959" lon="6.15086">
        <ele>234.60000610352</ele>
        <time>2015-06-03T13:10:22Z</time>
      </trkpt>
      <trkpt lat="43.40938" lon="6.15077">
        <ele>235</ele>
        <time>2015-06-03T13:10:28Z</time>
      </trkpt>
      <trkpt lat="43.4093" lon="6.15069">
        <ele>234.80000305176</ele>
        <time>2015-06-03T13:10:31Z</time>
      </trkpt>
      <trkpt lat="43.4093" lon="6.1506">
        <ele>234.60000610352</ele>
        <time>2015-06-03T13:10:33Z</time>
      </trkpt>
      <trkpt lat="43.40939" lon="6.1504">
        <ele>235.80000305176</ele>
        <time>2015-06-03T13:10:40Z</time>
      </trkpt>
      <trkpt lat="43.40939" lon="6.15031">
        <ele>236.19999694824</ele>
        <time>2015-06-03T13:10:43Z</time>
      </trkpt>
      <trkpt lat="43.40937" lon="6.15022">
        <ele>236.80000305176</ele>
        <time>2015-06-03T13:10:46Z</time>
      </trkpt>
      <trkpt lat="43.40935" lon="6.15017">
        <ele>237.19999694824</ele>
        <time>2015-06-03T13:10:48Z</time>
      </trkpt>
      <trkpt lat="43.40934" lon="6.1501">
        <ele>237.80000305176</ele>
        <time>2015-06-03T13:10:50Z</time>
      </trkpt>
      <trkpt lat="43.40934" lon="6.14998">
        <ele>238.39999389648</ele>
        <time>2015-06-03T13:10:54Z</time>
      </trkpt>
      <trkpt lat="43.40934" lon="6.14988">
        <ele>238.80000305176</ele>
        <time>2015-06-03T13:10:57Z</time>
      </trkpt>
      <trkpt lat="43.40934" lon="6.14971">
        <ele>239.39999389648</ele>
        <time>2015-06-03T13:11:02Z</time>
      </trkpt>
      <trkpt lat="43.40934" lon="6.14963">
        <ele>239.60000610352</ele>
        <time>2015-06-03T13:11:04Z</time>
      </trkpt>
      <trkpt lat="43.40925" lon="6.14938">
        <ele>239.80000305176</ele>
        <time>2015-06-03T13:11:10Z</time>
      </trkpt>
      <trkpt lat="43.40908" lon="6.1492">
        <ele>237.80000305176</ele>
        <time>2015-06-03T13:11:14Z</time>
      </trkpt>
      <trkpt lat="43.40904" lon="6.14915">
        <ele>237.60000610352</ele>
        <time>2015-06-03T13:11:15Z</time>
      </trkpt>
      <trkpt lat="43.40897" lon="6.14902">
        <ele>236.80000305176</ele>
        <time>2015-06-03T13:11:17Z</time>
      </trkpt>
      <trkpt lat="43.40896" lon="6.1489">
        <ele>237.39999389648</ele>
        <time>2015-06-03T13:11:19Z</time>
      </trkpt>
      <trkpt lat="43.40899" lon="6.14872">
        <ele>238</ele>
        <time>2015-06-03T13:11:23Z</time>
      </trkpt>
      <trkpt lat="43.40903" lon="6.1485">
        <ele>238.19999694824</ele>
        <time>2015-06-03T13:11:28Z</time>
      </trkpt>
      <trkpt lat="43.40904" lon="6.14845">
        <ele>238</ele>
        <time>2015-06-03T13:11:29Z</time>
      </trkpt>
      <trkpt lat="43.40906" lon="6.14814">
        <ele>238</ele>
        <time>2015-06-03T13:11:35Z</time>
      </trkpt>
      <trkpt lat="43.40901" lon="6.14772">
        <ele>238.39999389648</ele>
        <time>2015-06-03T13:11:43Z</time>
      </trkpt>
      <trkpt lat="43.409" lon="6.14747">
        <ele>238.80000305176</ele>
        <time>2015-06-03T13:11:48Z</time>
      </trkpt>
      <trkpt lat="43.40899" lon="6.14721">
        <ele>239.19999694824</ele>
        <time>2015-06-03T13:11:53Z</time>
      </trkpt>
      <trkpt lat="43.40897" lon="6.14675">
        <ele>239.80000305176</ele>
        <time>2015-06-03T13:12:02Z</time>
      </trkpt>
      <trkpt lat="43.40897" lon="6.14661">
        <ele>240</ele>
        <time>2015-06-03T13:12:05Z</time>
      </trkpt>
      <trkpt lat="43.40893" lon="6.14636">
        <ele>239.80000305176</ele>
        <time>2015-06-03T13:12:10Z</time>
      </trkpt>
      <trkpt lat="43.40883" lon="6.14615">
        <ele>240.39999389648</ele>
        <time>2015-06-03T13:12:15Z</time>
      </trkpt>
      <trkpt lat="43.40877" lon="6.14599">
        <ele>240.19999694824</ele>
        <time>2015-06-03T13:12:19Z</time>
      </trkpt>
      <trkpt lat="43.40884" lon="6.14573">
        <ele>240.19999694824</ele>
        <time>2015-06-03T13:12:24Z</time>
      </trkpt>
      <trkpt lat="43.40886" lon="6.14568">
        <ele>240</ele>
        <time>2015-06-03T13:12:25Z</time>
      </trkpt>
      <trkpt lat="43.40895" lon="6.14536">
        <ele>240</ele>
        <time>2015-06-03T13:12:31Z</time>
      </trkpt>
      <trkpt lat="43.40897" lon="6.14525">
        <ele>240</ele>
        <time>2015-06-03T13:12:33Z</time>
      </trkpt>
      <trkpt lat="43.40901" lon="6.1448">
        <ele>239.80000305176</ele>
        <time>2015-06-03T13:12:40Z</time>
      </trkpt>
      <trkpt lat="43.40902" lon="6.14457">
        <ele>239</ele>
        <time>2015-06-03T13:12:43Z</time>
      </trkpt>
      <trkpt lat="43.40902" lon="6.14439">
        <ele>238</ele>
        <time>2015-06-03T13:12:45Z</time>
      </trkpt>
      <trkpt lat="43.40902" lon="6.1443">
        <ele>237.60000610352</ele>
        <time>2015-06-03T13:12:46Z</time>
      </trkpt>
      <trkpt lat="43.40909" lon="6.14391">
        <ele>237.19999694824</ele>
        <time>2015-06-03T13:12:50Z</time>
      </trkpt>
      <trkpt lat="43.4091" lon="6.14372">
        <ele>236.19999694824</ele>
        <time>2015-06-03T13:12:52Z</time>
      </trkpt>
      <trkpt lat="43.40913" lon="6.14342">
        <ele>235.60000610352</ele>
        <time>2015-06-03T13:12:55Z</time>
      </trkpt>
      <trkpt lat="43.40929" lon="6.14309">
        <ele>234.60000610352</ele>
        <time>2015-06-03T13:12:59Z</time>
      </trkpt>
      <trkpt lat="43.40934" lon="6.14303">
        <ele>234.39999389648</ele>
        <time>2015-06-03T13:13:00Z</time>
      </trkpt>
      <trkpt lat="43.40949" lon="6.14273">
        <ele>234.19999694824</ele>
        <time>2015-06-03T13:13:04Z</time>
      </trkpt>
      <trkpt lat="43.40952" lon="6.14266">
        <ele>234.19999694824</ele>
        <time>2015-06-03T13:13:05Z</time>
      </trkpt>
      <trkpt lat="43.40956" lon="6.14259">
        <ele>234</ele>
        <time>2015-06-03T13:13:06Z</time>
      </trkpt>
      <trkpt lat="43.40965" lon="6.14247">
        <ele>233.19999694824</ele>
        <time>2015-06-03T13:13:08Z</time>
      </trkpt>
      <trkpt lat="43.40969" lon="6.14243">
        <ele>233.60000610352</ele>
        <time>2015-06-03T13:13:09Z</time>
      </trkpt>
      <trkpt lat="43.40986" lon="6.14234">
        <ele>233.80000305176</ele>
        <time>2015-06-03T13:13:13Z</time>
      </trkpt>
      <trkpt lat="43.40996" lon="6.14228">
        <ele>234.39999389648</ele>
        <time>2015-06-03T13:13:16Z</time>
      </trkpt>
      <trkpt lat="43.41003" lon="6.1422">
        <ele>234.80000305176</ele>
        <time>2015-06-03T13:13:19Z</time>
      </trkpt>
      <trkpt lat="43.41013" lon="6.14208">
        <ele>234.80000305176</ele>
        <time>2015-06-03T13:13:24Z</time>
      </trkpt>
      <trkpt lat="43.41019" lon="6.14199">
        <ele>234.80000305176</ele>
        <time>2015-06-03T13:13:27Z</time>
      </trkpt>
      <trkpt lat="43.41032" lon="6.14185">
        <ele>234.60000610352</ele>
        <time>2015-06-03T13:13:32Z</time>
      </trkpt>
      <trkpt lat="43.41048" lon="6.14188">
        <ele>234.39999389648</ele>
        <time>2015-06-03T13:13:37Z</time>
      </trkpt>
      <trkpt lat="43.41061" lon="6.14185">
        <ele>235.39999389648</ele>
        <time>2015-06-03T13:13:41Z</time>
      </trkpt>
      <trkpt lat="43.41067" lon="6.14184">
        <ele>235.60000610352</ele>
        <time>2015-06-03T13:13:43Z</time>
      </trkpt>
      <trkpt lat="43.4107" lon="6.14183">
        <ele>235.60000610352</ele>
        <time>2015-06-03T13:13:44Z</time>
      </trkpt>
      <trkpt lat="43.41092" lon="6.14173">
        <ele>236</ele>
        <time>2015-06-03T13:13:53Z</time>
      </trkpt>
      <trkpt lat="43.411" lon="6.14167">
        <ele>236.60000610352</ele>
        <time>2015-06-03T13:13:57Z</time>
      </trkpt>
      <trkpt lat="43.41108" lon="6.14165">
        <ele>236.60000610352</ele>
        <time>2015-06-03T13:14:00Z</time>
      </trkpt>
      <trkpt lat="43.41114" lon="6.14166">
        <ele>237.60000610352</ele>
        <time>2015-06-03T13:14:03Z</time>
      </trkpt>
      <trkpt lat="43.41123" lon="6.14166">
        <ele>238.19999694824</ele>
        <time>2015-06-03T13:14:07Z</time>
      </trkpt>
      <trkpt lat="43.41127" lon="6.14165">
        <ele>239</ele>
        <time>2015-06-03T13:14:09Z</time>
      </trkpt>
      <trkpt lat="43.41136" lon="6.14157">
        <ele>238.80000305176</ele>
        <time>2015-06-03T13:14:14Z</time>
      </trkpt>
      <trkpt lat="43.41147" lon="6.14138">
        <ele>238</ele>
        <time>2015-06-03T13:14:20Z</time>
      </trkpt>
      <trkpt lat="43.41158" lon="6.14127">
        <ele>237.80000305176</ele>
        <time>2015-06-03T13:14:24Z</time>
      </trkpt>
      <trkpt lat="43.41164" lon="6.14121">
        <ele>237.80000305176</ele>
        <time>2015-06-03T13:14:26Z</time>
      </trkpt>
      <trkpt lat="43.41176" lon="6.14103">
        <ele>237.19999694824</ele>
        <time>2015-06-03T13:14:32Z</time>
      </trkpt>
      <trkpt lat="43.4118" lon="6.14093">
        <ele>237</ele>
        <time>2015-06-03T13:14:35Z</time>
      </trkpt>
      <trkpt lat="43.41187" lon="6.14076">
        <ele>237.60000610352</ele>
        <time>2015-06-03T13:14:40Z</time>
      </trkpt>
      <trkpt lat="43.41199" lon="6.14045">
        <ele>237.39999389648</ele>
        <time>2015-06-03T13:14:48Z</time>
      </trkpt>
      <trkpt lat="43.41205" lon="6.14021">
        <ele>237.19999694824</ele>
        <time>2015-06-03T13:14:54Z</time>
      </trkpt>
      <trkpt lat="43.41205" lon="6.14013">
        <ele>236.80000305176</ele>
        <time>2015-06-03T13:14:56Z</time>
      </trkpt>
      <trkpt lat="43.41207" lon="6.13993">
        <ele>236</ele>
        <time>2015-06-03T13:15:01Z</time>
      </trkpt>
      <trkpt lat="43.41207" lon="6.13965">
        <ele>236.39999389648</ele>
        <time>2015-06-03T13:15:08Z</time>
      </trkpt>
      <trkpt lat="43.41212" lon="6.13947">
        <ele>237.19999694824</ele>
        <time>2015-06-03T13:15:14Z</time>
      </trkpt>
      <trkpt lat="43.4122" lon="6.13931">
        <ele>237.39999389648</ele>
        <time>2015-06-03T13:15:20Z</time>
      </trkpt>
      <trkpt lat="43.41228" lon="6.13913">
        <ele>237.80000305176</ele>
        <time>2015-06-03T13:15:27Z</time>
      </trkpt>
      <trkpt lat="43.41229" lon="6.1391">
        <ele>238</ele>
        <time>2015-06-03T13:15:28Z</time>
      </trkpt>
      <trkpt lat="43.41234" lon="6.13895">
        <ele>238.19999694824</ele>
        <time>2015-06-03T13:15:34Z</time>
      </trkpt>
      <trkpt lat="43.41241" lon="6.13892">
        <ele>238.19999694824</ele>
        <time>2015-06-03T13:15:39Z</time>
      </trkpt>
      <trkpt lat="43.41241" lon="6.13891">
        <ele>239</ele>
        <time>2015-06-03T13:15:43Z</time>
      </trkpt>
      <trkpt lat="43.41241" lon="6.1389">
        <ele>239.19999694824</ele>
        <time>2015-06-03T13:15:47Z</time>
      </trkpt>
      <trkpt lat="43.41241" lon="6.1389">
        <ele>239.39999389648</ele>
        <time>2015-06-03T13:15:55Z</time>
      </trkpt>
      <trkpt lat="43.41241" lon="6.1389">
        <ele>239.19999694824</ele>
        <time>2015-06-03T13:16:05Z</time>
      </trkpt>
      <trkpt lat="43.41241" lon="6.1389">
        <ele>239.19999694824</ele>
        <time>2015-06-03T13:16:14Z</time>
      </trkpt>
      <trkpt lat="43.41241" lon="6.13891">
        <ele>239.19999694824</ele>
        <time>2015-06-03T13:16:21Z</time>
      </trkpt>
      <trkpt lat="43.41243" lon="6.13891">
        <ele>239.39999389648</ele>
        <time>2015-06-03T13:16:24Z</time>
      </trkpt>
      <trkpt lat="43.41244" lon="6.13891">
        <ele>239.60000610352</ele>
        <time>2015-06-03T13:16:31Z</time>
      </trkpt>
      <trkpt lat="43.41244" lon="6.13892">
        <ele>239.60000610352</ele>
        <time>2015-06-03T13:16:34Z</time>
      </trkpt>
      <trkpt lat="43.41244" lon="6.13892">
        <ele>239.60000610352</ele>
        <time>2015-06-03T13:16:50Z</time>
      </trkpt>
      <trkpt lat="43.41244" lon="6.13892">
        <ele>239.60000610352</ele>
        <time>2015-06-03T13:17:00Z</time>
      </trkpt>
      <trkpt lat="43.41243" lon="6.13892">
        <ele>239.60000610352</ele>
        <time>2015-06-03T13:17:14Z</time>
      </trkpt>
      <trkpt lat="43.41243" lon="6.13892">
        <ele>239.60000610352</ele>
        <time>2015-06-03T13:17:18Z</time>
      </trkpt>
      <trkpt lat="43.41243" lon="6.13892">
        <ele>239.60000610352</ele>
        <time>2015-06-03T13:17:24Z</time>
      </trkpt>
      <trkpt lat="43.41244" lon="6.13891">
        <ele>239.39999389648</ele>
        <time>2015-06-03T13:17:42Z</time>
      </trkpt>
      <trkpt lat="43.41244" lon="6.13891">
        <ele>239.39999389648</ele>
        <time>2015-06-03T13:18:07Z</time>
      </trkpt>
      <trkpt lat="43.41242" lon="6.1389">
        <ele>239.60000610352</ele>
        <time>2015-06-03T13:18:41Z</time>
      </trkpt>
      <trkpt lat="43.41242" lon="6.13889">
        <ele>239.60000610352</ele>
        <time>2015-06-03T13:18:43Z</time>
      </trkpt>
      <trkpt lat="43.41243" lon="6.13882">
        <ele>239.39999389648</ele>
        <time>2015-06-03T13:18:52Z</time>
      </trkpt>
      <trkpt lat="43.41244" lon="6.13881">
        <ele>239.39999389648</ele>
        <time>2015-06-03T13:18:53Z</time>
      </trkpt>
      <trkpt lat="43.41249" lon="6.13874">
        <ele>239</ele>
        <time>2015-06-03T13:18:57Z</time>
      </trkpt>
      <trkpt lat="43.4125" lon="6.13871">
        <ele>238.60000610352</ele>
        <time>2015-06-03T13:18:58Z</time>
      </trkpt>
      <trkpt lat="43.41252" lon="6.13861">
        <ele>237.39999389648</ele>
        <time>2015-06-03T13:19:00Z</time>
      </trkpt>
      <trkpt lat="43.41253" lon="6.13856">
        <ele>237.39999389648</ele>
        <time>2015-06-03T13:19:01Z</time>
      </trkpt>
      <trkpt lat="43.41254" lon="6.13849">
        <ele>238.60000610352</ele>
        <time>2015-06-03T13:19:03Z</time>
      </trkpt>
      <trkpt lat="43.41256" lon="6.13842">
        <ele>237.60000610352</ele>
        <time>2015-06-03T13:19:06Z</time>
      </trkpt>
      <trkpt lat="43.41256" lon="6.13839">
        <ele>237.60000610352</ele>
        <time>2015-06-03T13:19:07Z</time>
      </trkpt>
      <trkpt lat="43.41257" lon="6.13822">
        <ele>237.60000610352</ele>
        <time>2015-06-03T13:19:12Z</time>
      </trkpt>
      <trkpt lat="43.41259" lon="6.13805">
        <ele>238.19999694824</ele>
        <time>2015-06-03T13:19:17Z</time>
      </trkpt>
      <trkpt lat="43.4126" lon="6.138">
        <ele>238</ele>
        <time>2015-06-03T13:19:19Z</time>
      </trkpt>
      <trkpt lat="43.41261" lon="6.13786">
        <ele>238</ele>
        <time>2015-06-03T13:19:26Z</time>
      </trkpt>
      <trkpt lat="43.41264" lon="6.13773">
        <ele>238</ele>
        <time>2015-06-03T13:19:31Z</time>
      </trkpt>
      <trkpt lat="43.41264" lon="6.13769">
        <ele>238.39999389648</ele>
        <time>2015-06-03T13:19:33Z</time>
      </trkpt>
      <trkpt lat="43.41264" lon="6.13767">
        <ele>238.80000305176</ele>
        <time>2015-06-03T13:19:34Z</time>
      </trkpt>
      <trkpt lat="43.41264" lon="6.13763">
        <ele>239</ele>
        <time>2015-06-03T13:19:37Z</time>
      </trkpt>
      <trkpt lat="43.41264" lon="6.13763">
        <ele>239.19999694824</ele>
        <time>2015-06-03T13:19:39Z</time>
      </trkpt>
      <trkpt lat="43.41265" lon="6.13754">
        <ele>240</ele>
        <time>2015-06-03T13:19:51Z</time>
      </trkpt>
      <trkpt lat="43.41265" lon="6.13754">
        <ele>240.39999389648</ele>
        <time>2015-06-03T13:19:55Z</time>
      </trkpt>
      <trkpt lat="43.41265" lon="6.13753">
        <ele>241</ele>
        <time>2015-06-03T13:20:03Z</time>
      </trkpt>
      <trkpt lat="43.41265" lon="6.13753">
        <ele>241.60000610352</ele>
        <time>2015-06-03T13:20:13Z</time>
      </trkpt>
      <trkpt lat="43.41266" lon="6.13753">
        <ele>241.39999389648</ele>
        <time>2015-06-03T13:20:16Z</time>
      </trkpt>
      <trkpt lat="43.41266" lon="6.1375">
        <ele>241.60000610352</ele>
        <time>2015-06-03T13:20:22Z</time>
      </trkpt>
      <trkpt lat="43.41267" lon="6.13749">
        <ele>242.19999694824</ele>
        <time>2015-06-03T13:20:29Z</time>
      </trkpt>
      <trkpt lat="43.41267" lon="6.13747">
        <ele>242.39999389648</ele>
        <time>2015-06-03T13:20:33Z</time>
      </trkpt>
      <trkpt lat="43.41268" lon="6.13745">
        <ele>243</ele>
        <time>2015-06-03T13:20:36Z</time>
      </trkpt>
      <trkpt lat="43.41269" lon="6.13744">
        <ele>243.60000610352</ele>
        <time>2015-06-03T13:20:40Z</time>
      </trkpt>
      <trkpt lat="43.41271" lon="6.1374">
        <ele>244.19999694824</ele>
        <time>2015-06-03T13:20:46Z</time>
      </trkpt>
      <trkpt lat="43.41272" lon="6.13738">
        <ele>244.80000305176</ele>
        <time>2015-06-03T13:20:49Z</time>
      </trkpt>
      <trkpt lat="43.41272" lon="6.13732">
        <ele>245.80000305176</ele>
        <time>2015-06-03T13:20:55Z</time>
      </trkpt>
      <trkpt lat="43.41272" lon="6.1373">
        <ele>245.80000305176</ele>
        <time>2015-06-03T13:20:57Z</time>
      </trkpt>
      <trkpt lat="43.41272" lon="6.13723">
        <ele>246.80000305176</ele>
        <time>2015-06-03T13:21:06Z</time>
      </trkpt>
      <trkpt lat="43.41271" lon="6.13721">
        <ele>247</ele>
        <time>2015-06-03T13:21:14Z</time>
      </trkpt>
      <trkpt lat="43.41272" lon="6.13714">
        <ele>247.60000610352</ele>
        <time>2015-06-03T13:21:18Z</time>
      </trkpt>
      <trkpt lat="43.41273" lon="6.13709">
        <ele>248</ele>
        <time>2015-06-03T13:21:20Z</time>
      </trkpt>
      <trkpt lat="43.41275" lon="6.13695">
        <ele>248.60000610352</ele>
        <time>2015-06-03T13:21:27Z</time>
      </trkpt>
      <trkpt lat="43.41277" lon="6.13684">
        <ele>249</ele>
        <time>2015-06-03T13:21:32Z</time>
      </trkpt>
      <trkpt lat="43.41277" lon="6.13678">
        <ele>249.19999694824</ele>
        <time>2015-06-03T13:21:35Z</time>
      </trkpt>
      <trkpt lat="43.41278" lon="6.13669">
        <ele>250</ele>
        <time>2015-06-03T13:21:39Z</time>
      </trkpt>
      <trkpt lat="43.41279" lon="6.13644">
        <ele>249.80000305176</ele>
        <time>2015-06-03T13:21:50Z</time>
      </trkpt>
      <trkpt lat="43.4128" lon="6.13629">
        <ele>250.60000610352</ele>
        <time>2015-06-03T13:21:57Z</time>
      </trkpt>
      <trkpt lat="43.41282" lon="6.1362">
        <ele>251</ele>
        <time>2015-06-03T13:22:01Z</time>
      </trkpt>
      <trkpt lat="43.41283" lon="6.13614">
        <ele>251.60000610352</ele>
        <time>2015-06-03T13:22:04Z</time>
      </trkpt>
      <trkpt lat="43.41283" lon="6.13602">
        <ele>252.19999694824</ele>
        <time>2015-06-03T13:22:10Z</time>
      </trkpt>
      <trkpt lat="43.41283" lon="6.13595">
        <ele>252.39999389648</ele>
        <time>2015-06-03T13:22:13Z</time>
      </trkpt>
      <trkpt lat="43.41282" lon="6.1358">
        <ele>253.80000305176</ele>
        <time>2015-06-03T13:22:21Z</time>
      </trkpt>
      <trkpt lat="43.41282" lon="6.13573">
        <ele>254.80000305176</ele>
        <time>2015-06-03T13:22:25Z</time>
      </trkpt>
      <trkpt lat="43.41282" lon="6.13562">
        <ele>255.80000305176</ele>
        <time>2015-06-03T13:22:31Z</time>
      </trkpt>
      <trkpt lat="43.41282" lon="6.13555">
        <ele>256.79998779297</ele>
        <time>2015-06-03T13:22:35Z</time>
      </trkpt>
      <trkpt lat="43.41283" lon="6.13545">
        <ele>257.20001220703</ele>
        <time>2015-06-03T13:22:41Z</time>
      </trkpt>
      <trkpt lat="43.41285" lon="6.13529">
        <ele>257.79998779297</ele>
        <time>2015-06-03T13:22:50Z</time>
      </trkpt>
      <trkpt lat="43.41288" lon="6.13513">
        <ele>259</ele>
        <time>2015-06-03T13:22:59Z</time>
      </trkpt>
      <trkpt lat="43.41289" lon="6.13512">
        <ele>259.39999389648</ele>
        <time>2015-06-03T13:23:00Z</time>
      </trkpt>
      <trkpt lat="43.4129" lon="6.13508">
        <ele>259.60000610352</ele>
        <time>2015-06-03T13:23:03Z</time>
      </trkpt>
      <trkpt lat="43.4129" lon="6.13502">
        <ele>260</ele>
        <time>2015-06-03T13:23:06Z</time>
      </trkpt>
      <trkpt lat="43.41291" lon="6.13488">
        <ele>260</ele>
        <time>2015-06-03T13:23:14Z</time>
      </trkpt>
      <trkpt lat="43.41294" lon="6.13474">
        <ele>260.60000610352</ele>
        <time>2015-06-03T13:23:21Z</time>
      </trkpt>
      <trkpt lat="43.41297" lon="6.13466">
        <ele>261</ele>
        <time>2015-06-03T13:23:26Z</time>
      </trkpt>
      <trkpt lat="43.41299" lon="6.1346">
        <ele>260.79998779297</ele>
        <time>2015-06-03T13:23:29Z</time>
      </trkpt>
      <trkpt lat="43.41301" lon="6.13453">
        <ele>260.79998779297</ele>
        <time>2015-06-03T13:23:33Z</time>
      </trkpt>
      <trkpt lat="43.41302" lon="6.1345">
        <ele>260.79998779297</ele>
        <time>2015-06-03T13:23:35Z</time>
      </trkpt>
      <trkpt lat="43.41302" lon="6.1345">
        <ele>261</ele>
        <time>2015-06-03T13:23:36Z</time>
      </trkpt>
      <trkpt lat="43.41302" lon="6.1345">
        <ele>261</ele>
        <time>2015-06-03T13:23:48Z</time>
      </trkpt>
      <trkpt lat="43.41302" lon="6.1345">
        <ele>261</ele>
        <time>2015-06-03T13:23:58Z</time>
      </trkpt>
      <trkpt lat="43.41302" lon="6.1345">
        <ele>260.79998779297</ele>
        <time>2015-06-03T13:25:33Z</time>
      </trkpt>
      <trkpt lat="43.41302" lon="6.1345">
        <ele>260.79998779297</ele>
        <time>2015-06-03T13:25:42Z</time>
      </trkpt>
      <trkpt lat="43.41302" lon="6.1345">
        <ele>260.79998779297</ele>
        <time>2015-06-03T13:25:44Z</time>
      </trkpt>
      <trkpt lat="43.41302" lon="6.1345">
        <ele>261</ele>
        <time>2015-06-03T13:26:02Z</time>
      </trkpt>
      <trkpt lat="43.41302" lon="6.1345">
        <ele>261.20001220703</ele>
        <time>2015-06-03T13:26:10Z</time>
      </trkpt>
      <trkpt lat="43.41302" lon="6.1345">
        <ele>260.79998779297</ele>
        <time>2015-06-03T13:26:39Z</time>
      </trkpt>
      <trkpt lat="43.41302" lon="6.1345">
        <ele>261.20001220703</ele>
        <time>2015-06-03T13:27:02Z</time>
      </trkpt>
      <trkpt lat="43.41302" lon="6.1345">
        <ele>261.20001220703</ele>
        <time>2015-06-03T13:27:12Z</time>
      </trkpt>
      <trkpt lat="43.41302" lon="6.13449">
        <ele>261.20001220703</ele>
        <time>2015-06-03T13:27:14Z</time>
      </trkpt>
      <trkpt lat="43.41303" lon="6.13446">
        <ele>261.20001220703</ele>
        <time>2015-06-03T13:27:16Z</time>
      </trkpt>
      <trkpt lat="43.41304" lon="6.13443">
        <ele>261.39999389648</ele>
        <time>2015-06-03T13:27:21Z</time>
      </trkpt>
      <trkpt lat="43.4131" lon="6.13432">
        <ele>261</ele>
        <time>2015-06-03T13:27:27Z</time>
      </trkpt>
      <trkpt lat="43.41317" lon="6.13413">
        <ele>260.39999389648</ele>
        <time>2015-06-03T13:27:33Z</time>
      </trkpt>
      <trkpt lat="43.41323" lon="6.13389">
        <ele>259.79998779297</ele>
        <time>2015-06-03T13:27:39Z</time>
      </trkpt>
      <trkpt lat="43.41323" lon="6.13384">
        <ele>259.60000610352</ele>
        <time>2015-06-03T13:27:40Z</time>
      </trkpt>
      <trkpt lat="43.41325" lon="6.13359">
        <ele>259</ele>
        <time>2015-06-03T13:27:46Z</time>
      </trkpt>
      <trkpt lat="43.41326" lon="6.13342">
        <ele>259.20001220703</ele>
        <time>2015-06-03T13:27:51Z</time>
      </trkpt>
      <trkpt lat="43.41325" lon="6.13328">
        <ele>259.20001220703</ele>
        <time>2015-06-03T13:27:55Z</time>
      </trkpt>
      <trkpt lat="43.41326" lon="6.13324">
        <ele>259</ele>
        <time>2015-06-03T13:27:56Z</time>
      </trkpt>
      <trkpt lat="43.4133" lon="6.13308">
        <ele>259</ele>
        <time>2015-06-03T13:28:00Z</time>
      </trkpt>
      <trkpt lat="43.41333" lon="6.13289">
        <ele>259.20001220703</ele>
        <time>2015-06-03T13:28:05Z</time>
      </trkpt>
      <trkpt lat="43.41335" lon="6.13268">
        <ele>259.79998779297</ele>
        <time>2015-06-03T13:28:10Z</time>
      </trkpt>
      <trkpt lat="43.41337" lon="6.13248">
        <ele>259.39999389648</ele>
        <time>2015-06-03T13:28:15Z</time>
      </trkpt>
      <trkpt lat="43.41334" lon="6.13229">
        <ele>260.20001220703</ele>
        <time>2015-06-03T13:28:19Z</time>
      </trkpt>
      <trkpt lat="43.41336" lon="6.13222">
        <ele>260.39999389648</ele>
        <time>2015-06-03T13:28:21Z</time>
      </trkpt>
      <trkpt lat="43.41339" lon="6.13215">
        <ele>260.39999389648</ele>
        <time>2015-06-03T13:28:23Z</time>
      </trkpt>
      <trkpt lat="43.41344" lon="6.13202">
        <ele>259.79998779297</ele>
        <time>2015-06-03T13:28:26Z</time>
      </trkpt>
      <trkpt lat="43.41351" lon="6.1318">
        <ele>258.79998779297</ele>
        <time>2015-06-03T13:28:30Z</time>
      </trkpt>
      <trkpt lat="43.41352" lon="6.13173">
        <ele>258.60000610352</ele>
        <time>2015-06-03T13:28:31Z</time>
      </trkpt>
      <trkpt lat="43.41353" lon="6.13155">
        <ele>258.60000610352</ele>
        <time>2015-06-03T13:28:34Z</time>
      </trkpt>
      <trkpt lat="43.41352" lon="6.13132">
        <ele>259</ele>
        <time>2015-06-03T13:28:39Z</time>
      </trkpt>
      <trkpt lat="43.41352" lon="6.13129">
        <ele>259</ele>
        <time>2015-06-03T13:28:40Z</time>
      </trkpt>
      <trkpt lat="43.41355" lon="6.13118">
        <ele>259.20001220703</ele>
        <time>2015-06-03T13:28:43Z</time>
      </trkpt>
      <trkpt lat="43.41355" lon="6.13114">
        <ele>259.20001220703</ele>
        <time>2015-06-03T13:28:44Z</time>
      </trkpt>
      <trkpt lat="43.4136" lon="6.13096">
        <ele>260</ele>
        <time>2015-06-03T13:28:49Z</time>
      </trkpt>
      <trkpt lat="43.4136" lon="6.13095">
        <ele>260.20001220703</ele>
        <time>2015-06-03T13:28:50Z</time>
      </trkpt>
      <trkpt lat="43.41361" lon="6.13094">
        <ele>260.60000610352</ele>
        <time>2015-06-03T13:28:55Z</time>
      </trkpt>
      <trkpt lat="43.41361" lon="6.1309">
        <ele>261</ele>
        <time>2015-06-03T13:28:59Z</time>
      </trkpt>
      <trkpt lat="43.41362" lon="6.13087">
        <ele>261.20001220703</ele>
        <time>2015-06-03T13:29:02Z</time>
      </trkpt>
      <trkpt lat="43.41362" lon="6.13085">
        <ele>261.20001220703</ele>
        <time>2015-06-03T13:29:04Z</time>
      </trkpt>
      <trkpt lat="43.41359" lon="6.13079">
        <ele>261</ele>
        <time>2015-06-03T13:29:09Z</time>
      </trkpt>
      <trkpt lat="43.41357" lon="6.13063">
        <ele>261.60000610352</ele>
        <time>2015-06-03T13:29:14Z</time>
      </trkpt>
      <trkpt lat="43.41357" lon="6.13051">
        <ele>262</ele>
        <time>2015-06-03T13:29:18Z</time>
      </trkpt>
      <trkpt lat="43.41355" lon="6.13045">
        <ele>261.79998779297</ele>
        <time>2015-06-03T13:29:20Z</time>
      </trkpt>
      <trkpt lat="43.41352" lon="6.13026">
        <ele>262.79998779297</ele>
        <time>2015-06-03T13:29:26Z</time>
      </trkpt>
      <trkpt lat="43.41353" lon="6.1302">
        <ele>263</ele>
        <time>2015-06-03T13:29:29Z</time>
      </trkpt>
      <trkpt lat="43.41355" lon="6.13016">
        <ele>263.20001220703</ele>
        <time>2015-06-03T13:29:31Z</time>
      </trkpt>
      <trkpt lat="43.41356" lon="6.13015">
        <ele>263.39999389648</ele>
        <time>2015-06-03T13:29:32Z</time>
      </trkpt>
      <trkpt lat="43.4136" lon="6.13005">
        <ele>264</ele>
        <time>2015-06-03T13:29:36Z</time>
      </trkpt>
      <trkpt lat="43.41361" lon="6.13002">
        <ele>264.20001220703</ele>
        <time>2015-06-03T13:29:37Z</time>
      </trkpt>
      <trkpt lat="43.41361" lon="6.12996">
        <ele>264.39999389648</ele>
        <time>2015-06-03T13:29:39Z</time>
      </trkpt>
      <trkpt lat="43.41362" lon="6.12984">
        <ele>265.39999389648</ele>
        <time>2015-06-03T13:29:43Z</time>
      </trkpt>
      <trkpt lat="43.41362" lon="6.12974">
        <ele>265.39999389648</ele>
        <time>2015-06-03T13:29:47Z</time>
      </trkpt>
      <trkpt lat="43.41365" lon="6.1295">
        <ele>265.39999389648</ele>
        <time>2015-06-03T13:29:54Z</time>
      </trkpt>
      <trkpt lat="43.41366" lon="6.12937">
        <ele>265.39999389648</ele>
        <time>2015-06-03T13:29:59Z</time>
      </trkpt>
      <trkpt lat="43.41367" lon="6.12919">
        <ele>266</ele>
        <time>2015-06-03T13:30:06Z</time>
      </trkpt>
      <trkpt lat="43.41367" lon="6.12909">
        <ele>266.39999389648</ele>
        <time>2015-06-03T13:30:09Z</time>
      </trkpt>
      <trkpt lat="43.41365" lon="6.12898">
        <ele>266.79998779297</ele>
        <time>2015-06-03T13:30:12Z</time>
      </trkpt>
      <trkpt lat="43.41367" lon="6.1288">
        <ele>267.60000610352</ele>
        <time>2015-06-03T13:30:17Z</time>
      </trkpt>
      <trkpt lat="43.41367" lon="6.12856">
        <ele>268</ele>
        <time>2015-06-03T13:30:23Z</time>
      </trkpt>
      <trkpt lat="43.4137" lon="6.12829">
        <ele>267.60000610352</ele>
        <time>2015-06-03T13:30:29Z</time>
      </trkpt>
      <trkpt lat="43.41377" lon="6.12808">
        <ele>267.20001220703</ele>
        <time>2015-06-03T13:30:33Z</time>
      </trkpt>
      <trkpt lat="43.41378" lon="6.12803">
        <ele>267.20001220703</ele>
        <time>2015-06-03T13:30:34Z</time>
      </trkpt>
      <trkpt lat="43.41383" lon="6.12791">
        <ele>266.79998779297</ele>
        <time>2015-06-03T13:30:36Z</time>
      </trkpt>
      <trkpt lat="43.41385" lon="6.12784">
        <ele>266.60000610352</ele>
        <time>2015-06-03T13:30:37Z</time>
      </trkpt>
      <trkpt lat="43.4139" lon="6.12765">
        <ele>266</ele>
        <time>2015-06-03T13:30:40Z</time>
      </trkpt>
      <trkpt lat="43.414" lon="6.12722">
        <ele>265.79998779297</ele>
        <time>2015-06-03T13:30:46Z</time>
      </trkpt>
      <trkpt lat="43.41405" lon="6.12687">
        <ele>265.39999389648</ele>
        <time>2015-06-03T13:30:51Z</time>
      </trkpt>
      <trkpt lat="43.41406" lon="6.1268">
        <ele>265.39999389648</ele>
        <time>2015-06-03T13:30:52Z</time>
      </trkpt>
      <trkpt lat="43.41411" lon="6.12625">
        <ele>264.39999389648</ele>
        <time>2015-06-03T13:30:59Z</time>
      </trkpt>
      <trkpt lat="43.41416" lon="6.12581">
        <ele>263.79998779297</ele>
        <time>2015-06-03T13:31:05Z</time>
      </trkpt>
      <trkpt lat="43.41418" lon="6.12561">
        <ele>263.60000610352</ele>
        <time>2015-06-03T13:31:08Z</time>
      </trkpt>
      <trkpt lat="43.41423" lon="6.12532">
        <ele>263.39999389648</ele>
        <time>2015-06-03T13:31:12Z</time>
      </trkpt>
      <trkpt lat="43.41425" lon="6.12518">
        <ele>263.39999389648</ele>
        <time>2015-06-03T13:31:14Z</time>
      </trkpt>
      <trkpt lat="43.41424" lon="6.12495">
        <ele>262.79998779297</ele>
        <time>2015-06-03T13:31:17Z</time>
      </trkpt>
      <trkpt lat="43.41424" lon="6.12488">
        <ele>263</ele>
        <time>2015-06-03T13:31:18Z</time>
      </trkpt>
      <trkpt lat="43.41425" lon="6.12479">
        <ele>262.79998779297</ele>
        <time>2015-06-03T13:31:19Z</time>
      </trkpt>
      <trkpt lat="43.41428" lon="6.12465">
        <ele>262.60000610352</ele>
        <time>2015-06-03T13:31:21Z</time>
      </trkpt>
      <trkpt lat="43.41429" lon="6.1246">
        <ele>262.20001220703</ele>
        <time>2015-06-03T13:31:22Z</time>
      </trkpt>
      <trkpt lat="43.41428" lon="6.12456">
        <ele>261.39999389648</ele>
        <time>2015-06-03T13:31:25Z</time>
      </trkpt>
      <trkpt lat="43.41427" lon="6.12456">
        <ele>261.60000610352</ele>
        <time>2015-06-03T13:31:38Z</time>
      </trkpt>
      <trkpt lat="43.41428" lon="6.12455">
        <ele>261.39999389648</ele>
        <time>2015-06-03T13:31:47Z</time>
      </trkpt>
      <trkpt lat="43.41427" lon="6.12454">
        <ele>261.60000610352</ele>
        <time>2015-06-03T13:32:13Z</time>
      </trkpt>
      <trkpt lat="43.41427" lon="6.12454">
        <ele>261.60000610352</ele>
        <time>2015-06-03T13:32:23Z</time>
      </trkpt>
      <trkpt lat="43.41427" lon="6.12454">
        <ele>261</ele>
        <time>2015-06-03T13:32:31Z</time>
      </trkpt>
      <trkpt lat="43.41427" lon="6.12453">
        <ele>261.20001220703</ele>
        <time>2015-06-03T13:32:50Z</time>
      </trkpt>
      <trkpt lat="43.41427" lon="6.12454">
        <ele>261.20001220703</ele>
        <time>2015-06-03T13:33:04Z</time>
      </trkpt>
      <trkpt lat="43.41427" lon="6.12453">
        <ele>261</ele>
        <time>2015-06-03T13:33:30Z</time>
      </trkpt>
      <trkpt lat="43.41427" lon="6.12453">
        <ele>261.20001220703</ele>
        <time>2015-06-03T13:33:45Z</time>
      </trkpt>
      <trkpt lat="43.41427" lon="6.12453">
        <ele>260.79998779297</ele>
        <time>2015-06-03T13:33:49Z</time>
      </trkpt>
      <trkpt lat="43.41427" lon="6.12453">
        <ele>260.79998779297</ele>
        <time>2015-06-03T13:34:24Z</time>
      </trkpt>
      <trkpt lat="43.41427" lon="6.12453">
        <ele>261</ele>
        <time>2015-06-03T13:34:52Z</time>
      </trkpt>
      <trkpt lat="43.41427" lon="6.12453">
        <ele>261</ele>
        <time>2015-06-03T13:35:00Z</time>
      </trkpt>
      <trkpt lat="43.41427" lon="6.12453">
        <ele>261.39999389648</ele>
        <time>2015-06-03T13:35:38Z</time>
      </trkpt>
      <trkpt lat="43.41427" lon="6.12453">
        <ele>260.60000610352</ele>
        <time>2015-06-03T13:35:53Z</time>
      </trkpt>
      <trkpt lat="43.41427" lon="6.12453">
        <ele>261</ele>
        <time>2015-06-03T13:36:02Z</time>
      </trkpt>
      <trkpt lat="43.41427" lon="6.12453">
        <ele>261</ele>
        <time>2015-06-03T13:36:10Z</time>
      </trkpt>
      <trkpt lat="43.41427" lon="6.12453">
        <ele>260.79998779297</ele>
        <time>2015-06-03T13:36:21Z</time>
      </trkpt>
      <trkpt lat="43.41427" lon="6.12453">
        <ele>260.60000610352</ele>
        <time>2015-06-03T13:36:25Z</time>
      </trkpt>
      <trkpt lat="43.41428" lon="6.12453">
        <ele>260.79998779297</ele>
        <time>2015-06-03T13:36:32Z</time>
      </trkpt>
      <trkpt lat="43.41428" lon="6.12452">
        <ele>260.79998779297</ele>
        <time>2015-06-03T13:37:11Z</time>
      </trkpt>
      <trkpt lat="43.41428" lon="6.12452">
        <ele>260.79998779297</ele>
        <time>2015-06-03T13:37:54Z</time>
      </trkpt>
      <trkpt lat="43.41428" lon="6.12452">
        <ele>261</ele>
        <time>2015-06-03T13:38:05Z</time>
      </trkpt>
      <trkpt lat="43.41428" lon="6.12452">
        <ele>261.20001220703</ele>
        <time>2015-06-03T13:38:17Z</time>
      </trkpt>
      <trkpt lat="43.41428" lon="6.12452">
        <ele>261.20001220703</ele>
        <time>2015-06-03T13:38:38Z</time>
      </trkpt>
      <trkpt lat="43.41428" lon="6.12453">
        <ele>261</ele>
        <time>2015-06-03T13:38:49Z</time>
      </trkpt>
      <trkpt lat="43.41427" lon="6.12453">
        <ele>261.39999389648</ele>
        <time>2015-06-03T13:39:01Z</time>
      </trkpt>
      <trkpt lat="43.41426" lon="6.12452">
        <ele>261.20001220703</ele>
        <time>2015-06-03T13:39:11Z</time>
      </trkpt>
      <trkpt lat="43.41427" lon="6.12452">
        <ele>261</ele>
        <time>2015-06-03T13:39:20Z</time>
      </trkpt>
      <trkpt lat="43.41427" lon="6.12452">
        <ele>261</ele>
        <time>2015-06-03T13:39:22Z</time>
      </trkpt>
      <trkpt lat="43.41426" lon="6.12452">
        <ele>261</ele>
        <time>2015-06-03T13:39:32Z</time>
      </trkpt>
      <trkpt lat="43.41427" lon="6.12452">
        <ele>261</ele>
        <time>2015-06-03T13:39:40Z</time>
      </trkpt>
      <trkpt lat="43.41427" lon="6.12452">
        <ele>261.20001220703</ele>
        <time>2015-06-03T13:39:51Z</time>
      </trkpt>
      <trkpt lat="43.41427" lon="6.12451">
        <ele>261.20001220703</ele>
        <time>2015-06-03T13:40:01Z</time>
      </trkpt>
      <trkpt lat="43.41428" lon="6.12451">
        <ele>261</ele>
        <time>2015-06-03T13:40:20Z</time>
      </trkpt>
      <trkpt lat="43.41427" lon="6.12451">
        <ele>261.20001220703</ele>
        <time>2015-06-03T13:40:24Z</time>
      </trkpt>
      <trkpt lat="43.41428" lon="6.12451">
        <ele>261</ele>
        <time>2015-06-03T13:40:31Z</time>
      </trkpt>
      <trkpt lat="43.41427" lon="6.12451">
        <ele>261.20001220703</ele>
        <time>2015-06-03T13:40:40Z</time>
      </trkpt>
      <trkpt lat="43.41427" lon="6.12451">
        <ele>261.20001220703</ele>
        <time>2015-06-03T13:40:42Z</time>
      </trkpt>
      <trkpt lat="43.41427" lon="6.12451">
        <ele>261.20001220703</ele>
        <time>2015-06-03T13:40:44Z</time>
      </trkpt>
      <trkpt lat="43.41427" lon="6.12451">
        <ele>261.39999389648</ele>
        <time>2015-06-03T13:41:00Z</time>
      </trkpt>
      <trkpt lat="43.41428" lon="6.12451">
        <ele>261.79998779297</ele>
        <time>2015-06-03T13:41:24Z</time>
      </trkpt>
      <trkpt lat="43.41429" lon="6.1245">
        <ele>262.39999389648</ele>
        <time>2015-06-03T13:41:31Z</time>
      </trkpt>
      <trkpt lat="43.4143" lon="6.12442">
        <ele>262.20001220703</ele>
        <time>2015-06-03T13:41:37Z</time>
      </trkpt>
      <trkpt lat="43.4143" lon="6.12441">
        <ele>262</ele>
        <time>2015-06-03T13:41:45Z</time>
      </trkpt>
      <trkpt lat="43.41431" lon="6.1244">
        <ele>262.39999389648</ele>
        <time>2015-06-03T13:41:58Z</time>
      </trkpt>
      <trkpt lat="43.41431" lon="6.1244">
        <ele>262.39999389648</ele>
        <time>2015-06-03T13:42:10Z</time>
      </trkpt>
      <trkpt lat="43.4143" lon="6.12442">
        <ele>262.39999389648</ele>
        <time>2015-06-03T13:42:19Z</time>
      </trkpt>
      <trkpt lat="43.41429" lon="6.12442">
        <ele>262.39999389648</ele>
        <time>2015-06-03T13:42:20Z</time>
      </trkpt>
      <trkpt lat="43.41428" lon="6.12442">
        <ele>262.60000610352</ele>
        <time>2015-06-03T13:42:28Z</time>
      </trkpt>
      <trkpt lat="43.41429" lon="6.12441">
        <ele>262.60000610352</ele>
        <time>2015-06-03T13:42:32Z</time>
      </trkpt>
      <trkpt lat="43.41428" lon="6.12441">
        <ele>262.60000610352</ele>
        <time>2015-06-03T13:43:21Z</time>
      </trkpt>
      <trkpt lat="43.41428" lon="6.12441">
        <ele>262.20001220703</ele>
        <time>2015-06-03T13:45:06Z</time>
      </trkpt>
      <trkpt lat="43.41428" lon="6.12441">
        <ele>262</ele>
        <time>2015-06-03T13:45:27Z</time>
      </trkpt>
      <trkpt lat="43.41428" lon="6.12442">
        <ele>263</ele>
        <time>2015-06-03T13:51:56Z</time>
      </trkpt>
      <trkpt lat="43.41429" lon="6.12443">
        <ele>263.20001220703</ele>
        <time>2015-06-03T13:52:14Z</time>
      </trkpt>
      <trkpt lat="43.4143" lon="6.12441">
        <ele>263.20001220703</ele>
        <time>2015-06-03T13:52:21Z</time>
      </trkpt>
      <trkpt lat="43.41436" lon="6.12417">
        <ele>262.60000610352</ele>
        <time>2015-06-03T13:52:37Z</time>
      </trkpt>
      <trkpt lat="43.41442" lon="6.12392">
        <ele>262.39999389648</ele>
        <time>2015-06-03T13:52:44Z</time>
      </trkpt>
      <trkpt lat="43.41447" lon="6.12374">
        <ele>262.60000610352</ele>
        <time>2015-06-03T13:52:48Z</time>
      </trkpt>
      <trkpt lat="43.41455" lon="6.12347">
        <ele>262.20001220703</ele>
        <time>2015-06-03T13:52:53Z</time>
      </trkpt>
      <trkpt lat="43.41456" lon="6.12341">
        <ele>262.20001220703</ele>
        <time>2015-06-03T13:52:54Z</time>
      </trkpt>
      <trkpt lat="43.41465" lon="6.12306">
        <ele>262</ele>
        <time>2015-06-03T13:53:00Z</time>
      </trkpt>
      <trkpt lat="43.41465" lon="6.12301">
        <ele>262.20001220703</ele>
        <time>2015-06-03T13:53:01Z</time>
      </trkpt>
      <trkpt lat="43.41469" lon="6.1228">
        <ele>263.20001220703</ele>
        <time>2015-06-03T13:53:05Z</time>
      </trkpt>
      <trkpt lat="43.4147" lon="6.12275">
        <ele>263.39999389648</ele>
        <time>2015-06-03T13:53:06Z</time>
      </trkpt>
      <trkpt lat="43.41475" lon="6.1225">
        <ele>263</ele>
        <time>2015-06-03T13:53:10Z</time>
      </trkpt>
      <trkpt lat="43.41478" lon="6.12231">
        <ele>263</ele>
        <time>2015-06-03T13:53:13Z</time>
      </trkpt>
      <trkpt lat="43.41479" lon="6.12224">
        <ele>263.20001220703</ele>
        <time>2015-06-03T13:53:14Z</time>
      </trkpt>
      <trkpt lat="43.41481" lon="6.12209">
        <ele>263.20001220703</ele>
        <time>2015-06-03T13:53:17Z</time>
      </trkpt>
      <trkpt lat="43.41482" lon="6.12198">
        <ele>262.79998779297</ele>
        <time>2015-06-03T13:53:19Z</time>
      </trkpt>
      <trkpt lat="43.41482" lon="6.12186">
        <ele>262.39999389648</ele>
        <time>2015-06-03T13:53:21Z</time>
      </trkpt>
      <trkpt lat="43.41482" lon="6.12154">
        <ele>262</ele>
        <time>2015-06-03T13:53:27Z</time>
      </trkpt>
      <trkpt lat="43.41482" lon="6.12146">
        <ele>261.39999389648</ele>
        <time>2015-06-03T13:53:29Z</time>
      </trkpt>
      <trkpt lat="43.41482" lon="6.12138">
        <ele>261.20001220703</ele>
        <time>2015-06-03T13:53:32Z</time>
      </trkpt>
      <trkpt lat="43.41483" lon="6.12134">
        <ele>261.20001220703</ele>
        <time>2015-06-03T13:53:37Z</time>
      </trkpt>
      <trkpt lat="43.41483" lon="6.12134">
        <ele>261.39999389648</ele>
        <time>2015-06-03T13:53:42Z</time>
      </trkpt>
      <trkpt lat="43.41483" lon="6.12134">
        <ele>261</ele>
        <time>2015-06-03T13:53:52Z</time>
      </trkpt>
      <trkpt lat="43.41483" lon="6.12134">
        <ele>260.60000610352</ele>
        <time>2015-06-03T13:54:00Z</time>
      </trkpt>
      <trkpt lat="43.41483" lon="6.12134">
        <ele>260.79998779297</ele>
        <time>2015-06-03T13:54:06Z</time>
      </trkpt>
      <trkpt lat="43.41487" lon="6.12131">
        <ele>261</ele>
        <time>2015-06-03T13:54:11Z</time>
      </trkpt>
      <trkpt lat="43.41496" lon="6.1212">
        <ele>260</ele>
        <time>2015-06-03T13:54:16Z</time>
      </trkpt>
      <trkpt lat="43.41501" lon="6.12108">
        <ele>258.60000610352</ele>
        <time>2015-06-03T13:54:19Z</time>
      </trkpt>
      <trkpt lat="43.41502" lon="6.12106">
        <ele>258.39999389648</ele>
        <time>2015-06-03T13:54:20Z</time>
      </trkpt>
      <trkpt lat="43.41505" lon="6.12096">
        <ele>258.39999389648</ele>
        <time>2015-06-03T13:54:24Z</time>
      </trkpt>
      <trkpt lat="43.41507" lon="6.12093">
        <ele>258.20001220703</ele>
        <time>2015-06-03T13:54:25Z</time>
      </trkpt>
      <trkpt lat="43.4151" lon="6.12089">
        <ele>257.60000610352</ele>
        <time>2015-06-03T13:54:27Z</time>
      </trkpt>
      <trkpt lat="43.41513" lon="6.12084">
        <ele>256.79998779297</ele>
        <time>2015-06-03T13:54:30Z</time>
      </trkpt>
      <trkpt lat="43.41515" lon="6.12082">
        <ele>256.60000610352</ele>
        <time>2015-06-03T13:54:31Z</time>
      </trkpt>
      <trkpt lat="43.41517" lon="6.12079">
        <ele>256.39999389648</ele>
        <time>2015-06-03T13:54:32Z</time>
      </trkpt>
      <trkpt lat="43.41523" lon="6.12069">
        <ele>256.20001220703</ele>
        <time>2015-06-03T13:54:34Z</time>
      </trkpt>
      <trkpt lat="43.41526" lon="6.12063">
        <ele>254.80000305176</ele>
        <time>2015-06-03T13:54:35Z</time>
      </trkpt>
      <trkpt lat="43.41529" lon="6.12056">
        <ele>253.80000305176</ele>
        <time>2015-06-03T13:54:36Z</time>
      </trkpt>
      <trkpt lat="43.41531" lon="6.12049">
        <ele>253.80000305176</ele>
        <time>2015-06-03T13:54:37Z</time>
      </trkpt>
      <trkpt lat="43.41533" lon="6.12041">
        <ele>253.60000610352</ele>
        <time>2015-06-03T13:54:38Z</time>
      </trkpt>
      <trkpt lat="43.41537" lon="6.12029">
        <ele>252.39999389648</ele>
        <time>2015-06-03T13:54:40Z</time>
      </trkpt>
      <trkpt lat="43.41541" lon="6.12022">
        <ele>251.80000305176</ele>
        <time>2015-06-03T13:54:42Z</time>
      </trkpt>
      <trkpt lat="43.41542" lon="6.1202">
        <ele>251.19999694824</ele>
        <time>2015-06-03T13:54:43Z</time>
      </trkpt>
      <trkpt lat="43.41546" lon="6.1202">
        <ele>250.39999389648</ele>
        <time>2015-06-03T13:54:45Z</time>
      </trkpt>
      <trkpt lat="43.41547" lon="6.12022">
        <ele>250</ele>
        <time>2015-06-03T13:54:46Z</time>
      </trkpt>
      <trkpt lat="43.41549" lon="6.12024">
        <ele>249</ele>
        <time>2015-06-03T13:54:49Z</time>
      </trkpt>
      <trkpt lat="43.41549" lon="6.12024">
        <ele>248.80000305176</ele>
        <time>2015-06-03T13:54:51Z</time>
      </trkpt>
      <trkpt lat="43.41549" lon="6.12024">
        <ele>248.80000305176</ele>
        <time>2015-06-03T13:55:04Z</time>
      </trkpt>
      <trkpt lat="43.41549" lon="6.12021">
        <ele>248.80000305176</ele>
        <time>2015-06-03T13:55:10Z</time>
      </trkpt>
      <trkpt lat="43.41549" lon="6.12019">
        <ele>248.80000305176</ele>
        <time>2015-06-03T13:55:11Z</time>
      </trkpt>
      <trkpt lat="43.41549" lon="6.12013">
        <ele>249.60000610352</ele>
        <time>2015-06-03T13:55:21Z</time>
      </trkpt>
      <trkpt lat="43.41549" lon="6.12012">
        <ele>249.60000610352</ele>
        <time>2015-06-03T13:55:24Z</time>
      </trkpt>
      <trkpt lat="43.41549" lon="6.12012">
        <ele>249.60000610352</ele>
        <time>2015-06-03T13:55:26Z</time>
      </trkpt>
      <trkpt lat="43.41549" lon="6.12013">
        <ele>249.80000305176</ele>
        <time>2015-06-03T13:55:28Z</time>
      </trkpt>
      <trkpt lat="43.41549" lon="6.12014">
        <ele>249.60000610352</ele>
        <time>2015-06-03T13:55:32Z</time>
      </trkpt>
      <trkpt lat="43.41548" lon="6.12014">
        <ele>249.60000610352</ele>
        <time>2015-06-03T13:55:43Z</time>
      </trkpt>
      <trkpt lat="43.41548" lon="6.12014">
        <ele>249.60000610352</ele>
        <time>2015-06-03T13:55:47Z</time>
      </trkpt>
      <trkpt lat="43.41548" lon="6.12014">
        <ele>249.60000610352</ele>
        <time>2015-06-03T13:55:52Z</time>
      </trkpt>
      <trkpt lat="43.41548" lon="6.12012">
        <ele>249.60000610352</ele>
        <time>2015-06-03T13:55:56Z</time>
      </trkpt>
      <trkpt lat="43.41548" lon="6.12013">
        <ele>249.39999389648</ele>
        <time>2015-06-03T13:55:57Z</time>
      </trkpt>
      <trkpt lat="43.41547" lon="6.12012">
        <ele>248.80000305176</ele>
        <time>2015-06-03T13:56:04Z</time>
      </trkpt>
      <trkpt lat="43.41547" lon="6.12013">
        <ele>249.19999694824</ele>
        <time>2015-06-03T13:56:06Z</time>
      </trkpt>
      <trkpt lat="43.41547" lon="6.12013">
        <ele>249</ele>
        <time>2015-06-03T13:56:11Z</time>
      </trkpt>
      <trkpt lat="43.41547" lon="6.12012">
        <ele>248.39999389648</ele>
        <time>2015-06-03T13:56:32Z</time>
      </trkpt>
      <trkpt lat="43.41547" lon="6.12012">
        <ele>248.39999389648</ele>
        <time>2015-06-03T13:56:43Z</time>
      </trkpt>
      <trkpt lat="43.41547" lon="6.12013">
        <ele>248.60000610352</ele>
        <time>2015-06-03T14:03:56Z</time>
      </trkpt>
      <trkpt lat="43.41548" lon="6.12015">
        <ele>249</ele>
        <time>2015-06-03T14:04:25Z</time>
      </trkpt>
      <trkpt lat="43.41549" lon="6.12015">
        <ele>249.19999694824</ele>
        <time>2015-06-03T14:04:26Z</time>
      </trkpt>
      <trkpt lat="43.41548" lon="6.12015">
        <ele>249</ele>
        <time>2015-06-03T14:04:31Z</time>
      </trkpt>
      <trkpt lat="43.41548" lon="6.12015">
        <ele>249</ele>
        <time>2015-06-03T14:04:44Z</time>
      </trkpt>
      <trkpt lat="43.41548" lon="6.12017">
        <ele>248.80000305176</ele>
        <time>2015-06-03T14:04:46Z</time>
      </trkpt>
      <trkpt lat="43.41548" lon="6.1202">
        <ele>248.60000610352</ele>
        <time>2015-06-03T14:04:47Z</time>
      </trkpt>
      <trkpt lat="43.41549" lon="6.12041">
        <ele>248</ele>
        <time>2015-06-03T14:04:52Z</time>
      </trkpt>
      <trkpt lat="43.4155" lon="6.12046">
        <ele>247.60000610352</ele>
        <time>2015-06-03T14:04:53Z</time>
      </trkpt>
      <trkpt lat="43.41553" lon="6.1206">
        <ele>246.39999389648</ele>
        <time>2015-06-03T14:04:56Z</time>
      </trkpt>
      <trkpt lat="43.41555" lon="6.12068">
        <ele>245.60000610352</ele>
        <time>2015-06-03T14:04:58Z</time>
      </trkpt>
      <trkpt lat="43.41556" lon="6.12072">
        <ele>245.39999389648</ele>
        <time>2015-06-03T14:04:59Z</time>
      </trkpt>
      <trkpt lat="43.41559" lon="6.12088">
        <ele>244.19999694824</ele>
        <time>2015-06-03T14:05:03Z</time>
      </trkpt>
      <trkpt lat="43.41566" lon="6.12096">
        <ele>243</ele>
        <time>2015-06-03T14:05:06Z</time>
      </trkpt>
      <trkpt lat="43.41568" lon="6.12097">
        <ele>242.80000305176</ele>
        <time>2015-06-03T14:05:07Z</time>
      </trkpt>
      <trkpt lat="43.41575" lon="6.12095">
        <ele>241.80000305176</ele>
        <time>2015-06-03T14:05:10Z</time>
      </trkpt>
      <trkpt lat="43.41577" lon="6.12093">
        <ele>241.19999694824</ele>
        <time>2015-06-03T14:05:11Z</time>
      </trkpt>
      <trkpt lat="43.41578" lon="6.1209">
        <ele>240.80000305176</ele>
        <time>2015-06-03T14:05:12Z</time>
      </trkpt>
      <trkpt lat="43.4158" lon="6.12085">
        <ele>239.39999389648</ele>
        <time>2015-06-03T14:05:14Z</time>
      </trkpt>
      <trkpt lat="43.41582" lon="6.12077">
        <ele>238.39999389648</ele>
        <time>2015-06-03T14:05:17Z</time>
      </trkpt>
      <trkpt lat="43.41582" lon="6.12074">
        <ele>237.80000305176</ele>
        <time>2015-06-03T14:05:18Z</time>
      </trkpt>
      <trkpt lat="43.41582" lon="6.12071">
        <ele>237.19999694824</ele>
        <time>2015-06-03T14:05:19Z</time>
      </trkpt>
      <trkpt lat="43.41582" lon="6.12068">
        <ele>236.80000305176</ele>
        <time>2015-06-03T14:05:20Z</time>
      </trkpt>
      <trkpt lat="43.41583" lon="6.12062">
        <ele>235.60000610352</ele>
        <time>2015-06-03T14:05:22Z</time>
      </trkpt>
      <trkpt lat="43.41584" lon="6.12055">
        <ele>234.19999694824</ele>
        <time>2015-06-03T14:05:24Z</time>
      </trkpt>
      <trkpt lat="43.41584" lon="6.12051">
        <ele>233.60000610352</ele>
        <time>2015-06-03T14:05:25Z</time>
      </trkpt>
      <trkpt lat="43.41588" lon="6.12046">
        <ele>231.19999694824</ele>
        <time>2015-06-03T14:05:28Z</time>
      </trkpt>
      <trkpt lat="43.4159" lon="6.12044">
        <ele>231</ele>
        <time>2015-06-03T14:05:29Z</time>
      </trkpt>
      <trkpt lat="43.41595" lon="6.12042">
        <ele>229.60000610352</ele>
        <time>2015-06-03T14:05:32Z</time>
      </trkpt>
      <trkpt lat="43.41598" lon="6.12045">
        <ele>228.19999694824</ele>
        <time>2015-06-03T14:05:34Z</time>
      </trkpt>
      <trkpt lat="43.41603" lon="6.12052">
        <ele>227</ele>
        <time>2015-06-03T14:05:36Z</time>
      </trkpt>
      <trkpt lat="43.41605" lon="6.12057">
        <ele>226.80000305176</ele>
        <time>2015-06-03T14:05:37Z</time>
      </trkpt>
      <trkpt lat="43.41608" lon="6.12061">
        <ele>226.19999694824</ele>
        <time>2015-06-03T14:05:38Z</time>
      </trkpt>
      <trkpt lat="43.41611" lon="6.12064">
        <ele>225.39999389648</ele>
        <time>2015-06-03T14:05:39Z</time>
      </trkpt>
      <trkpt lat="43.41617" lon="6.12068">
        <ele>223.80000305176</ele>
        <time>2015-06-03T14:05:41Z</time>
      </trkpt>
      <trkpt lat="43.41623" lon="6.12069">
        <ele>222.39999389648</ele>
        <time>2015-06-03T14:05:43Z</time>
      </trkpt>
      <trkpt lat="43.41631" lon="6.12067">
        <ele>220.80000305176</ele>
        <time>2015-06-03T14:05:46Z</time>
      </trkpt>
      <trkpt lat="43.41637" lon="6.12065">
        <ele>219.60000610352</ele>
        <time>2015-06-03T14:05:48Z</time>
      </trkpt>
      <trkpt lat="43.41643" lon="6.12061">
        <ele>218.39999389648</ele>
        <time>2015-06-03T14:05:50Z</time>
      </trkpt>
      <trkpt lat="43.41651" lon="6.12052">
        <ele>217</ele>
        <time>2015-06-03T14:05:53Z</time>
      </trkpt>
      <trkpt lat="43.41655" lon="6.12045">
        <ele>215.80000305176</ele>
        <time>2015-06-03T14:05:55Z</time>
      </trkpt>
      <trkpt lat="43.4166" lon="6.12035">
        <ele>213.80000305176</ele>
        <time>2015-06-03T14:05:58Z</time>
      </trkpt>
      <trkpt lat="43.41662" lon="6.12031">
        <ele>212.39999389648</ele>
        <time>2015-06-03T14:05:59Z</time>
      </trkpt>
      <trkpt lat="43.41666" lon="6.12026">
        <ele>211.39999389648</ele>
        <time>2015-06-03T14:06:01Z</time>
      </trkpt>
      <trkpt lat="43.41669" lon="6.1202">
        <ele>211.19999694824</ele>
        <time>2015-06-03T14:06:03Z</time>
      </trkpt>
      <trkpt lat="43.41673" lon="6.12015">
        <ele>209.80000305176</ele>
        <time>2015-06-03T14:06:05Z</time>
      </trkpt>
      <trkpt lat="43.4168" lon="6.12013">
        <ele>208</ele>
        <time>2015-06-03T14:06:08Z</time>
      </trkpt>
      <trkpt lat="43.41685" lon="6.12015">
        <ele>207</ele>
        <time>2015-06-03T14:06:10Z</time>
      </trkpt>
      <trkpt lat="43.4169" lon="6.12019">
        <ele>205.80000305176</ele>
        <time>2015-06-03T14:06:12Z</time>
      </trkpt>
      <trkpt lat="43.41692" lon="6.12021">
        <ele>205.19999694824</ele>
        <time>2015-06-03T14:06:13Z</time>
      </trkpt>
      <trkpt lat="43.41695" lon="6.12024">
        <ele>204.60000610352</ele>
        <time>2015-06-03T14:06:14Z</time>
      </trkpt>
      <trkpt lat="43.41702" lon="6.12025">
        <ele>203.39999389648</ele>
        <time>2015-06-03T14:06:16Z</time>
      </trkpt>
      <trkpt lat="43.41705" lon="6.12025">
        <ele>202.60000610352</ele>
        <time>2015-06-03T14:06:17Z</time>
      </trkpt>
      <trkpt lat="43.41706" lon="6.12024">
        <ele>201.80000305176</ele>
        <time>2015-06-03T14:06:18Z</time>
      </trkpt>
      <trkpt lat="43.41709" lon="6.12021">
        <ele>201.19999694824</ele>
        <time>2015-06-03T14:06:20Z</time>
      </trkpt>
      <trkpt lat="43.4171" lon="6.12018">
        <ele>201</ele>
        <time>2015-06-03T14:06:21Z</time>
      </trkpt>
      <trkpt lat="43.41711" lon="6.12015">
        <ele>200.39999389648</ele>
        <time>2015-06-03T14:06:22Z</time>
      </trkpt>
      <trkpt lat="43.41711" lon="6.12006">
        <ele>199.80000305176</ele>
        <time>2015-06-03T14:06:25Z</time>
      </trkpt>
      <trkpt lat="43.4171" lon="6.12003">
        <ele>199.39999389648</ele>
        <time>2015-06-03T14:06:26Z</time>
      </trkpt>
      <trkpt lat="43.41709" lon="6.11997">
        <ele>198.39999389648</ele>
        <time>2015-06-03T14:06:30Z</time>
      </trkpt>
      <trkpt lat="43.41709" lon="6.11993">
        <ele>198.39999389648</ele>
        <time>2015-06-03T14:06:32Z</time>
      </trkpt>
      <trkpt lat="43.4171" lon="6.11984">
        <ele>197.80000305176</ele>
        <time>2015-06-03T14:06:35Z</time>
      </trkpt>
      <trkpt lat="43.41711" lon="6.11969">
        <ele>197.19999694824</ele>
        <time>2015-06-03T14:06:38Z</time>
      </trkpt>
      <trkpt lat="43.41713" lon="6.11964">
        <ele>196.80000305176</ele>
        <time>2015-06-03T14:06:39Z</time>
      </trkpt>
      <trkpt lat="43.41717" lon="6.11957">
        <ele>196.19999694824</ele>
        <time>2015-06-03T14:06:41Z</time>
      </trkpt>
      <trkpt lat="43.41724" lon="6.11946">
        <ele>196.19999694824</ele>
        <time>2015-06-03T14:06:44Z</time>
      </trkpt>
      <trkpt lat="43.41731" lon="6.11933">
        <ele>195.80000305176</ele>
        <time>2015-06-03T14:06:48Z</time>
      </trkpt>
      <trkpt lat="43.41731" lon="6.1193">
        <ele>195.80000305176</ele>
        <time>2015-06-03T14:06:52Z</time>
      </trkpt>
      <trkpt lat="43.41732" lon="6.11929">
        <ele>195.60000610352</ele>
        <time>2015-06-03T14:06:56Z</time>
      </trkpt>
      <trkpt lat="43.41731" lon="6.11929">
        <ele>195.60000610352</ele>
        <time>2015-06-03T14:07:01Z</time>
      </trkpt>
      <trkpt lat="43.41731" lon="6.11929">
        <ele>195.60000610352</ele>
        <time>2015-06-03T14:07:15Z</time>
      </trkpt>
      <trkpt lat="43.41731" lon="6.11929">
        <ele>195.39999389648</ele>
        <time>2015-06-03T14:07:28Z</time>
      </trkpt>
      <trkpt lat="43.41732" lon="6.11929">
        <ele>195.19999694824</ele>
        <time>2015-06-03T14:07:44Z</time>
      </trkpt>
      <trkpt lat="43.41732" lon="6.11928">
        <ele>195.39999389648</ele>
        <time>2015-06-03T14:07:55Z</time>
      </trkpt>
      <trkpt lat="43.41733" lon="6.11928">
        <ele>195</ele>
        <time>2015-06-03T14:08:05Z</time>
      </trkpt>
      <trkpt lat="43.41733" lon="6.11928">
        <ele>195</ele>
        <time>2015-06-03T14:08:06Z</time>
      </trkpt>
      <trkpt lat="43.41733" lon="6.11927">
        <ele>195</ele>
        <time>2015-06-03T14:08:24Z</time>
      </trkpt>
      <trkpt lat="43.41733" lon="6.11927">
        <ele>194.80000305176</ele>
        <time>2015-06-03T14:08:36Z</time>
      </trkpt>
      <trkpt lat="43.41733" lon="6.11928">
        <ele>195</ele>
        <time>2015-06-03T14:09:36Z</time>
      </trkpt>
      <trkpt lat="43.41733" lon="6.11928">
        <ele>195</ele>
        <time>2015-06-03T14:09:41Z</time>
      </trkpt>
      <trkpt lat="43.41735" lon="6.11927">
        <ele>195.19999694824</ele>
        <time>2015-06-03T14:09:51Z</time>
      </trkpt>
      <trkpt lat="43.41734" lon="6.11926">
        <ele>195.80000305176</ele>
        <time>2015-06-03T14:09:53Z</time>
      </trkpt>
      <trkpt lat="43.41732" lon="6.11918">
        <ele>196.39999389648</ele>
        <time>2015-06-03T14:10:02Z</time>
      </trkpt>
      <trkpt lat="43.41732" lon="6.11917">
        <ele>196.39999389648</ele>
        <time>2015-06-03T14:10:03Z</time>
      </trkpt>
      <trkpt lat="43.4173" lon="6.11909">
        <ele>196.19999694824</ele>
        <time>2015-06-03T14:10:11Z</time>
      </trkpt>
      <trkpt lat="43.41732" lon="6.11906">
        <ele>196.60000610352</ele>
        <time>2015-06-03T14:10:19Z</time>
      </trkpt>
      <trkpt lat="43.41737" lon="6.11898">
        <ele>196.60000610352</ele>
        <time>2015-06-03T14:10:24Z</time>
      </trkpt>
      <trkpt lat="43.41742" lon="6.11885">
        <ele>196.60000610352</ele>
        <time>2015-06-03T14:10:28Z</time>
      </trkpt>
      <trkpt lat="43.41743" lon="6.11882">
        <ele>196.19999694824</ele>
        <time>2015-06-03T14:10:29Z</time>
      </trkpt>
      <trkpt lat="43.41755" lon="6.1186">
        <ele>196.19999694824</ele>
        <time>2015-06-03T14:10:35Z</time>
      </trkpt>
      <trkpt lat="43.41769" lon="6.1184">
        <ele>196.19999694824</ele>
        <time>2015-06-03T14:10:41Z</time>
      </trkpt>
      <trkpt lat="43.41784" lon="6.11827">
        <ele>196.39999389648</ele>
        <time>2015-06-03T14:10:47Z</time>
      </trkpt>
      <trkpt lat="43.41792" lon="6.11818">
        <ele>196.60000610352</ele>
        <time>2015-06-03T14:10:51Z</time>
      </trkpt>
      <trkpt lat="43.41799" lon="6.1179">
        <ele>198.19999694824</ele>
        <time>2015-06-03T14:11:00Z</time>
      </trkpt>
      <trkpt lat="43.418" lon="6.11787">
        <ele>198.39999389648</ele>
        <time>2015-06-03T14:11:01Z</time>
      </trkpt>
      <trkpt lat="43.418" lon="6.11775">
        <ele>199</ele>
        <time>2015-06-03T14:11:06Z</time>
      </trkpt>
      <trkpt lat="43.41798" lon="6.11762">
        <ele>199.60000610352</ele>
        <time>2015-06-03T14:11:11Z</time>
      </trkpt>
      <trkpt lat="43.41794" lon="6.11754">
        <ele>199.80000305176</ele>
        <time>2015-06-03T14:11:14Z</time>
      </trkpt>
      <trkpt lat="43.4178" lon="6.11733">
        <ele>199.19999694824</ele>
        <time>2015-06-03T14:11:21Z</time>
      </trkpt>
      <trkpt lat="43.41773" lon="6.11718">
        <ele>198.80000305176</ele>
        <time>2015-06-03T14:11:27Z</time>
      </trkpt>
      <trkpt lat="43.41772" lon="6.11703">
        <ele>199.80000305176</ele>
        <time>2015-06-03T14:11:34Z</time>
      </trkpt>
      <trkpt lat="43.41772" lon="6.11701">
        <ele>199.80000305176</ele>
        <time>2015-06-03T14:11:37Z</time>
      </trkpt>
      <trkpt lat="43.41772" lon="6.11701">
        <ele>199.80000305176</ele>
        <time>2015-06-03T14:11:39Z</time>
      </trkpt>
      <trkpt lat="43.41773" lon="6.11699">
        <ele>200.19999694824</ele>
        <time>2015-06-03T14:11:45Z</time>
      </trkpt>
      <trkpt lat="43.41773" lon="6.11697">
        <ele>200</ele>
        <time>2015-06-03T14:11:46Z</time>
      </trkpt>
      <trkpt lat="43.41773" lon="6.11691">
        <ele>200.39999389648</ele>
        <time>2015-06-03T14:11:53Z</time>
      </trkpt>
      <trkpt lat="43.41774" lon="6.1169">
        <ele>200.60000610352</ele>
        <time>2015-06-03T14:11:54Z</time>
      </trkpt>
      <trkpt lat="43.41774" lon="6.1169">
        <ele>200.80000305176</ele>
        <time>2015-06-03T14:11:55Z</time>
      </trkpt>
      <trkpt lat="43.41774" lon="6.11689">
        <ele>201</ele>
        <time>2015-06-03T14:12:02Z</time>
      </trkpt>
      <trkpt lat="43.41776" lon="6.11677">
        <ele>201.80000305176</ele>
        <time>2015-06-03T14:12:08Z</time>
      </trkpt>
      <trkpt lat="43.41779" lon="6.11669">
        <ele>202.19999694824</ele>
        <time>2015-06-03T14:12:12Z</time>
      </trkpt>
      <trkpt lat="43.41781" lon="6.11668">
        <ele>202.39999389648</ele>
        <time>2015-06-03T14:12:14Z</time>
      </trkpt>
      <trkpt lat="43.41784" lon="6.11666">
        <ele>203</ele>
        <time>2015-06-03T14:12:16Z</time>
      </trkpt>
      <trkpt lat="43.41787" lon="6.11663">
        <ele>203.80000305176</ele>
        <time>2015-06-03T14:12:19Z</time>
      </trkpt>
      <trkpt lat="43.41789" lon="6.11658">
        <ele>204</ele>
        <time>2015-06-03T14:12:22Z</time>
      </trkpt>
      <trkpt lat="43.4179" lon="6.11651">
        <ele>204</ele>
        <time>2015-06-03T14:12:25Z</time>
      </trkpt>
      <trkpt lat="43.41792" lon="6.11634">
        <ele>204.19999694824</ele>
        <time>2015-06-03T14:12:30Z</time>
      </trkpt>
      <trkpt lat="43.41792" lon="6.1161">
        <ele>204.60000610352</ele>
        <time>2015-06-03T14:12:36Z</time>
      </trkpt>
      <trkpt lat="43.4179" lon="6.11583">
        <ele>205.19999694824</ele>
        <time>2015-06-03T14:12:45Z</time>
      </trkpt>
      <trkpt lat="43.4179" lon="6.11566">
        <ele>206.39999389648</ele>
        <time>2015-06-03T14:12:51Z</time>
      </trkpt>
      <trkpt lat="43.4179" lon="6.11564">
        <ele>206.60000610352</ele>
        <time>2015-06-03T14:12:52Z</time>
      </trkpt>
      <trkpt lat="43.41788" lon="6.11561">
        <ele>207</ele>
        <time>2015-06-03T14:12:54Z</time>
      </trkpt>
      <trkpt lat="43.41783" lon="6.11561">
        <ele>206.80000305176</ele>
        <time>2015-06-03T14:12:56Z</time>
      </trkpt>
      <trkpt lat="43.41771" lon="6.1156">
        <ele>206.19999694824</ele>
        <time>2015-06-03T14:12:59Z</time>
      </trkpt>
      <trkpt lat="43.41763" lon="6.11561">
        <ele>206.19999694824</ele>
        <time>2015-06-03T14:13:01Z</time>
      </trkpt>
      <trkpt lat="43.41746" lon="6.11552">
        <ele>205.39999389648</ele>
        <time>2015-06-03T14:13:06Z</time>
      </trkpt>
      <trkpt lat="43.41732" lon="6.11535">
        <ele>206.39999389648</ele>
        <time>2015-06-03T14:13:13Z</time>
      </trkpt>
      <trkpt lat="43.41719" lon="6.11522">
        <ele>207</ele>
        <time>2015-06-03T14:13:21Z</time>
      </trkpt>
      <trkpt lat="43.41714" lon="6.11516">
        <ele>207.39999389648</ele>
        <time>2015-06-03T14:13:24Z</time>
      </trkpt>
      <trkpt lat="43.41711" lon="6.1151">
        <ele>208.19999694824</ele>
        <time>2015-06-03T14:13:27Z</time>
      </trkpt>
      <trkpt lat="43.41711" lon="6.11509">
        <ele>208.39999389648</ele>
        <time>2015-06-03T14:13:28Z</time>
      </trkpt>
      <trkpt lat="43.41706" lon="6.11496">
        <ele>209.19999694824</ele>
        <time>2015-06-03T14:13:34Z</time>
      </trkpt>
      <trkpt lat="43.41706" lon="6.11494">
        <ele>209.60000610352</ele>
        <time>2015-06-03T14:13:35Z</time>
      </trkpt>
      <trkpt lat="43.41707" lon="6.11492">
        <ele>210.19999694824</ele>
        <time>2015-06-03T14:13:36Z</time>
      </trkpt>
      <trkpt lat="43.4171" lon="6.11489">
        <ele>210.39999389648</ele>
        <time>2015-06-03T14:13:39Z</time>
      </trkpt>
      <trkpt lat="43.41711" lon="6.11487">
        <ele>210.80000305176</ele>
        <time>2015-06-03T14:13:40Z</time>
      </trkpt>
      <trkpt lat="43.41713" lon="6.11475">
        <ele>210.39999389648</ele>
        <time>2015-06-03T14:13:44Z</time>
      </trkpt>
      <trkpt lat="43.41717" lon="6.11453">
        <ele>211</ele>
        <time>2015-06-03T14:13:52Z</time>
      </trkpt>
      <trkpt lat="43.41715" lon="6.11444">
        <ele>211.80000305176</ele>
        <time>2015-06-03T14:13:57Z</time>
      </trkpt>
      <trkpt lat="43.41715" lon="6.11444">
        <ele>211.80000305176</ele>
        <time>2015-06-03T14:13:59Z</time>
      </trkpt>
      <trkpt lat="43.41715" lon="6.11444">
        <ele>212</ele>
        <time>2015-06-03T14:14:03Z</time>
      </trkpt>
      <trkpt lat="43.41715" lon="6.11442">
        <ele>212.39999389648</ele>
        <time>2015-06-03T14:14:06Z</time>
      </trkpt>
      <trkpt lat="43.41715" lon="6.11439">
        <ele>212.39999389648</ele>
        <time>2015-06-03T14:14:07Z</time>
      </trkpt>
      <trkpt lat="43.41715" lon="6.11436">
        <ele>212.60000610352</ele>
        <time>2015-06-03T14:14:11Z</time>
      </trkpt>
      <trkpt lat="43.41715" lon="6.11436">
        <ele>212.60000610352</ele>
        <time>2015-06-03T14:14:13Z</time>
      </trkpt>
      <trkpt lat="43.41715" lon="6.11432">
        <ele>212.19999694824</ele>
        <time>2015-06-03T14:14:19Z</time>
      </trkpt>
      <trkpt lat="43.41716" lon="6.11428">
        <ele>212</ele>
        <time>2015-06-03T14:14:21Z</time>
      </trkpt>
      <trkpt lat="43.41717" lon="6.11414">
        <ele>212.60000610352</ele>
        <time>2015-06-03T14:14:26Z</time>
      </trkpt>
      <trkpt lat="43.41718" lon="6.11405">
        <ele>212.39999389648</ele>
        <time>2015-06-03T14:14:29Z</time>
      </trkpt>
      <trkpt lat="43.41718" lon="6.11386">
        <ele>213</ele>
        <time>2015-06-03T14:14:36Z</time>
      </trkpt>
      <trkpt lat="43.41721" lon="6.11366">
        <ele>213.19999694824</ele>
        <time>2015-06-03T14:14:43Z</time>
      </trkpt>
      <trkpt lat="43.41723" lon="6.11352">
        <ele>213.80000305176</ele>
        <time>2015-06-03T14:14:47Z</time>
      </trkpt>
      <trkpt lat="43.41723" lon="6.11339">
        <ele>214.60000610352</ele>
        <time>2015-06-03T14:14:51Z</time>
      </trkpt>
      <trkpt lat="43.41723" lon="6.1133">
        <ele>214.80000305176</ele>
        <time>2015-06-03T14:14:54Z</time>
      </trkpt>
      <trkpt lat="43.41724" lon="6.11317">
        <ele>215.19999694824</ele>
        <time>2015-06-03T14:14:58Z</time>
      </trkpt>
      <trkpt lat="43.41724" lon="6.11309">
        <ele>215.19999694824</ele>
        <time>2015-06-03T14:15:01Z</time>
      </trkpt>
      <trkpt lat="43.41724" lon="6.11292">
        <ele>215.19999694824</ele>
        <time>2015-06-03T14:15:07Z</time>
      </trkpt>
      <trkpt lat="43.41724" lon="6.11271">
        <ele>215.80000305176</ele>
        <time>2015-06-03T14:15:14Z</time>
      </trkpt>
      <trkpt lat="43.41724" lon="6.1125">
        <ele>215.60000610352</ele>
        <time>2015-06-03T14:15:20Z</time>
      </trkpt>
      <trkpt lat="43.41724" lon="6.11229">
        <ele>216</ele>
        <time>2015-06-03T14:15:26Z</time>
      </trkpt>
      <trkpt lat="43.41726" lon="6.11223">
        <ele>215.80000305176</ele>
        <time>2015-06-03T14:15:28Z</time>
      </trkpt>
      <trkpt lat="43.41727" lon="6.11211">
        <ele>215.39999389648</ele>
        <time>2015-06-03T14:15:32Z</time>
      </trkpt>
      <trkpt lat="43.41728" lon="6.11207">
        <ele>215.39999389648</ele>
        <time>2015-06-03T14:15:34Z</time>
      </trkpt>
      <trkpt lat="43.41729" lon="6.11202">
        <ele>215.60000610352</ele>
        <time>2015-06-03T14:15:36Z</time>
      </trkpt>
      <trkpt lat="43.41731" lon="6.11196">
        <ele>215.60000610352</ele>
        <time>2015-06-03T14:15:40Z</time>
      </trkpt>
      <trkpt lat="43.41731" lon="6.11196">
        <ele>215.19999694824</ele>
        <time>2015-06-03T14:15:43Z</time>
      </trkpt>
      <trkpt lat="43.41731" lon="6.11196">
        <ele>215.39999389648</ele>
        <time>2015-06-03T14:15:51Z</time>
      </trkpt>
      <trkpt lat="43.41731" lon="6.11196">
        <ele>215.19999694824</ele>
        <time>2015-06-03T14:16:00Z</time>
      </trkpt>
      <trkpt lat="43.41731" lon="6.11196">
        <ele>215.60000610352</ele>
        <time>2015-06-03T14:16:13Z</time>
      </trkpt>
      <trkpt lat="43.41731" lon="6.11196">
        <ele>216</ele>
        <time>2015-06-03T14:16:16Z</time>
      </trkpt>
      <trkpt lat="43.41731" lon="6.11195">
        <ele>215.80000305176</ele>
        <time>2015-06-03T14:16:45Z</time>
      </trkpt>
      <trkpt lat="43.41731" lon="6.11195">
        <ele>216</ele>
        <time>2015-06-03T14:16:46Z</time>
      </trkpt>
      <trkpt lat="43.41731" lon="6.11195">
        <ele>215.80000305176</ele>
        <time>2015-06-03T14:17:01Z</time>
      </trkpt>
      <trkpt lat="43.41731" lon="6.11195">
        <ele>215.60000610352</ele>
        <time>2015-06-03T14:17:45Z</time>
      </trkpt>
      <trkpt lat="43.41732" lon="6.11194">
        <ele>216</ele>
        <time>2015-06-03T14:18:08Z</time>
      </trkpt>
      <trkpt lat="43.41732" lon="6.11187">
        <ele>216</ele>
        <time>2015-06-03T14:18:11Z</time>
      </trkpt>
      <trkpt lat="43.41732" lon="6.11178">
        <ele>215.60000610352</ele>
        <time>2015-06-03T14:18:17Z</time>
      </trkpt>
      <trkpt lat="43.41731" lon="6.11177">
        <ele>215.80000305176</ele>
        <time>2015-06-03T14:18:23Z</time>
      </trkpt>
      <trkpt lat="43.41731" lon="6.11174">
        <ele>215.80000305176</ele>
        <time>2015-06-03T14:18:30Z</time>
      </trkpt>
      <trkpt lat="43.41731" lon="6.11169">
        <ele>215.60000610352</ele>
        <time>2015-06-03T14:18:37Z</time>
      </trkpt>
      <trkpt lat="43.4173" lon="6.11153">
        <ele>215.19999694824</ele>
        <time>2015-06-03T14:18:43Z</time>
      </trkpt>
      <trkpt lat="43.4173" lon="6.1113">
        <ele>213.60000610352</ele>
        <time>2015-06-03T14:18:48Z</time>
      </trkpt>
      <trkpt lat="43.4173" lon="6.11124">
        <ele>213</ele>
        <time>2015-06-03T14:18:49Z</time>
      </trkpt>
      <trkpt lat="43.41732" lon="6.11094">
        <ele>213.19999694824</ele>
        <time>2015-06-03T14:18:53Z</time>
      </trkpt>
      <trkpt lat="43.41732" lon="6.11086">
        <ele>212.39999389648</ele>
        <time>2015-06-03T14:18:54Z</time>
      </trkpt>
      <trkpt lat="43.41732" lon="6.11071">
        <ele>211.19999694824</ele>
        <time>2015-06-03T14:18:56Z</time>
      </trkpt>
      <trkpt lat="43.41732" lon="6.11057">
        <ele>210.19999694824</ele>
        <time>2015-06-03T14:18:58Z</time>
      </trkpt>
      <trkpt lat="43.41732" lon="6.11042">
        <ele>209.39999389648</ele>
        <time>2015-06-03T14:19:00Z</time>
      </trkpt>
      <trkpt lat="43.41733" lon="6.11019">
        <ele>209.39999389648</ele>
        <time>2015-06-03T14:19:05Z</time>
      </trkpt>
      <trkpt lat="43.41735" lon="6.11009">
        <ele>209</ele>
        <time>2015-06-03T14:19:09Z</time>
      </trkpt>
      <trkpt lat="43.41739" lon="6.11003">
        <ele>209.19999694824</ele>
        <time>2015-06-03T14:19:12Z</time>
      </trkpt>
      <trkpt lat="43.4174" lon="6.11003">
        <ele>209</ele>
        <time>2015-06-03T14:19:13Z</time>
      </trkpt>
      <trkpt lat="43.41744" lon="6.11005">
        <ele>208.39999389648</ele>
        <time>2015-06-03T14:19:16Z</time>
      </trkpt>
      <trkpt lat="43.4175" lon="6.11007">
        <ele>208.19999694824</ele>
        <time>2015-06-03T14:19:20Z</time>
      </trkpt>
      <trkpt lat="43.41751" lon="6.11009">
        <ele>208</ele>
        <time>2015-06-03T14:19:21Z</time>
      </trkpt>
      <trkpt lat="43.41752" lon="6.11009">
        <ele>207.80000305176</ele>
        <time>2015-06-03T14:19:22Z</time>
      </trkpt>
      <trkpt lat="43.41752" lon="6.11007">
        <ele>207</ele>
        <time>2015-06-03T14:19:26Z</time>
      </trkpt>
      <trkpt lat="43.41752" lon="6.11007">
        <ele>206.80000305176</ele>
        <time>2015-06-03T14:19:36Z</time>
      </trkpt>
      <trkpt lat="43.41753" lon="6.11004">
        <ele>207.19999694824</ele>
        <time>2015-06-03T14:19:45Z</time>
      </trkpt>
      <trkpt lat="43.41753" lon="6.11001">
        <ele>207</ele>
        <time>2015-06-03T14:19:57Z</time>
      </trkpt>
      <trkpt lat="43.41755" lon="6.10992">
        <ele>204.39999389648</ele>
        <time>2015-06-03T14:20:03Z</time>
      </trkpt>
      <trkpt lat="43.41757" lon="6.10987">
        <ele>203.39999389648</ele>
        <time>2015-06-03T14:20:05Z</time>
      </trkpt>
      <trkpt lat="43.41758" lon="6.1098">
        <ele>201.80000305176</ele>
        <time>2015-06-03T14:20:07Z</time>
      </trkpt>
      <trkpt lat="43.41759" lon="6.10974">
        <ele>200.39999389648</ele>
        <time>2015-06-03T14:20:09Z</time>
      </trkpt>
      <trkpt lat="43.41759" lon="6.10967">
        <ele>198.80000305176</ele>
        <time>2015-06-03T14:20:11Z</time>
      </trkpt>
      <trkpt lat="43.41759" lon="6.10964">
        <ele>198</ele>
        <time>2015-06-03T14:20:12Z</time>
      </trkpt>
      <trkpt lat="43.41759" lon="6.10957">
        <ele>196</ele>
        <time>2015-06-03T14:20:14Z</time>
      </trkpt>
      <trkpt lat="43.41759" lon="6.10954">
        <ele>195</ele>
        <time>2015-06-03T14:20:15Z</time>
      </trkpt>
      <trkpt lat="43.41759" lon="6.10946">
        <ele>193.80000305176</ele>
        <time>2015-06-03T14:20:17Z</time>
      </trkpt>
      <trkpt lat="43.41758" lon="6.10935">
        <ele>192.80000305176</ele>
        <time>2015-06-03T14:20:20Z</time>
      </trkpt>
      <trkpt lat="43.41758" lon="6.10927">
        <ele>191.60000610352</ele>
        <time>2015-06-03T14:20:22Z</time>
      </trkpt>
      <trkpt lat="43.41757" lon="6.10924">
        <ele>191.19999694824</ele>
        <time>2015-06-03T14:20:23Z</time>
      </trkpt>
      <trkpt lat="43.41753" lon="6.10919">
        <ele>190.39999389648</ele>
        <time>2015-06-03T14:20:25Z</time>
      </trkpt>
      <trkpt lat="43.41747" lon="6.10917">
        <ele>190</ele>
        <time>2015-06-03T14:20:27Z</time>
      </trkpt>
      <trkpt lat="43.41741" lon="6.10914">
        <ele>189.39999389648</ele>
        <time>2015-06-03T14:20:29Z</time>
      </trkpt>
      <trkpt lat="43.41732" lon="6.10906">
        <ele>188.60000610352</ele>
        <time>2015-06-03T14:20:32Z</time>
      </trkpt>
      <trkpt lat="43.41698" lon="6.10873">
        <ele>189.19999694824</ele>
        <time>2015-06-03T14:20:44Z</time>
      </trkpt>
      <trkpt lat="43.41681" lon="6.10857">
        <ele>189.60000610352</ele>
        <time>2015-06-03T14:20:50Z</time>
      </trkpt>
      <trkpt lat="43.41669" lon="6.10852">
        <ele>190.60000610352</ele>
        <time>2015-06-03T14:20:54Z</time>
      </trkpt>
      <trkpt lat="43.41666" lon="6.10851">
        <ele>190.39999389648</ele>
        <time>2015-06-03T14:20:55Z</time>
      </trkpt>
      <trkpt lat="43.41652" lon="6.10849">
        <ele>190.19999694824</ele>
        <time>2015-06-03T14:21:00Z</time>
      </trkpt>
      <trkpt lat="43.4164" lon="6.1085">
        <ele>190</ele>
        <time>2015-06-03T14:21:04Z</time>
      </trkpt>
      <trkpt lat="43.41629" lon="6.10856">
        <ele>189.80000305176</ele>
        <time>2015-06-03T14:21:07Z</time>
      </trkpt>
      <trkpt lat="43.41627" lon="6.1086">
        <ele>189.39999389648</ele>
        <time>2015-06-03T14:21:08Z</time>
      </trkpt>
      <trkpt lat="43.41625" lon="6.10866">
        <ele>189.60000610352</ele>
        <time>2015-06-03T14:21:09Z</time>
      </trkpt>
      <trkpt lat="43.41624" lon="6.10878">
        <ele>189.60000610352</ele>
        <time>2015-06-03T14:21:12Z</time>
      </trkpt>
      <trkpt lat="43.41623" lon="6.10888">
        <ele>189.60000610352</ele>
        <time>2015-06-03T14:21:14Z</time>
      </trkpt>
      <trkpt lat="43.41621" lon="6.10896">
        <ele>189.19999694824</ele>
        <time>2015-06-03T14:21:16Z</time>
      </trkpt>
      <trkpt lat="43.41618" lon="6.10912">
        <ele>190.39999389648</ele>
        <time>2015-06-03T14:21:20Z</time>
      </trkpt>
      <trkpt lat="43.41616" lon="6.10921">
        <ele>190.60000610352</ele>
        <time>2015-06-03T14:21:22Z</time>
      </trkpt>
      <trkpt lat="43.41616" lon="6.10924">
        <ele>191</ele>
        <time>2015-06-03T14:21:23Z</time>
      </trkpt>
      <trkpt lat="43.41614" lon="6.10946">
        <ele>191.19999694824</ele>
        <time>2015-06-03T14:21:28Z</time>
      </trkpt>
      <trkpt lat="43.41607" lon="6.1097">
        <ele>192</ele>
        <time>2015-06-03T14:21:35Z</time>
      </trkpt>
      <trkpt lat="43.41601" lon="6.10985">
        <ele>191.80000305176</ele>
        <time>2015-06-03T14:21:39Z</time>
      </trkpt>
      <trkpt lat="43.41597" lon="6.11009">
        <ele>192</ele>
        <time>2015-06-03T14:21:45Z</time>
      </trkpt>
      <trkpt lat="43.41597" lon="6.11028">
        <ele>192.39999389648</ele>
        <time>2015-06-03T14:21:50Z</time>
      </trkpt>
      <trkpt lat="43.41596" lon="6.11032">
        <ele>192.60000610352</ele>
        <time>2015-06-03T14:21:51Z</time>
      </trkpt>
      <trkpt lat="43.41595" lon="6.11039">
        <ele>192.39999389648</ele>
        <time>2015-06-03T14:21:53Z</time>
      </trkpt>
      <trkpt lat="43.41592" lon="6.11055">
        <ele>192.60000610352</ele>
        <time>2015-06-03T14:21:57Z</time>
      </trkpt>
      <trkpt lat="43.4158" lon="6.11081">
        <ele>193</ele>
        <time>2015-06-03T14:22:04Z</time>
      </trkpt>
      <trkpt lat="43.41571" lon="6.11101">
        <ele>193.19999694824</ele>
        <time>2015-06-03T14:22:09Z</time>
      </trkpt>
      <trkpt lat="43.4156" lon="6.11117">
        <ele>193.80000305176</ele>
        <time>2015-06-03T14:22:14Z</time>
      </trkpt>
      <trkpt lat="43.41558" lon="6.1112">
        <ele>193.80000305176</ele>
        <time>2015-06-03T14:22:15Z</time>
      </trkpt>
      <trkpt lat="43.41536" lon="6.11137">
        <ele>193.19999694824</ele>
        <time>2015-06-03T14:22:23Z</time>
      </trkpt>
      <trkpt lat="43.41522" lon="6.11148">
        <ele>193.80000305176</ele>
        <time>2015-06-03T14:22:27Z</time>
      </trkpt>
      <trkpt lat="43.41509" lon="6.11154">
        <ele>193.80000305176</ele>
        <time>2015-06-03T14:22:32Z</time>
      </trkpt>
      <trkpt lat="43.41491" lon="6.11157">
        <ele>194.39999389648</ele>
        <time>2015-06-03T14:22:38Z</time>
      </trkpt>
      <trkpt lat="43.41482" lon="6.11159">
        <ele>194.19999694824</ele>
        <time>2015-06-03T14:22:41Z</time>
      </trkpt>
      <trkpt lat="43.41471" lon="6.11161">
        <ele>193.39999389648</ele>
        <time>2015-06-03T14:22:44Z</time>
      </trkpt>
      <trkpt lat="43.41468" lon="6.1116">
        <ele>193.39999389648</ele>
        <time>2015-06-03T14:22:46Z</time>
      </trkpt>
      <trkpt lat="43.41468" lon="6.11156">
        <ele>193.19999694824</ele>
        <time>2015-06-03T14:22:48Z</time>
      </trkpt>
      <trkpt lat="43.41469" lon="6.11151">
        <ele>192.80000305176</ele>
        <time>2015-06-03T14:22:50Z</time>
      </trkpt>
      <trkpt lat="43.41468" lon="6.11147">
        <ele>192.60000610352</ele>
        <time>2015-06-03T14:22:51Z</time>
      </trkpt>
      <trkpt lat="43.41466" lon="6.11142">
        <ele>192.19999694824</ele>
        <time>2015-06-03T14:22:52Z</time>
      </trkpt>
      <trkpt lat="43.41467" lon="6.11136">
        <ele>191.80000305176</ele>
        <time>2015-06-03T14:22:54Z</time>
      </trkpt>
      <trkpt lat="43.41468" lon="6.1113">
        <ele>192</ele>
        <time>2015-06-03T14:22:56Z</time>
      </trkpt>
      <trkpt lat="43.41473" lon="6.11113">
        <ele>192.19999694824</ele>
        <time>2015-06-03T14:23:02Z</time>
      </trkpt>
      <trkpt lat="43.41476" lon="6.11106">
        <ele>191.60000610352</ele>
        <time>2015-06-03T14:23:06Z</time>
      </trkpt>
      <trkpt lat="43.41477" lon="6.11105">
        <ele>191.39999389648</ele>
        <time>2015-06-03T14:23:07Z</time>
      </trkpt>
      <trkpt lat="43.4148" lon="6.111">
        <ele>191.19999694824</ele>
        <time>2015-06-03T14:23:15Z</time>
      </trkpt>
      <trkpt lat="43.41483" lon="6.11098">
        <ele>191.19999694824</ele>
        <time>2015-06-03T14:23:22Z</time>
      </trkpt>
      <trkpt lat="43.41484" lon="6.11098">
        <ele>191.19999694824</ele>
        <time>2015-06-03T14:23:23Z</time>
      </trkpt>
      <trkpt lat="43.41487" lon="6.11098">
        <ele>191.39999389648</ele>
        <time>2015-06-03T14:23:25Z</time>
      </trkpt>
      <trkpt lat="43.41488" lon="6.11097">
        <ele>191.60000610352</ele>
        <time>2015-06-03T14:23:28Z</time>
      </trkpt>
      <trkpt lat="43.41488" lon="6.11097">
        <ele>191.60000610352</ele>
        <time>2015-06-03T14:23:29Z</time>
      </trkpt>
      <trkpt lat="43.41489" lon="6.11096">
        <ele>191.80000305176</ele>
        <time>2015-06-03T14:23:36Z</time>
      </trkpt>
      <trkpt lat="43.4149" lon="6.11094">
        <ele>191.60000610352</ele>
        <time>2015-06-03T14:23:42Z</time>
      </trkpt>
      <trkpt lat="43.4149" lon="6.11093">
        <ele>191.80000305176</ele>
        <time>2015-06-03T14:23:45Z</time>
      </trkpt>
      <trkpt lat="43.4149" lon="6.11091">
        <ele>192</ele>
        <time>2015-06-03T14:23:50Z</time>
      </trkpt>
      <trkpt lat="43.4149" lon="6.1109">
        <ele>191.60000610352</ele>
        <time>2015-06-03T14:23:54Z</time>
      </trkpt>
      <trkpt lat="43.41489" lon="6.11086">
        <ele>191.60000610352</ele>
        <time>2015-06-03T14:24:05Z</time>
      </trkpt>
      <trkpt lat="43.41488" lon="6.11082">
        <ele>191.60000610352</ele>
        <time>2015-06-03T14:24:09Z</time>
      </trkpt>
      <trkpt lat="43.41488" lon="6.11079">
        <ele>191.80000305176</ele>
        <time>2015-06-03T14:24:18Z</time>
      </trkpt>
      <trkpt lat="43.41488" lon="6.11077">
        <ele>191.80000305176</ele>
        <time>2015-06-03T14:24:26Z</time>
      </trkpt>
      <trkpt lat="43.4149" lon="6.11074">
        <ele>191.80000305176</ele>
        <time>2015-06-03T14:24:36Z</time>
      </trkpt>
      <trkpt lat="43.41492" lon="6.11071">
        <ele>192</ele>
        <time>2015-06-03T14:24:39Z</time>
      </trkpt>
      <trkpt lat="43.41495" lon="6.11063">
        <ele>192.39999389648</ele>
        <time>2015-06-03T14:24:43Z</time>
      </trkpt>
      <trkpt lat="43.41497" lon="6.11061">
        <ele>192.39999389648</ele>
        <time>2015-06-03T14:24:45Z</time>
      </trkpt>
      <trkpt lat="43.41497" lon="6.11051">
        <ele>192.60000610352</ele>
        <time>2015-06-03T14:24:49Z</time>
      </trkpt>
      <trkpt lat="43.41498" lon="6.11049">
        <ele>192.60000610352</ele>
        <time>2015-06-03T14:24:50Z</time>
      </trkpt>
      <trkpt lat="43.41502" lon="6.11034">
        <ele>192.60000610352</ele>
        <time>2015-06-03T14:24:56Z</time>
      </trkpt>
      <trkpt lat="43.41506" lon="6.11023">
        <ele>192.39999389648</ele>
        <time>2015-06-03T14:25:00Z</time>
      </trkpt>
      <trkpt lat="43.4151" lon="6.11">
        <ele>192.39999389648</ele>
        <time>2015-06-03T14:25:07Z</time>
      </trkpt>
      <trkpt lat="43.41511" lon="6.10979">
        <ele>192.19999694824</ele>
        <time>2015-06-03T14:25:13Z</time>
      </trkpt>
      <trkpt lat="43.41514" lon="6.10965">
        <ele>192.19999694824</ele>
        <time>2015-06-03T14:25:17Z</time>
      </trkpt>
      <trkpt lat="43.41518" lon="6.1094">
        <ele>191.60000610352</ele>
        <time>2015-06-03T14:25:23Z</time>
      </trkpt>
      <trkpt lat="43.4153" lon="6.1091">
        <ele>192</ele>
        <time>2015-06-03T14:25:30Z</time>
      </trkpt>
      <trkpt lat="43.41547" lon="6.10884">
        <ele>192</ele>
        <time>2015-06-03T14:25:36Z</time>
      </trkpt>
      <trkpt lat="43.41552" lon="6.10878">
        <ele>192</ele>
        <time>2015-06-03T14:25:37Z</time>
      </trkpt>
      <trkpt lat="43.41566" lon="6.10859">
        <ele>191.39999389648</ele>
        <time>2015-06-03T14:25:41Z</time>
      </trkpt>
      <trkpt lat="43.4157" lon="6.10854">
        <ele>191.19999694824</ele>
        <time>2015-06-03T14:25:42Z</time>
      </trkpt>
      <trkpt lat="43.41579" lon="6.10846">
        <ele>190.60000610352</ele>
        <time>2015-06-03T14:25:45Z</time>
      </trkpt>
      <trkpt lat="43.41581" lon="6.10844">
        <ele>190.39999389648</ele>
        <time>2015-06-03T14:25:46Z</time>
      </trkpt>
      <trkpt lat="43.4159" lon="6.10832">
        <ele>190.39999389648</ele>
        <time>2015-06-03T14:25:50Z</time>
      </trkpt>
      <trkpt lat="43.41602" lon="6.10798">
        <ele>189.19999694824</ele>
        <time>2015-06-03T14:25:55Z</time>
      </trkpt>
      <trkpt lat="43.41609" lon="6.10771">
        <ele>189</ele>
        <time>2015-06-03T14:26:00Z</time>
      </trkpt>
      <trkpt lat="43.4161" lon="6.10766">
        <ele>189.19999694824</ele>
        <time>2015-06-03T14:26:01Z</time>
      </trkpt>
      <trkpt lat="43.41613" lon="6.10753">
        <ele>188.39999389648</ele>
        <time>2015-06-03T14:26:06Z</time>
      </trkpt>
      <trkpt lat="43.41614" lon="6.10748">
        <ele>188.39999389648</ele>
        <time>2015-06-03T14:26:07Z</time>
      </trkpt>
      <trkpt lat="43.41622" lon="6.10725">
        <ele>189</ele>
        <time>2015-06-03T14:26:12Z</time>
      </trkpt>
      <trkpt lat="43.41639" lon="6.10679">
        <ele>188.80000305176</ele>
        <time>2015-06-03T14:26:21Z</time>
      </trkpt>
      <trkpt lat="43.4165" lon="6.10654">
        <ele>190.19999694824</ele>
        <time>2015-06-03T14:26:28Z</time>
      </trkpt>
      <trkpt lat="43.41651" lon="6.10648">
        <ele>190.60000610352</ele>
        <time>2015-06-03T14:26:31Z</time>
      </trkpt>
      <trkpt lat="43.4165" lon="6.10644">
        <ele>190.60000610352</ele>
        <time>2015-06-03T14:26:33Z</time>
      </trkpt>
      <trkpt lat="43.41648" lon="6.10633">
        <ele>191</ele>
        <time>2015-06-03T14:26:38Z</time>
      </trkpt>
      <trkpt lat="43.41648" lon="6.10631">
        <ele>191.19999694824</ele>
        <time>2015-06-03T14:26:39Z</time>
      </trkpt>
      <trkpt lat="43.4165" lon="6.10625">
        <ele>192.19999694824</ele>
        <time>2015-06-03T14:26:43Z</time>
      </trkpt>
      <trkpt lat="43.4165" lon="6.10621">
        <ele>192.39999389648</ele>
        <time>2015-06-03T14:26:45Z</time>
      </trkpt>
      <trkpt lat="43.41653" lon="6.10612">
        <ele>192.60000610352</ele>
        <time>2015-06-03T14:26:50Z</time>
      </trkpt>
      <trkpt lat="43.41652" lon="6.10595">
        <ele>193.60000610352</ele>
        <time>2015-06-03T14:26:57Z</time>
      </trkpt>
      <trkpt lat="43.41652" lon="6.10592">
        <ele>193.80000305176</ele>
        <time>2015-06-03T14:26:58Z</time>
      </trkpt>
      <trkpt lat="43.41656" lon="6.10578">
        <ele>194.80000305176</ele>
        <time>2015-06-03T14:27:06Z</time>
      </trkpt>
      <trkpt lat="43.41655" lon="6.10573">
        <ele>195</ele>
        <time>2015-06-03T14:27:09Z</time>
      </trkpt>
      <trkpt lat="43.41653" lon="6.10568">
        <ele>195.80000305176</ele>
        <time>2015-06-03T14:27:12Z</time>
      </trkpt>
      <trkpt lat="43.41652" lon="6.10563">
        <ele>196.19999694824</ele>
        <time>2015-06-03T14:27:15Z</time>
      </trkpt>
      <trkpt lat="43.41652" lon="6.10562">
        <ele>196.19999694824</ele>
        <time>2015-06-03T14:27:16Z</time>
      </trkpt>
      <trkpt lat="43.41652" lon="6.10558">
        <ele>196.39999389648</ele>
        <time>2015-06-03T14:27:19Z</time>
      </trkpt>
      <trkpt lat="43.4165" lon="6.10556">
        <ele>196.80000305176</ele>
        <time>2015-06-03T14:27:21Z</time>
      </trkpt>
      <trkpt lat="43.41651" lon="6.10555">
        <ele>197.19999694824</ele>
        <time>2015-06-03T14:27:22Z</time>
      </trkpt>
      <trkpt lat="43.4165" lon="6.10553">
        <ele>198</ele>
        <time>2015-06-03T14:27:25Z</time>
      </trkpt>
      <trkpt lat="43.4165" lon="6.10548">
        <ele>199</ele>
        <time>2015-06-03T14:27:33Z</time>
      </trkpt>
      <trkpt lat="43.4165" lon="6.10547">
        <ele>199</ele>
        <time>2015-06-03T14:27:41Z</time>
      </trkpt>
      <trkpt lat="43.41649" lon="6.1054">
        <ele>200</ele>
        <time>2015-06-03T14:27:50Z</time>
      </trkpt>
      <trkpt lat="43.41648" lon="6.10535">
        <ele>200.80000305176</ele>
        <time>2015-06-03T14:27:54Z</time>
      </trkpt>
      <trkpt lat="43.41648" lon="6.10531">
        <ele>201</ele>
        <time>2015-06-03T14:27:57Z</time>
      </trkpt>
      <trkpt lat="43.41648" lon="6.1053">
        <ele>201.19999694824</ele>
        <time>2015-06-03T14:27:58Z</time>
      </trkpt>
      <trkpt lat="43.41647" lon="6.10522">
        <ele>202</ele>
        <time>2015-06-03T14:28:05Z</time>
      </trkpt>
      <trkpt lat="43.41646" lon="6.10518">
        <ele>202.19999694824</ele>
        <time>2015-06-03T14:28:09Z</time>
      </trkpt>
      <trkpt lat="43.41646" lon="6.10517">
        <ele>202.39999389648</ele>
        <time>2015-06-03T14:28:10Z</time>
      </trkpt>
      <trkpt lat="43.41645" lon="6.10516">
        <ele>203</ele>
        <time>2015-06-03T14:28:12Z</time>
      </trkpt>
      <trkpt lat="43.41644" lon="6.10512">
        <ele>203.39999389648</ele>
        <time>2015-06-03T14:28:18Z</time>
      </trkpt>
      <trkpt lat="43.41644" lon="6.10512">
        <ele>203.60000610352</ele>
        <time>2015-06-03T14:28:20Z</time>
      </trkpt>
      <trkpt lat="43.41645" lon="6.10509">
        <ele>204</ele>
        <time>2015-06-03T14:28:28Z</time>
      </trkpt>
      <trkpt lat="43.41645" lon="6.10507">
        <ele>204.19999694824</ele>
        <time>2015-06-03T14:28:29Z</time>
      </trkpt>
      <trkpt lat="43.41645" lon="6.10502">
        <ele>204.60000610352</ele>
        <time>2015-06-03T14:28:31Z</time>
      </trkpt>
      <trkpt lat="43.41645" lon="6.10494">
        <ele>205.80000305176</ele>
        <time>2015-06-03T14:28:35Z</time>
      </trkpt>
      <trkpt lat="43.41644" lon="6.10492">
        <ele>205.80000305176</ele>
        <time>2015-06-03T14:28:36Z</time>
      </trkpt>
      <trkpt lat="43.41644" lon="6.10485">
        <ele>206.19999694824</ele>
        <time>2015-06-03T14:28:39Z</time>
      </trkpt>
      <trkpt lat="43.41645" lon="6.10483">
        <ele>207</ele>
        <time>2015-06-03T14:28:40Z</time>
      </trkpt>
      <trkpt lat="43.41644" lon="6.10481">
        <ele>207.19999694824</ele>
        <time>2015-06-03T14:28:41Z</time>
      </trkpt>
      <trkpt lat="43.41643" lon="6.10478">
        <ele>207.80000305176</ele>
        <time>2015-06-03T14:28:43Z</time>
      </trkpt>
      <trkpt lat="43.41642" lon="6.10477">
        <ele>208</ele>
        <time>2015-06-03T14:28:44Z</time>
      </trkpt>
      <trkpt lat="43.4164" lon="6.10476">
        <ele>207.80000305176</ele>
        <time>2015-06-03T14:28:45Z</time>
      </trkpt>
      <trkpt lat="43.41639" lon="6.10476">
        <ele>208</ele>
        <time>2015-06-03T14:28:46Z</time>
      </trkpt>
      <trkpt lat="43.41637" lon="6.10471">
        <ele>208.19999694824</ele>
        <time>2015-06-03T14:28:49Z</time>
      </trkpt>
      <trkpt lat="43.41636" lon="6.10467">
        <ele>208.39999389648</ele>
        <time>2015-06-03T14:28:51Z</time>
      </trkpt>
      <trkpt lat="43.41633" lon="6.10444">
        <ele>209</ele>
        <time>2015-06-03T14:29:02Z</time>
      </trkpt>
      <trkpt lat="43.41633" lon="6.10442">
        <ele>209</ele>
        <time>2015-06-03T14:29:03Z</time>
      </trkpt>
      <trkpt lat="43.41629" lon="6.10426">
        <ele>208.80000305176</ele>
        <time>2015-06-03T14:29:09Z</time>
      </trkpt>
      <trkpt lat="43.41626" lon="6.10422">
        <ele>208.80000305176</ele>
        <time>2015-06-03T14:29:11Z</time>
      </trkpt>
      <trkpt lat="43.41618" lon="6.10422">
        <ele>208.80000305176</ele>
        <time>2015-06-03T14:29:14Z</time>
      </trkpt>
      <trkpt lat="43.41611" lon="6.10423">
        <ele>208.60000610352</ele>
        <time>2015-06-03T14:29:18Z</time>
      </trkpt>
      <trkpt lat="43.41607" lon="6.10424">
        <ele>209</ele>
        <time>2015-06-03T14:29:21Z</time>
      </trkpt>
      <trkpt lat="43.41606" lon="6.10424">
        <ele>209</ele>
        <time>2015-06-03T14:29:24Z</time>
      </trkpt>
      <trkpt lat="43.41605" lon="6.10424">
        <ele>209</ele>
        <time>2015-06-03T14:29:26Z</time>
      </trkpt>
      <trkpt lat="43.41605" lon="6.10424">
        <ele>209</ele>
        <time>2015-06-03T14:29:28Z</time>
      </trkpt>
      <trkpt lat="43.41605" lon="6.10424">
        <ele>209</ele>
        <time>2015-06-03T14:29:34Z</time>
      </trkpt>
      <trkpt lat="43.41605" lon="6.10424">
        <ele>209.39999389648</ele>
        <time>2015-06-03T14:29:53Z</time>
      </trkpt>
      <trkpt lat="43.41605" lon="6.10424">
        <ele>209.19999694824</ele>
        <time>2015-06-03T14:30:06Z</time>
      </trkpt>
      <trkpt lat="43.41605" lon="6.10424">
        <ele>209.39999389648</ele>
        <time>2015-06-03T14:30:14Z</time>
      </trkpt>
      <trkpt lat="43.41605" lon="6.10424">
        <ele>209.19999694824</ele>
        <time>2015-06-03T14:30:45Z</time>
      </trkpt>
      <trkpt lat="43.41605" lon="6.10424">
        <ele>209.60000610352</ele>
        <time>2015-06-03T14:31:00Z</time>
      </trkpt>
      <trkpt lat="43.41605" lon="6.10424">
        <ele>210</ele>
        <time>2015-06-03T14:32:27Z</time>
      </trkpt>
      <trkpt lat="43.41605" lon="6.10424">
        <ele>210.19999694824</ele>
        <time>2015-06-03T14:32:56Z</time>
      </trkpt>
      <trkpt lat="43.41605" lon="6.10424">
        <ele>210.19999694824</ele>
        <time>2015-06-03T14:32:59Z</time>
      </trkpt>
      <trkpt lat="43.41602" lon="6.1042">
        <ele>210.19999694824</ele>
        <time>2015-06-03T14:33:09Z</time>
      </trkpt>
      <trkpt lat="43.41598" lon="6.10408">
        <ele>210.19999694824</ele>
        <time>2015-06-03T14:33:14Z</time>
      </trkpt>
      <trkpt lat="43.41594" lon="6.10386">
        <ele>208.60000610352</ele>
        <time>2015-06-03T14:33:20Z</time>
      </trkpt>
      <trkpt lat="43.41593" lon="6.10381">
        <ele>208</ele>
        <time>2015-06-03T14:33:21Z</time>
      </trkpt>
      <trkpt lat="43.41592" lon="6.10374">
        <ele>207.60000610352</ele>
        <time>2015-06-03T14:33:22Z</time>
      </trkpt>
      <trkpt lat="43.41588" lon="6.10362">
        <ele>206.19999694824</ele>
        <time>2015-06-03T14:33:24Z</time>
      </trkpt>
      <trkpt lat="43.41584" lon="6.10356">
        <ele>206</ele>
        <time>2015-06-03T14:33:25Z</time>
      </trkpt>
      <trkpt lat="43.41566" lon="6.10332">
        <ele>205.19999694824</ele>
        <time>2015-06-03T14:33:30Z</time>
      </trkpt>
      <trkpt lat="43.41547" lon="6.10307">
        <ele>205</ele>
        <time>2015-06-03T14:33:35Z</time>
      </trkpt>
      <trkpt lat="43.41542" lon="6.103">
        <ele>204.60000610352</ele>
        <time>2015-06-03T14:33:36Z</time>
      </trkpt>
      <trkpt lat="43.41536" lon="6.10294">
        <ele>203.80000305176</ele>
        <time>2015-06-03T14:33:37Z</time>
      </trkpt>
      <trkpt lat="43.41524" lon="6.10276">
        <ele>203</ele>
        <time>2015-06-03T14:33:40Z</time>
      </trkpt>
      <trkpt lat="43.41521" lon="6.10259">
        <ele>203.19999694824</ele>
        <time>2015-06-03T14:33:42Z</time>
      </trkpt>
      <trkpt lat="43.4152" lon="6.1025">
        <ele>202.39999389648</ele>
        <time>2015-06-03T14:33:43Z</time>
      </trkpt>
      <trkpt lat="43.4152" lon="6.10241">
        <ele>201.19999694824</ele>
        <time>2015-06-03T14:33:44Z</time>
      </trkpt>
      <trkpt lat="43.41518" lon="6.10232">
        <ele>200.19999694824</ele>
        <time>2015-06-03T14:33:45Z</time>
      </trkpt>
      <trkpt lat="43.41518" lon="6.10222">
        <ele>199.60000610352</ele>
        <time>2015-06-03T14:33:46Z</time>
      </trkpt>
      <trkpt lat="43.41518" lon="6.10203">
        <ele>198.80000305176</ele>
        <time>2015-06-03T14:33:48Z</time>
      </trkpt>
      <trkpt lat="43.41518" lon="6.10195">
        <ele>198.60000610352</ele>
        <time>2015-06-03T14:33:49Z</time>
      </trkpt>
      <trkpt lat="43.41516" lon="6.10183">
        <ele>198.19999694824</ele>
        <time>2015-06-03T14:33:52Z</time>
      </trkpt>
      <trkpt lat="43.41513" lon="6.10175">
        <ele>198.39999389648</ele>
        <time>2015-06-03T14:33:56Z</time>
      </trkpt>
      <trkpt lat="43.41511" lon="6.10168">
        <ele>198.80000305176</ele>
        <time>2015-06-03T14:33:59Z</time>
      </trkpt>
      <trkpt lat="43.4151" lon="6.10163">
        <ele>199.60000610352</ele>
        <time>2015-06-03T14:34:01Z</time>
      </trkpt>
      <trkpt lat="43.41508" lon="6.10158">
        <ele>200</ele>
        <time>2015-06-03T14:34:03Z</time>
      </trkpt>
      <trkpt lat="43.41507" lon="6.10155">
        <ele>200.19999694824</ele>
        <time>2015-06-03T14:34:04Z</time>
      </trkpt>
      <trkpt lat="43.41506" lon="6.10152">
        <ele>200.60000610352</ele>
        <time>2015-06-03T14:34:06Z</time>
      </trkpt>
      <trkpt lat="43.41504" lon="6.10146">
        <ele>200.80000305176</ele>
        <time>2015-06-03T14:34:09Z</time>
      </trkpt>
      <trkpt lat="43.41503" lon="6.10143">
        <ele>201.39999389648</ele>
        <time>2015-06-03T14:34:11Z</time>
      </trkpt>
      <trkpt lat="43.41501" lon="6.10138">
        <ele>201.60000610352</ele>
        <time>2015-06-03T14:34:13Z</time>
      </trkpt>
      <trkpt lat="43.41496" lon="6.10114">
        <ele>201.39999389648</ele>
        <time>2015-06-03T14:34:21Z</time>
      </trkpt>
      <trkpt lat="43.41484" lon="6.10093">
        <ele>200.19999694824</ele>
        <time>2015-06-03T14:34:27Z</time>
      </trkpt>
      <trkpt lat="43.41482" lon="6.10088">
        <ele>200.19999694824</ele>
        <time>2015-06-03T14:34:28Z</time>
      </trkpt>
      <trkpt lat="43.41477" lon="6.10078">
        <ele>199.60000610352</ele>
        <time>2015-06-03T14:34:30Z</time>
      </trkpt>
      <trkpt lat="43.41476" lon="6.10073">
        <ele>199.19999694824</ele>
        <time>2015-06-03T14:34:31Z</time>
      </trkpt>
      <trkpt lat="43.41473" lon="6.10062">
        <ele>198.80000305176</ele>
        <time>2015-06-03T14:34:33Z</time>
      </trkpt>
      <trkpt lat="43.4147" lon="6.10049">
        <ele>198.80000305176</ele>
        <time>2015-06-03T14:34:37Z</time>
      </trkpt>
      <trkpt lat="43.41467" lon="6.10039">
        <ele>198</ele>
        <time>2015-06-03T14:34:41Z</time>
      </trkpt>
      <trkpt lat="43.41463" lon="6.10035">
        <ele>198.39999389648</ele>
        <time>2015-06-03T14:34:43Z</time>
      </trkpt>
      <trkpt lat="43.4146" lon="6.10023">
        <ele>199</ele>
        <time>2015-06-03T14:34:47Z</time>
      </trkpt>
      <trkpt lat="43.41457" lon="6.10013">
        <ele>199.19999694824</ele>
        <time>2015-06-03T14:34:50Z</time>
      </trkpt>
      <trkpt lat="43.41449" lon="6.09993">
        <ele>199.60000610352</ele>
        <time>2015-06-03T14:34:57Z</time>
      </trkpt>
      <trkpt lat="43.41445" lon="6.09974">
        <ele>198.60000610352</ele>
        <time>2015-06-03T14:35:02Z</time>
      </trkpt>
      <trkpt lat="43.41439" lon="6.09944">
        <ele>199.39999389648</ele>
        <time>2015-06-03T14:35:11Z</time>
      </trkpt>
      <trkpt lat="43.41438" lon="6.09924">
        <ele>198.60000610352</ele>
        <time>2015-06-03T14:35:17Z</time>
      </trkpt>
      <trkpt lat="43.41438" lon="6.09912">
        <ele>198.80000305176</ele>
        <time>2015-06-03T14:35:20Z</time>
      </trkpt>
      <trkpt lat="43.41441" lon="6.09905">
        <ele>198.60000610352</ele>
        <time>2015-06-03T14:35:22Z</time>
      </trkpt>
      <trkpt lat="43.41443" lon="6.09898">
        <ele>198</ele>
        <time>2015-06-03T14:35:24Z</time>
      </trkpt>
      <trkpt lat="43.41449" lon="6.09888">
        <ele>196.80000305176</ele>
        <time>2015-06-03T14:35:27Z</time>
      </trkpt>
      <trkpt lat="43.41449" lon="6.09886">
        <ele>196.39999389648</ele>
        <time>2015-06-03T14:35:28Z</time>
      </trkpt>
      <trkpt lat="43.41449" lon="6.09882">
        <ele>196</ele>
        <time>2015-06-03T14:35:30Z</time>
      </trkpt>
      <trkpt lat="43.41445" lon="6.09855">
        <ele>199</ele>
        <time>2015-06-03T14:35:43Z</time>
      </trkpt>
      <trkpt lat="43.41444" lon="6.09851">
        <ele>199</ele>
        <time>2015-06-03T14:35:45Z</time>
      </trkpt>
      <trkpt lat="43.41442" lon="6.09847">
        <ele>199.60000610352</ele>
        <time>2015-06-03T14:35:47Z</time>
      </trkpt>
      <trkpt lat="43.41441" lon="6.0984">
        <ele>200.19999694824</ele>
        <time>2015-06-03T14:35:49Z</time>
      </trkpt>
      <trkpt lat="43.41441" lon="6.09836">
        <ele>200.60000610352</ele>
        <time>2015-06-03T14:35:52Z</time>
      </trkpt>
      <trkpt lat="43.41441" lon="6.0983">
        <ele>200.60000610352</ele>
        <time>2015-06-03T14:35:55Z</time>
      </trkpt>
      <trkpt lat="43.41441" lon="6.09825">
        <ele>201</ele>
        <time>2015-06-03T14:35:57Z</time>
      </trkpt>
      <trkpt lat="43.4144" lon="6.09809">
        <ele>200.60000610352</ele>
        <time>2015-06-03T14:36:02Z</time>
      </trkpt>
      <trkpt lat="43.4144" lon="6.09807">
        <ele>200.60000610352</ele>
        <time>2015-06-03T14:36:03Z</time>
      </trkpt>
      <trkpt lat="43.41442" lon="6.09802">
        <ele>200.60000610352</ele>
        <time>2015-06-03T14:36:04Z</time>
      </trkpt>
      <trkpt lat="43.41449" lon="6.09794">
        <ele>200.60000610352</ele>
        <time>2015-06-03T14:36:07Z</time>
      </trkpt>
      <trkpt lat="43.41457" lon="6.09775">
        <ele>200</ele>
        <time>2015-06-03T14:36:13Z</time>
      </trkpt>
      <trkpt lat="43.41458" lon="6.09771">
        <ele>199.80000305176</ele>
        <time>2015-06-03T14:36:14Z</time>
      </trkpt>
      <trkpt lat="43.41461" lon="6.09752">
        <ele>198.80000305176</ele>
        <time>2015-06-03T14:36:18Z</time>
      </trkpt>
      <trkpt lat="43.41463" lon="6.09742">
        <ele>198</ele>
        <time>2015-06-03T14:36:20Z</time>
      </trkpt>
      <trkpt lat="43.41465" lon="6.09736">
        <ele>197.80000305176</ele>
        <time>2015-06-03T14:36:21Z</time>
      </trkpt>
      <trkpt lat="43.41471" lon="6.09716">
        <ele>197.39999389648</ele>
        <time>2015-06-03T14:36:25Z</time>
      </trkpt>
      <trkpt lat="43.41474" lon="6.09709">
        <ele>198</ele>
        <time>2015-06-03T14:36:27Z</time>
      </trkpt>
      <trkpt lat="43.41479" lon="6.09697">
        <ele>198.19999694824</ele>
        <time>2015-06-03T14:36:32Z</time>
      </trkpt>
      <trkpt lat="43.41479" lon="6.09688">
        <ele>197.80000305176</ele>
        <time>2015-06-03T14:36:37Z</time>
      </trkpt>
      <trkpt lat="43.41479" lon="6.09685">
        <ele>197.80000305176</ele>
        <time>2015-06-03T14:36:38Z</time>
      </trkpt>
      <trkpt lat="43.41476" lon="6.09678">
        <ele>198.39999389648</ele>
        <time>2015-06-03T14:36:41Z</time>
      </trkpt>
      <trkpt lat="43.41476" lon="6.09673">
        <ele>198.39999389648</ele>
        <time>2015-06-03T14:36:43Z</time>
      </trkpt>
      <trkpt lat="43.41476" lon="6.09671">
        <ele>199</ele>
        <time>2015-06-03T14:36:44Z</time>
      </trkpt>
      <trkpt lat="43.41475" lon="6.09669">
        <ele>199.39999389648</ele>
        <time>2015-06-03T14:36:45Z</time>
      </trkpt>
      <trkpt lat="43.41475" lon="6.09666">
        <ele>200.19999694824</ele>
        <time>2015-06-03T14:36:47Z</time>
      </trkpt>
      <trkpt lat="43.41476" lon="6.09662">
        <ele>200</ele>
        <time>2015-06-03T14:36:50Z</time>
      </trkpt>
      <trkpt lat="43.41476" lon="6.09662">
        <ele>200</ele>
        <time>2015-06-03T14:36:51Z</time>
      </trkpt>
      <trkpt lat="43.41476" lon="6.09657">
        <ele>201</ele>
        <time>2015-06-03T14:37:01Z</time>
      </trkpt>
      <trkpt lat="43.41476" lon="6.0965">
        <ele>201.39999389648</ele>
        <time>2015-06-03T14:37:07Z</time>
      </trkpt>
      <trkpt lat="43.41476" lon="6.09642">
        <ele>202</ele>
        <time>2015-06-03T14:37:12Z</time>
      </trkpt>
      <trkpt lat="43.41476" lon="6.09638">
        <ele>202.60000610352</ele>
        <time>2015-06-03T14:37:15Z</time>
      </trkpt>
      <trkpt lat="43.41473" lon="6.09626">
        <ele>203.19999694824</ele>
        <time>2015-06-03T14:37:21Z</time>
      </trkpt>
      <trkpt lat="43.41472" lon="6.09621">
        <ele>203</ele>
        <time>2015-06-03T14:37:29Z</time>
      </trkpt>
      <trkpt lat="43.41472" lon="6.09614">
        <ele>203.19999694824</ele>
        <time>2015-06-03T14:37:34Z</time>
      </trkpt>
      <trkpt lat="43.41471" lon="6.09607">
        <ele>203.80000305176</ele>
        <time>2015-06-03T14:37:37Z</time>
      </trkpt>
      <trkpt lat="43.41471" lon="6.09603">
        <ele>204.39999389648</ele>
        <time>2015-06-03T14:37:39Z</time>
      </trkpt>
      <trkpt lat="43.41473" lon="6.09601">
        <ele>205</ele>
        <time>2015-06-03T14:37:41Z</time>
      </trkpt>
      <trkpt lat="43.41476" lon="6.09597">
        <ele>204.80000305176</ele>
        <time>2015-06-03T14:37:44Z</time>
      </trkpt>
      <trkpt lat="43.41476" lon="6.09595">
        <ele>204.60000610352</ele>
        <time>2015-06-03T14:37:45Z</time>
      </trkpt>
      <trkpt lat="43.41476" lon="6.09594">
        <ele>204.60000610352</ele>
        <time>2015-06-03T14:37:46Z</time>
      </trkpt>
      <trkpt lat="43.41479" lon="6.09588">
        <ele>204.19999694824</ele>
        <time>2015-06-03T14:37:49Z</time>
      </trkpt>
      <trkpt lat="43.4148" lon="6.09586">
        <ele>204</ele>
        <time>2015-06-03T14:37:50Z</time>
      </trkpt>
      <trkpt lat="43.41481" lon="6.09585">
        <ele>204</ele>
        <time>2015-06-03T14:37:51Z</time>
      </trkpt>
      <trkpt lat="43.41484" lon="6.09581">
        <ele>203</ele>
        <time>2015-06-03T14:37:54Z</time>
      </trkpt>
      <trkpt lat="43.41486" lon="6.09576">
        <ele>202</ele>
        <time>2015-06-03T14:37:56Z</time>
      </trkpt>
      <trkpt lat="43.41487" lon="6.0957">
        <ele>201.60000610352</ele>
        <time>2015-06-03T14:37:58Z</time>
      </trkpt>
      <trkpt lat="43.41488" lon="6.09569">
        <ele>201.39999389648</ele>
        <time>2015-06-03T14:37:59Z</time>
      </trkpt>
      <trkpt lat="43.41491" lon="6.09564">
        <ele>201</ele>
        <time>2015-06-03T14:38:01Z</time>
      </trkpt>
      <trkpt lat="43.41492" lon="6.09559">
        <ele>200</ele>
        <time>2015-06-03T14:38:03Z</time>
      </trkpt>
      <trkpt lat="43.41494" lon="6.09556">
        <ele>199.80000305176</ele>
        <time>2015-06-03T14:38:04Z</time>
      </trkpt>
      <trkpt lat="43.41497" lon="6.09554">
        <ele>199.60000610352</ele>
        <time>2015-06-03T14:38:06Z</time>
      </trkpt>
      <trkpt lat="43.41501" lon="6.09551">
        <ele>198.80000305176</ele>
        <time>2015-06-03T14:38:08Z</time>
      </trkpt>
      <trkpt lat="43.415" lon="6.09543">
        <ele>198.39999389648</ele>
        <time>2015-06-03T14:38:11Z</time>
      </trkpt>
      <trkpt lat="43.41501" lon="6.09534">
        <ele>199.19999694824</ele>
        <time>2015-06-03T14:38:15Z</time>
      </trkpt>
      <trkpt lat="43.41502" lon="6.0953">
        <ele>199.60000610352</ele>
        <time>2015-06-03T14:38:17Z</time>
      </trkpt>
      <trkpt lat="43.41504" lon="6.09526">
        <ele>200.19999694824</ele>
        <time>2015-06-03T14:38:19Z</time>
      </trkpt>
      <trkpt lat="43.41505" lon="6.09521">
        <ele>200.19999694824</ele>
        <time>2015-06-03T14:38:21Z</time>
      </trkpt>
      <trkpt lat="43.41509" lon="6.09504">
        <ele>200.19999694824</ele>
        <time>2015-06-03T14:38:26Z</time>
      </trkpt>
      <trkpt lat="43.41513" lon="6.09492">
        <ele>200.19999694824</ele>
        <time>2015-06-03T14:38:32Z</time>
      </trkpt>
      <trkpt lat="43.41518" lon="6.0949">
        <ele>198.80000305176</ele>
        <time>2015-06-03T14:38:34Z</time>
      </trkpt>
      <trkpt lat="43.4152" lon="6.09488">
        <ele>198</ele>
        <time>2015-06-03T14:38:35Z</time>
      </trkpt>
      <trkpt lat="43.4152" lon="6.09486">
        <ele>197.80000305176</ele>
        <time>2015-06-03T14:38:36Z</time>
      </trkpt>
      <trkpt lat="43.41521" lon="6.09481">
        <ele>197.80000305176</ele>
        <time>2015-06-03T14:38:38Z</time>
      </trkpt>
      <trkpt lat="43.41523" lon="6.09475">
        <ele>197.39999389648</ele>
        <time>2015-06-03T14:38:41Z</time>
      </trkpt>
      <trkpt lat="43.41522" lon="6.09473">
        <ele>197.19999694824</ele>
        <time>2015-06-03T14:38:42Z</time>
      </trkpt>
      <trkpt lat="43.41522" lon="6.09472">
        <ele>197.60000610352</ele>
        <time>2015-06-03T14:38:43Z</time>
      </trkpt>
      <trkpt lat="43.41517" lon="6.09463">
        <ele>198.60000610352</ele>
        <time>2015-06-03T14:38:51Z</time>
      </trkpt>
      <trkpt lat="43.41513" lon="6.09458">
        <ele>199.19999694824</ele>
        <time>2015-06-03T14:38:56Z</time>
      </trkpt>
      <trkpt lat="43.41513" lon="6.09453">
        <ele>199.80000305176</ele>
        <time>2015-06-03T14:39:03Z</time>
      </trkpt>
      <trkpt lat="43.41514" lon="6.0945">
        <ele>200.39999389648</ele>
        <time>2015-06-03T14:39:07Z</time>
      </trkpt>
      <trkpt lat="43.41512" lon="6.09448">
        <ele>200.80000305176</ele>
        <time>2015-06-03T14:39:13Z</time>
      </trkpt>
      <trkpt lat="43.41512" lon="6.09446">
        <ele>200.80000305176</ele>
        <time>2015-06-03T14:39:18Z</time>
      </trkpt>
      <trkpt lat="43.41515" lon="6.09444">
        <ele>200.80000305176</ele>
        <time>2015-06-03T14:39:21Z</time>
      </trkpt>
      <trkpt lat="43.4152" lon="6.0944">
        <ele>199.39999389648</ele>
        <time>2015-06-03T14:39:24Z</time>
      </trkpt>
      <trkpt lat="43.41521" lon="6.09437">
        <ele>199.19999694824</ele>
        <time>2015-06-03T14:39:26Z</time>
      </trkpt>
      <trkpt lat="43.41524" lon="6.09426">
        <ele>198.60000610352</ele>
        <time>2015-06-03T14:39:31Z</time>
      </trkpt>
      <trkpt lat="43.41524" lon="6.09426">
        <ele>198.60000610352</ele>
        <time>2015-06-03T14:39:32Z</time>
      </trkpt>
      <trkpt lat="43.41525" lon="6.09423">
        <ele>198.60000610352</ele>
        <time>2015-06-03T14:39:33Z</time>
      </trkpt>
      <trkpt lat="43.41525" lon="6.09414">
        <ele>198.19999694824</ele>
        <time>2015-06-03T14:39:36Z</time>
      </trkpt>
      <trkpt lat="43.41525" lon="6.09398">
        <ele>199.19999694824</ele>
        <time>2015-06-03T14:39:42Z</time>
      </trkpt>
      <trkpt lat="43.41524" lon="6.09386">
        <ele>200</ele>
        <time>2015-06-03T14:39:46Z</time>
      </trkpt>
      <trkpt lat="43.41523" lon="6.09383">
        <ele>200.19999694824</ele>
        <time>2015-06-03T14:39:47Z</time>
      </trkpt>
      <trkpt lat="43.41523" lon="6.09377">
        <ele>199.80000305176</ele>
        <time>2015-06-03T14:39:52Z</time>
      </trkpt>
      <trkpt lat="43.4152" lon="6.09368">
        <ele>200.60000610352</ele>
        <time>2015-06-03T14:39:59Z</time>
      </trkpt>
      <trkpt lat="43.4152" lon="6.09356">
        <ele>201.60000610352</ele>
        <time>2015-06-03T14:40:04Z</time>
      </trkpt>
      <trkpt lat="43.41521" lon="6.09354">
        <ele>202</ele>
        <time>2015-06-03T14:40:05Z</time>
      </trkpt>
      <trkpt lat="43.41521" lon="6.09354">
        <ele>202.19999694824</ele>
        <time>2015-06-03T14:40:08Z</time>
      </trkpt>
      <trkpt lat="43.41521" lon="6.09346">
        <ele>203.19999694824</ele>
        <time>2015-06-03T14:40:17Z</time>
      </trkpt>
      <trkpt lat="43.41521" lon="6.09346">
        <ele>203.60000610352</ele>
        <time>2015-06-03T14:40:18Z</time>
      </trkpt>
      <trkpt lat="43.41522" lon="6.09341">
        <ele>203.80000305176</ele>
        <time>2015-06-03T14:40:27Z</time>
      </trkpt>
      <trkpt lat="43.41522" lon="6.0934">
        <ele>203.60000610352</ele>
        <time>2015-06-03T14:40:30Z</time>
      </trkpt>
      <trkpt lat="43.41522" lon="6.0934">
        <ele>203.80000305176</ele>
        <time>2015-06-03T14:40:38Z</time>
      </trkpt>
      <trkpt lat="43.41524" lon="6.09337">
        <ele>203.39999389648</ele>
        <time>2015-06-03T14:40:47Z</time>
      </trkpt>
      <trkpt lat="43.41529" lon="6.09324">
        <ele>204.19999694824</ele>
        <time>2015-06-03T14:40:57Z</time>
      </trkpt>
      <trkpt lat="43.41536" lon="6.09306">
        <ele>203.60000610352</ele>
        <time>2015-06-03T14:41:07Z</time>
      </trkpt>
      <trkpt lat="43.41536" lon="6.09304">
        <ele>203.39999389648</ele>
        <time>2015-06-03T14:41:08Z</time>
      </trkpt>
      <trkpt lat="43.41539" lon="6.09304">
        <ele>203</ele>
        <time>2015-06-03T14:41:10Z</time>
      </trkpt>
      <trkpt lat="43.41541" lon="6.09301">
        <ele>202.39999389648</ele>
        <time>2015-06-03T14:41:12Z</time>
      </trkpt>
      <trkpt lat="43.41544" lon="6.09297">
        <ele>201.39999389648</ele>
        <time>2015-06-03T14:41:14Z</time>
      </trkpt>
      <trkpt lat="43.41545" lon="6.09291">
        <ele>200.60000610352</ele>
        <time>2015-06-03T14:41:17Z</time>
      </trkpt>
      <trkpt lat="43.41547" lon="6.09286">
        <ele>200</ele>
        <time>2015-06-03T14:41:19Z</time>
      </trkpt>
      <trkpt lat="43.41549" lon="6.09285">
        <ele>199.39999389648</ele>
        <time>2015-06-03T14:41:20Z</time>
      </trkpt>
      <trkpt lat="43.4155" lon="6.09284">
        <ele>199</ele>
        <time>2015-06-03T14:41:21Z</time>
      </trkpt>
      <trkpt lat="43.41553" lon="6.09283">
        <ele>198.39999389648</ele>
        <time>2015-06-03T14:41:22Z</time>
      </trkpt>
      <trkpt lat="43.41558" lon="6.09283">
        <ele>197.19999694824</ele>
        <time>2015-06-03T14:41:24Z</time>
      </trkpt>
      <trkpt lat="43.4156" lon="6.09283">
        <ele>196.19999694824</ele>
        <time>2015-06-03T14:41:25Z</time>
      </trkpt>
      <trkpt lat="43.4156" lon="6.09282">
        <ele>195.60000610352</ele>
        <time>2015-06-03T14:41:26Z</time>
      </trkpt>
      <trkpt lat="43.4156" lon="6.09279">
        <ele>195.19999694824</ele>
        <time>2015-06-03T14:41:27Z</time>
      </trkpt>
      <trkpt lat="43.41558" lon="6.09275">
        <ele>195.19999694824</ele>
        <time>2015-06-03T14:41:28Z</time>
      </trkpt>
      <trkpt lat="43.4156" lon="6.0927">
        <ele>195.39999389648</ele>
        <time>2015-06-03T14:41:30Z</time>
      </trkpt>
      <trkpt lat="43.41562" lon="6.09269">
        <ele>195.39999389648</ele>
        <time>2015-06-03T14:41:31Z</time>
      </trkpt>
      <trkpt lat="43.41564" lon="6.09261">
        <ele>194.80000305176</ele>
        <time>2015-06-03T14:41:34Z</time>
      </trkpt>
      <trkpt lat="43.41566" lon="6.09259">
        <ele>194</ele>
        <time>2015-06-03T14:41:36Z</time>
      </trkpt>
      <trkpt lat="43.41564" lon="6.0926">
        <ele>193.39999389648</ele>
        <time>2015-06-03T14:41:39Z</time>
      </trkpt>
      <trkpt lat="43.41562" lon="6.09256">
        <ele>193.19999694824</ele>
        <time>2015-06-03T14:41:43Z</time>
      </trkpt>
      <trkpt lat="43.41562" lon="6.09256">
        <ele>193</ele>
        <time>2015-06-03T14:41:46Z</time>
      </trkpt>
      <trkpt lat="43.41562" lon="6.09256">
        <ele>193.19999694824</ele>
        <time>2015-06-03T14:41:55Z</time>
      </trkpt>
      <trkpt lat="43.41562" lon="6.09255">
        <ele>193.60000610352</ele>
        <time>2015-06-03T14:42:06Z</time>
      </trkpt>
      <trkpt lat="43.41562" lon="6.09255">
        <ele>193.39999389648</ele>
        <time>2015-06-03T14:42:27Z</time>
      </trkpt>
      <trkpt lat="43.41562" lon="6.09254">
        <ele>193.60000610352</ele>
        <time>2015-06-03T14:43:49Z</time>
      </trkpt>
      <trkpt lat="43.41562" lon="6.09254">
        <ele>193.80000305176</ele>
        <time>2015-06-03T14:44:15Z</time>
      </trkpt>
      <trkpt lat="43.41561" lon="6.09254">
        <ele>193.80000305176</ele>
        <time>2015-06-03T14:44:26Z</time>
      </trkpt>
      <trkpt lat="43.4156" lon="6.09256">
        <ele>194</ele>
        <time>2015-06-03T14:44:29Z</time>
      </trkpt>
      <trkpt lat="43.41559" lon="6.09258">
        <ele>194</ele>
        <time>2015-06-03T14:44:30Z</time>
      </trkpt>
      <trkpt lat="43.41557" lon="6.09265">
        <ele>193.80000305176</ele>
        <time>2015-06-03T14:44:35Z</time>
      </trkpt>
      <trkpt lat="43.41556" lon="6.09269">
        <ele>193.60000610352</ele>
        <time>2015-06-03T14:44:37Z</time>
      </trkpt>
      <trkpt lat="43.41555" lon="6.09277">
        <ele>193.19999694824</ele>
        <time>2015-06-03T14:44:41Z</time>
      </trkpt>
      <trkpt lat="43.41554" lon="6.09279">
        <ele>193.19999694824</ele>
        <time>2015-06-03T14:44:42Z</time>
      </trkpt>
      <trkpt lat="43.41552" lon="6.0929">
        <ele>193</ele>
        <time>2015-06-03T14:44:46Z</time>
      </trkpt>
      <trkpt lat="43.41553" lon="6.09312">
        <ele>192.80000305176</ele>
        <time>2015-06-03T14:44:53Z</time>
      </trkpt>
      <trkpt lat="43.41554" lon="6.09317">
        <ele>192.60000610352</ele>
        <time>2015-06-03T14:44:54Z</time>
      </trkpt>
      <trkpt lat="43.4156" lon="6.09327">
        <ele>192</ele>
        <time>2015-06-03T14:44:56Z</time>
      </trkpt>
      <trkpt lat="43.41564" lon="6.0933">
        <ele>192</ele>
        <time>2015-06-03T14:44:57Z</time>
      </trkpt>
      <trkpt lat="43.41578" lon="6.0933">
        <ele>191.39999389648</ele>
        <time>2015-06-03T14:45:00Z</time>
      </trkpt>
      <trkpt lat="43.41586" lon="6.09329">
        <ele>191.19999694824</ele>
        <time>2015-06-03T14:45:02Z</time>
      </trkpt>
      <trkpt lat="43.41616" lon="6.09326">
        <ele>190.60000610352</ele>
        <time>2015-06-03T14:45:09Z</time>
      </trkpt>
      <trkpt lat="43.41621" lon="6.09325">
        <ele>190.60000610352</ele>
        <time>2015-06-03T14:45:10Z</time>
      </trkpt>
      <trkpt lat="43.41647" lon="6.09316">
        <ele>190.19999694824</ele>
        <time>2015-06-03T14:45:16Z</time>
      </trkpt>
      <trkpt lat="43.41668" lon="6.0931">
        <ele>190.60000610352</ele>
        <time>2015-06-03T14:45:22Z</time>
      </trkpt>
      <trkpt lat="43.41683" lon="6.09309">
        <ele>190.60000610352</ele>
        <time>2015-06-03T14:45:27Z</time>
      </trkpt>
      <trkpt lat="43.4169" lon="6.09308">
        <ele>190.80000305176</ele>
        <time>2015-06-03T14:45:30Z</time>
      </trkpt>
      <trkpt lat="43.41694" lon="6.09306">
        <ele>191</ele>
        <time>2015-06-03T14:45:32Z</time>
      </trkpt>
      <trkpt lat="43.41697" lon="6.09304">
        <ele>191</ele>
        <time>2015-06-03T14:45:42Z</time>
      </trkpt>
      <trkpt lat="43.41698" lon="6.09303">
        <ele>191</ele>
        <time>2015-06-03T14:45:50Z</time>
      </trkpt>
      <trkpt lat="43.417" lon="6.09299">
        <ele>191</ele>
        <time>2015-06-03T14:45:52Z</time>
      </trkpt>
      <trkpt lat="43.41701" lon="6.09297">
        <ele>191</ele>
        <time>2015-06-03T14:45:53Z</time>
      </trkpt>
      <trkpt lat="43.41701" lon="6.09283">
        <ele>190.80000305176</ele>
        <time>2015-06-03T14:45:56Z</time>
      </trkpt>
      <trkpt lat="43.41701" lon="6.09268">
        <ele>190.80000305176</ele>
        <time>2015-06-03T14:45:59Z</time>
      </trkpt>
      <trkpt lat="43.41701" lon="6.09253">
        <ele>190.80000305176</ele>
        <time>2015-06-03T14:46:02Z</time>
      </trkpt>
      <trkpt lat="43.41701" lon="6.09218">
        <ele>191.19999694824</ele>
        <time>2015-06-03T14:46:08Z</time>
      </trkpt>
      <trkpt lat="43.41701" lon="6.09206">
        <ele>191</ele>
        <time>2015-06-03T14:46:10Z</time>
      </trkpt>
      <trkpt lat="43.41701" lon="6.09162">
        <ele>191.39999389648</ele>
        <time>2015-06-03T14:46:17Z</time>
      </trkpt>
      <trkpt lat="43.41702" lon="6.09148">
        <ele>191.39999389648</ele>
        <time>2015-06-03T14:46:19Z</time>
      </trkpt>
      <trkpt lat="43.41702" lon="6.09127">
        <ele>191.39999389648</ele>
        <time>2015-06-03T14:46:22Z</time>
      </trkpt>
      <trkpt lat="43.41703" lon="6.0909">
        <ele>191.80000305176</ele>
        <time>2015-06-03T14:46:27Z</time>
      </trkpt>
      <trkpt lat="43.4171" lon="6.09054">
        <ele>191.60000610352</ele>
        <time>2015-06-03T14:46:32Z</time>
      </trkpt>
      <trkpt lat="43.41714" lon="6.09017">
        <ele>191.19999694824</ele>
        <time>2015-06-03T14:46:37Z</time>
      </trkpt>
      <trkpt lat="43.4172" lon="6.08974">
        <ele>192</ele>
        <time>2015-06-03T14:46:43Z</time>
      </trkpt>
      <trkpt lat="43.41725" lon="6.08923">
        <ele>191.80000305176</ele>
        <time>2015-06-03T14:46:50Z</time>
      </trkpt>
      <trkpt lat="43.41725" lon="6.089">
        <ele>191.80000305176</ele>
        <time>2015-06-03T14:46:53Z</time>
      </trkpt>
      <trkpt lat="43.41727" lon="6.08887">
        <ele>191.80000305176</ele>
        <time>2015-06-03T14:46:55Z</time>
      </trkpt>
      <trkpt lat="43.41727" lon="6.08873">
        <ele>191.80000305176</ele>
        <time>2015-06-03T14:46:57Z</time>
      </trkpt>
      <trkpt lat="43.41725" lon="6.08867">
        <ele>192.19999694824</ele>
        <time>2015-06-03T14:46:58Z</time>
      </trkpt>
      <trkpt lat="43.41718" lon="6.08848">
        <ele>192</ele>
        <time>2015-06-03T14:47:01Z</time>
      </trkpt>
      <trkpt lat="43.4169" lon="6.08798">
        <ele>192.19999694824</ele>
        <time>2015-06-03T14:47:09Z</time>
      </trkpt>
      <trkpt lat="43.41667" lon="6.08754">
        <ele>192.60000610352</ele>
        <time>2015-06-03T14:47:16Z</time>
      </trkpt>
      <trkpt lat="43.41638" lon="6.087">
        <ele>192.80000305176</ele>
        <time>2015-06-03T14:47:25Z</time>
      </trkpt>
      <trkpt lat="43.41635" lon="6.08694">
        <ele>193</ele>
        <time>2015-06-03T14:47:26Z</time>
      </trkpt>
      <trkpt lat="43.41615" lon="6.0865">
        <ele>192.60000610352</ele>
        <time>2015-06-03T14:47:33Z</time>
      </trkpt>
      <trkpt lat="43.41604" lon="6.08601">
        <ele>193</ele>
        <time>2015-06-03T14:47:40Z</time>
      </trkpt>
      <trkpt lat="43.41598" lon="6.08554">
        <ele>193.39999389648</ele>
        <time>2015-06-03T14:47:47Z</time>
      </trkpt>
      <trkpt lat="43.41589" lon="6.08488">
        <ele>193</ele>
        <time>2015-06-03T14:47:56Z</time>
      </trkpt>
      <trkpt lat="43.4158" lon="6.08429">
        <ele>193.19999694824</ele>
        <time>2015-06-03T14:48:04Z</time>
      </trkpt>
      <trkpt lat="43.41572" lon="6.08377">
        <ele>193.19999694824</ele>
        <time>2015-06-03T14:48:11Z</time>
      </trkpt>
      <trkpt lat="43.41558" lon="6.08309">
        <ele>193.19999694824</ele>
        <time>2015-06-03T14:48:20Z</time>
      </trkpt>
      <trkpt lat="43.41549" lon="6.08264">
        <ele>193</ele>
        <time>2015-06-03T14:48:26Z</time>
      </trkpt>
      <trkpt lat="43.41539" lon="6.08238">
        <ele>193.39999389648</ele>
        <time>2015-06-03T14:48:30Z</time>
      </trkpt>
      <trkpt lat="43.41508" lon="6.08176">
        <ele>194.39999389648</ele>
        <time>2015-06-03T14:48:41Z</time>
      </trkpt>
      <trkpt lat="43.41489" lon="6.08143">
        <ele>194.19999694824</ele>
        <time>2015-06-03T14:48:47Z</time>
      </trkpt>
      <trkpt lat="43.41461" lon="6.08096">
        <ele>194</ele>
        <time>2015-06-03T14:48:55Z</time>
      </trkpt>
      <trkpt lat="43.41433" lon="6.08051">
        <ele>194</ele>
        <time>2015-06-03T14:49:03Z</time>
      </trkpt>
      <trkpt lat="43.41408" lon="6.08008">
        <ele>193.60000610352</ele>
        <time>2015-06-03T14:49:11Z</time>
      </trkpt>
      <trkpt lat="43.41375" lon="6.07955">
        <ele>194.19999694824</ele>
        <time>2015-06-03T14:49:21Z</time>
      </trkpt>
      <trkpt lat="43.41349" lon="6.07928">
        <ele>194.60000610352</ele>
        <time>2015-06-03T14:49:28Z</time>
      </trkpt>
      <trkpt lat="43.41342" lon="6.07921">
        <ele>195</ele>
        <time>2015-06-03T14:49:30Z</time>
      </trkpt>
      <trkpt lat="43.41337" lon="6.07911">
        <ele>195</ele>
        <time>2015-06-03T14:49:32Z</time>
      </trkpt>
      <trkpt lat="43.41332" lon="6.07886">
        <ele>194.80000305176</ele>
        <time>2015-06-03T14:49:36Z</time>
      </trkpt>
      <trkpt lat="43.41328" lon="6.07873">
        <ele>194.80000305176</ele>
        <time>2015-06-03T14:49:38Z</time>
      </trkpt>
      <trkpt lat="43.41312" lon="6.07822">
        <ele>194.39999389648</ele>
        <time>2015-06-03T14:49:45Z</time>
      </trkpt>
      <trkpt lat="43.413" lon="6.07775">
        <ele>194.60000610352</ele>
        <time>2015-06-03T14:49:51Z</time>
      </trkpt>
      <trkpt lat="43.41294" lon="6.07752">
        <ele>194.80000305176</ele>
        <time>2015-06-03T14:49:54Z</time>
      </trkpt>
      <trkpt lat="43.41293" lon="6.07744">
        <ele>195</ele>
        <time>2015-06-03T14:49:55Z</time>
      </trkpt>
      <trkpt lat="43.41292" lon="6.07737">
        <ele>195</ele>
        <time>2015-06-03T14:49:56Z</time>
      </trkpt>
      <trkpt lat="43.41292" lon="6.07716">
        <ele>195.19999694824</ele>
        <time>2015-06-03T14:49:59Z</time>
      </trkpt>
      <trkpt lat="43.41298" lon="6.07676">
        <ele>195.19999694824</ele>
        <time>2015-06-03T14:50:05Z</time>
      </trkpt>
      <trkpt lat="43.41317" lon="6.07614">
        <ele>196</ele>
        <time>2015-06-03T14:50:15Z</time>
      </trkpt>
      <trkpt lat="43.41333" lon="6.07556">
        <ele>195.60000610352</ele>
        <time>2015-06-03T14:50:24Z</time>
      </trkpt>
      <trkpt lat="43.41339" lon="6.07532">
        <ele>196</ele>
        <time>2015-06-03T14:50:28Z</time>
      </trkpt>
      <trkpt lat="43.41342" lon="6.07521">
        <ele>196.19999694824</ele>
        <time>2015-06-03T14:50:30Z</time>
      </trkpt>
      <trkpt lat="43.41348" lon="6.07491">
        <ele>196.80000305176</ele>
        <time>2015-06-03T14:50:35Z</time>
      </trkpt>
      <trkpt lat="43.41352" lon="6.07472">
        <ele>197.19999694824</ele>
        <time>2015-06-03T14:50:38Z</time>
      </trkpt>
      <trkpt lat="43.41366" lon="6.07397">
        <ele>197.60000610352</ele>
        <time>2015-06-03T14:50:50Z</time>
      </trkpt>
      <trkpt lat="43.41369" lon="6.07385">
        <ele>197.80000305176</ele>
        <time>2015-06-03T14:50:52Z</time>
      </trkpt>
      <trkpt lat="43.41381" lon="6.07326">
        <ele>198.60000610352</ele>
        <time>2015-06-03T14:51:02Z</time>
      </trkpt>
      <trkpt lat="43.41385" lon="6.07314">
        <ele>198.80000305176</ele>
        <time>2015-06-03T14:51:04Z</time>
      </trkpt>
      <trkpt lat="43.41395" lon="6.07279">
        <ele>198.80000305176</ele>
        <time>2015-06-03T14:51:10Z</time>
      </trkpt>
      <trkpt lat="43.41414" lon="6.07219">
        <ele>199.19999694824</ele>
        <time>2015-06-03T14:51:20Z</time>
      </trkpt>
      <trkpt lat="43.4142" lon="6.07201">
        <ele>199.60000610352</ele>
        <time>2015-06-03T14:51:23Z</time>
      </trkpt>
      <trkpt lat="43.41425" lon="6.07189">
        <ele>199.60000610352</ele>
        <time>2015-06-03T14:51:25Z</time>
      </trkpt>
      <trkpt lat="43.41428" lon="6.07177">
        <ele>199.80000305176</ele>
        <time>2015-06-03T14:51:27Z</time>
      </trkpt>
      <trkpt lat="43.41449" lon="6.07116">
        <ele>200</ele>
        <time>2015-06-03T14:51:37Z</time>
      </trkpt>
      <trkpt lat="43.41463" lon="6.07082">
        <ele>200</ele>
        <time>2015-06-03T14:51:43Z</time>
      </trkpt>
      <trkpt lat="43.41466" lon="6.07079">
        <ele>200</ele>
        <time>2015-06-03T14:51:44Z</time>
      </trkpt>
      <trkpt lat="43.41475" lon="6.07077">
        <ele>200.60000610352</ele>
        <time>2015-06-03T14:51:47Z</time>
      </trkpt>
      <trkpt lat="43.41477" lon="6.07077">
        <ele>200.80000305176</ele>
        <time>2015-06-03T14:51:48Z</time>
      </trkpt>
      <trkpt lat="43.41487" lon="6.07076">
        <ele>201</ele>
        <time>2015-06-03T14:51:53Z</time>
      </trkpt>
      <trkpt lat="43.4149" lon="6.07076">
        <ele>201</ele>
        <time>2015-06-03T14:51:55Z</time>
      </trkpt>
      <trkpt lat="43.4149" lon="6.07076">
        <ele>201.19999694824</ele>
        <time>2015-06-03T14:52:02Z</time>
      </trkpt>
      <trkpt lat="43.4149" lon="6.07076">
        <ele>201</ele>
        <time>2015-06-03T14:52:03Z</time>
      </trkpt>
    </trkseg>
  </trk>
</gpx>